[[{"header":{"parameterUnit":"m.s-1","parameterCategory":1,"la1":30.6,"la2":28.766,"lo1":-90.7593,"lo2":-88.6598,"dy":0.0162,"dx":0.0183,"nx":116,"ny":114,"refTime":"2023-09-29T18:00:00:Z","depth":0,"parameterNumber":2,"parameterNumberName":"U-component_of_WINDS"},"data":[0.0,0.0,0.0,0.0,0.0,0.0,0.0,0.0,0.0,0.0,0.0,0.0,0.0,0.0,0.0,0.0,0.0,0.0,0.0,0.0,0.0,0.0,0.0,0.0,0.0,0.0,0.0,0.0,0.0,0.0,0.0,0.0,0.0,0.0,0.0,0.0,0.0,0.0,0.0,0.0,0.0,0.0,0.0,0.0,0.0,0.0,0.0,0.0,0.0,0.0,0.0,0.0,0.0,0.0,0.0,0.0,0.0,0.0,0.0,0.0,0.0,0.0,0.0,0.0,0.0,0.0,0.0,0.0,0.0,0.0,0.0,0.0,0.0,0.0,0.0,0.0,0.0,0.0,0.0,0.0,0.0,0.0,0.0,0.0,0.0,0.0,0.0,0.0,0.0,0.0,0.0,0.0,0.0,0.0,0.0,0.0,0.0,0.0,0.0,0.0,0.0,0.0,0.0,0.0,0.0,0.0,0.0,0.0,0.0,0.0,0.0,0.0,0.0,0.0,0.0,0.0,0.0,0.0,0.0,0.0,0.0,0.0,0.0,0.0,0.0,0.0,0.0,0.0,0.0,0.0,0.0,0.0,0.0,0.0,0.0,0.0,0.0,0.0,0.0,0.0,0.0,0.0,0.0,0.0,0.0,0.0,0.0,0.0,0.0,0.0,0.0,0.0,0.0,0.0,0.0,0.0,0.0,0.0,0.0,0.0,0.0,0.0,0.0,0.0,0.0,0.0,0.0,0.0,0.0,0.0,0.0,0.0,0.0,0.0,0.0,0.0,0.0,0.0,0.0,0.0,0.0,0.0,0.0,0.0,0.0,0.0,0.0,0.0,0.0,0.0,0.0,0.0,0.0,0.0,0.0,0.0,0.0,0.0,0.0,0.0,0.0,0.0,0.0,0.0,0.0,0.0,0.0,0.0,0.0,0.0,0.0,0.0,0.0,0.0,0.0,0.0,0.0,0.0,0.0,0.0,0.0,0.0,0.0,0.0,0.0,0.0,0.0,0.0,0.0,0.0,0.0,0.0,0.0,0.0,0.0,0.0,0.0,0.0,0.0,0.0,0.0,0.0,0.0,0.0,0.0,0.0,0.0,0.0,0.0,0.0,0.0,0.0,0.0,0.0,0.0,0.0,0.0,0.0,0.0,0.0,0.0,0.0,0.0,0.0,0.0,0.0,0.0,0.0,0.0,0.0,0.0,0.0,0.0,0.0,0.0,0.0,0.0,0.0,0.0,0.0,0.0,0.0,0.0,0.0,0.0,0.0,0.0,0.0,0.0,0.0,0.0,0.0,0.0,0.0,0.0,0.0,0.0,0.0,0.0,0.0,0.0,0.0,0.0,0.0,0.0,0.0,0.0,0.0,0.0,0.0,0.0,0.0,0.0,0.0,0.0,0.0,0.0,0.0,0.0,0.0,0.0,0.0,0.0,0.0,0.0,0.0,0.0,0.0,0.0,0.0,0.0,0.0,0.0,0.0,0.0,0.0,0.0,0.0,0.0,0.0,0.0,0.0,0.0,0.0,0.0,0.0,0.0,0.0,0.0,0.0,0.0,0.0,0.0,0.0,0.0,0.0,0.0,0.0,0.0,0.0,0.0,0.0,0.0,0.0,0.0,0.0,0.0,0.0,0.0,0.0,0.0,0.0,0.0,0.0,0.0,0.0,0.0,0.0,0.0,0.0,0.0,0.0,0.0,0.0,0.0,0.0,0.0,0.0,0.0,0.0,0.0,0.0,0.0,0.0,0.0,0.0,0.0,0.0,0.0,0.0,0.0,0.0,0.0,0.0,0.0,0.0,0.0,0.0,0.0,0.0,0.0,0.0,0.0,0.0,0.0,0.0,0.0,0.0,0.0,0.0,0.0,0.0,0.0,0.0,0.0,0.0,0.0,0.0,0.0,0.0,0.0,0.0,0.0,0.0,0.0,0.0,0.0,0.0,0.0,0.0,0.0,0.0,0.0,0.0,0.0,0.0,0.0,0.0,0.0,0.0,0.0,0.0,0.0,0.0,0.0,0.0,0.0,0.0,0.0,0.0,0.0,0.0,0.0,0.0,0.0,0.0,0.0,0.0,0.0,0.0,0.0,0.0,0.0,0.0,0.0,0.0,0.0,0.0,0.0,0.0,0.0,0.0,0.0,0.0,0.0,0.0,0.0,0.0,0.0,0.0,0.0,0.0,0.0,0.0,0.0,0.0,0.0,0.0,0.0,0.0,0.0,0.0,0.0,0.0,0.0,0.0,0.0,0.0,0.0,0.0,0.0,0.0,0.0,0.0,0.0,0.0,0.0,0.0,0.0,0.0,0.0,0.0,0.0,0.0,0.0,0.0,0.0,0.0,0.0,0.0,0.0,0.0,0.0,0.0,0.0,0.0,0.0,0.0,0.0,0.0,0.0,0.0,0.0,0.0,0.0,0.0,0.0,0.0,0.0,0.0,0.0,0.0,0.0,0.0,0.0,0.0,0.0,0.0,0.0,0.0,0.0,0.0,0.0,0.0,0.0,0.0,0.0,0.0,0.0,0.0,0.0,0.0,0.0,0.0,0.0,0.0,0.0,0.0,0.0,0.0,0.0,0.0,0.0,0.0,0.0,0.0,0.0,0.0,0.0,0.0,0.0,0.0,0.0,0.0,0.0,0.0,0.0,0.0,0.0,0.0,0.0,0.0,0.0,0.0,0.0,0.0,0.0,0.0,0.0,0.0,0.0,0.0,0.0,0.0,0.0,0.0,0.0,0.0,0.0,0.0,0.0,0.0,0.0,0.0,0.0,0.0,0.0,0.0,0.0,0.0,0.0,0.0,0.0,0.0,0.0,0.0,0.0,0.0,0.0,0.0,0.0,0.0,0.0,0.0,0.0,0.0,0.0,0.0,0.0,0.0,0.0,0.0,0.0,0.0,0.0,0.0,0.0,0.0,0.0,0.0,0.0,0.0,0.0,0.0,0.0,0.0,0.0,0.0,0.0,0.0,0.0,0.0,0.0,0.0,0.0,0.0,0.0,0.0,0.0,0.0,0.0,0.0,0.0,0.0,0.0,0.0,0.0,0.0,0.0,0.0,0.0,0.0,0.0,0.0,0.0,0.0,0.0,0.0,0.0,0.0,0.0,0.0,0.0,0.0,0.0,0.0,0.0,0.0,0.0,0.0,0.0,0.0,0.0,0.0,0.0,0.0,0.0,0.0,0.0,0.0,0.0,0.0,0.0,0.0,0.0,0.0,0.0,0.0,0.0,0.0,0.0,0.0,0.0,0.0,0.0,0.0,0.0,0.0,0.0,0.0,0.0,0.0,0.0,0.0,0.0,0.0,0.0,0.0,0.0,0.0,0.0,0.0,0.0,0.0,0.0,0.0,0.0,0.0,0.0,0.0,0.0,0.0,0.0,0.0,0.0,0.0,0.0,0.0,0.0,0.0,0.0,0.0,0.0,0.0,0.0,0.0,0.0,0.0,0.0,0.0,0.0,0.0,0.0,0.0,0.0,0.0,0.0,0.0,0.0,0.0,0.0,0.0,0.0,0.0,0.0,0.0,0.0,0.0,0.0,0.0,0.0,0.0,0.0,0.0,0.0,0.0,0.0,0.0,0.0,0.0,0.0,0.0,0.0,0.0,0.0,0.0,0.0,0.0,0.0,0.0,0.0,0.0,0.0,0.0,0.0,0.0,0.0,0.0,0.0,0.0,0.0,0.0,0.0,0.0,0.0,0.0,0.0,0.0,0.0,0.0,0.0,0.0,0.0,0.0,0.0,0.0,0.0,0.0,0.0,0.0,0.0,0.0,0.0,0.0,0.0,0.0,0.0,0.0,0.0,0.0,0.0,0.0,0.0,0.0,0.0,0.0,0.0,0.0,0.0,0.0,0.0,0.0,0.0,0.0,0.0,0.0,0.0,0.0,0.0,0.0,0.0,0.0,0.0,0.0,0.0,0.0,0.0,0.0,0.0,0.0,0.0,0.0,0.0,0.0,0.0,0.0,0.0,0.0,0.0,0.0,0.0,0.0,0.0,0.0,0.0,0.0,0.0,0.0,0.0,0.0,0.0,0.0,0.0,0.0,0.0,0.0,0.0,0.0,0.0,0.0,0.0,0.0,0.0,0.0,0.0,0.0,0.0,0.0,0.0,0.0,0.0,0.0,0.0,0.0,0.0,0.0,0.0,0.0,0.0,0.0,0.0,0.0,0.0,0.0,0.0,0.0,0.0,0.0,0.0,0.0,0.0,0.0,0.0,0.0,0.0,0.0,0.0,0.0,0.0,0.0,0.0,0.0,0.0,0.0,0.0,0.0,0.0,0.0,0.0,0.0,0.0,0.0,0.0,0.0,0.0,0.0,0.0,0.0,0.0,0.0,0.0,0.0,0.0,0.0,0.0,0.0,0.0,0.0,0.0,0.0,0.0,0.0,0.0,0.0,0.0,0.0,0.0,0.0,0.0,0.0,0.0,0.0,0.0,0.0,0.0,0.0,0.0,0.0,0.0,0.0,0.0,0.0,0.0,0.0,0.0,0.0,0.0,0.0,0.0,0.0,0.0,0.0,0.0,0.0,0.0,0.0,0.0,0.0,0.0,0.0,0.0,0.0,0.0,0.0,0.0,0.0,0.0,0.0,0.0,0.0,0.0,0.0,0.0,0.0,0.0,0.0,0.0,0.0,0.0,0.0,0.0,0.0,0.0,0.0,0.0,0.0,0.0,0.0,0.0,0.0,0.0,0.0,0.0,0.0,0.0,0.0,0.0,0.0,0.0,0.0,0.0,0.0,0.0,0.0,0.0,0.0,0.0,0.0,0.0,0.0,0.0,0.0,0.0,0.0,0.0,0.0,0.0,0.0,0.0,0.0,0.0,0.0,0.0,0.0,0.0,0.0,0.0,0.0,0.0,0.0,0.0,0.0,0.0,0.0,0.0,0.0,0.0,0.0,0.0,0.0,0.0,0.0,0.0,0.0,0.0,0.0,0.0,0.0,0.0,0.0,0.0,0.0,0.0,0.0,0.0,0.0,0.0,0.0,0.0,0.0,0.0,0.0,0.0,0.0,0.0,0.0,0.0,0.0,0.0,0.0,0.0,0.0,0.0,0.0,0.0,0.0,0.0,0.0,0.0,0.0,0.0,0.0,0.0,0.0,0.0,0.0,0.0,0.0,0.0,0.0,0.0,0.0,0.0,0.0,0.0,0.0,0.0,0.0,0.0,0.0,0.0,0.0,0.0,0.0,0.0,0.0,0.0,0.0,0.0,0.0,0.0,0.0,0.0,0.0,0.0,0.0,0.0,0.0,0.0,0.0,0.0,0.0,0.0,0.0,0.0,0.0,0.0,0.0,0.0,0.0,0.0,0.0,0.0,0.0,0.0,0.0,0.0,0.0,0.0,0.0,0.0,0.0,0.0,0.0,0.0,0.0,0.0,0.0,0.0,0.0,0.0,0.0,0.0,0.0,0.0,0.0,0.0,0.0,0.0,0.0,0.0,0.0,0.0,0.0,0.0,0.0,0.0,0.0,0.0,0.0,0.0,0.0,0.0,0.0,0.0,0.0,0.0,0.0,0.0,0.0,0.0,0.0,0.0,0.0,0.0,0.0,0.0,0.0,0.0,0.0,0.0,0.0,0.0,0.0,0.0,0.0,0.0,0.0,0.0,0.0,0.0,0.0,0.0,0.0,0.0,0.0,0.0,0.0,0.0,0.0,0.0,0.0,0.0,0.0,0.0,0.0,0.0,0.0,0.0,0.0,0.0,0.0,0.0,0.0,0.0,0.0,0.0,0.0,0.0,0.0,0.0,0.0,0.0,0.0,0.0,0.0,0.0,0.0,0.0,0.0,0.0,0.0,0.0,0.0,0.0,0.0,0.0,0.0,0.0,0.0,0.0,0.0,0.0,0.0,0.0,0.0,0.0,0.0,0.0,0.0,0.0,0.0,0.0,0.0,0.0,0.0,0.0,0.0,0.0,0.0,0.0,0.0,0.0,0.0,0.0,0.0,0.0,0.0,0.0,0.0,0.0,0.0,0.0,0.0,0.0,0.0,0.0,0.0,0.0,0.0,0.0,0.0,0.0,0.0,0.0,0.0,0.0,0.0,0.0,0.0,0.0,0.0,0.0,0.0,0.0,0.0,0.0,0.0,0.0,0.0,0.707,0.0,0.0,0.0,0.0,0.0,0.0,0.0,0.0,0.0,0.0,0.0,0.0,0.0,0.0,0.0,0.0,0.0,0.0,0.0,0.0,0.0,0.0,0.0,0.0,0.0,0.0,0.0,0.0,0.0,0.0,0.0,0.0,0.0,0.0,0.0,0.0,0.0,0.0,1.0976,1.1151,1.1326,1.1485,1.0931,1.0772,1.096,0.0,0.0,0.0,0.0,0.0,0.0,0.0,0.0,0.0,0.0,0.0,0.0,0.0,0.0,0.0,0.0,0.0,0.0,0.0,0.0,0.0,0.0,0.0,0.0,0.0,0.0,0.0,0.0,0.0,0.0,0.0,0.0,0.0,0.0,0.0,0.0,0.0,0.0,0.0,0.0,0.0,0.0,0.0,0.0,0.0,0.0,0.0,0.0,0.0,0.0,0.0,0.0,0.0,0.0,0.0,0.0,0.0,0.0,0.0,0.0,0.0,0.0,0.0,0.0,0.0,0.0,0.0,0.0,0.0,0.0,0.0,0.728,0.0,0.0,0.0,0.0,0.0,0.0,0.0,0.0,0.0,0.0,0.0,0.0,0.0,0.0,0.0,0.0,0.0,0.0,0.0,0.0,0.0,0.0,0.0,0.9998,1.0059,1.0194,1.0206,1.0257,0.0,0.0,0.0,0.0,0.0,0.0,1.1103,1.1358,1.1565,1.1692,1.1803,1.1867,1.1867,1.1867,1.1853,1.1809,1.1584,0.0,0.0,0.0,0.0,0.0,0.0,0.0,0.0,0.0,0.0,0.0,0.0,0.0,0.0,0.0,0.0,0.0,0.0,0.0,0.0,0.0,0.0,0.0,0.0,0.0,0.0,0.0,0.0,0.0,0.0,0.0,0.0,0.0,0.0,0.0,0.0,0.0,0.0,0.0,0.0,0.0,0.0,0.0,0.0,0.0,0.0,0.0,0.0,0.0,0.0,0.0,0.0,0.0,0.0,0.0,0.0,0.0,0.0,0.0,0.0,0.0,0.0,0.0,0.7645,0.7719,0.7719,0.7862,0.7929,0.7934,0.7909,0.7876,0.7796,0.0,0.0,0.0,0.0,0.0,0.0,0.0,0.0,0.0,0.0,0.0,0.0,0.0,0.0,0.0,0.0,0.0,0.0,0.0,0.0,1.0269,1.0408,1.0428,1.0474,1.0617,1.0627,1.0888,1.1537,0.0,0.0,0.0,0.0,1.1579,1.1438,1.1485,1.1803,1.247,1.3044,1.3315,1.3315,1.3315,1.3233,1.3022,1.1969,1.1501,1.1487,0.0,0.0,0.0,0.0,0.0,0.0,0.0,0.0,0.0,0.0,0.0,0.0,0.0,0.0,0.0,0.0,0.0,0.0,0.0,0.0,0.0,0.0,0.0,0.0,0.0,0.0,0.0,0.0,0.0,0.0,0.0,0.0,0.0,0.0,0.0,0.0,0.0,0.0,0.0,0.0,0.0,0.749,0.7699,0.0,0.0,0.0,0.0,0.0,0.0,0.0,0.0,0.0,0.0,0.0,0.0,0.0,0.7975,0.7774,0.7875,0.7925,0.7925,0.8106,0.8206,0.8213,0.8355,0.8417,0.8417,0.8407,0.0,0.7822,0.8044,0.0,0.0,0.0,0.0,0.0,0.0,0.0,0.0,0.0,0.0,0.0,0.0,0.0,0.0,0.0,0.0,0.0,0.0,0.0,0.0,0.0,1.0835,1.0965,1.1289,1.1315,1.155,1.211,1.2022,0.0,0.0,1.2189,1.227,1.212,1.2487,1.2837,1.3172,1.3458,1.3645,1.3715,1.3715,1.3705,1.3667,1.3153,1.2692,1.2336,1.2074,0.0,0.0,0.0,0.0,0.0,0.0,0.0,0.0,0.0,0.0,0.0,0.0,0.0,0.0,0.0,0.0,0.0,0.0,0.0,0.0,0.0,0.0,0.0,0.0,0.0,0.0,0.0,0.0,0.0,0.0,0.0,0.0,0.0,0.0,0.0,0.0,0.0,0.0,0.0,0.7958,0.8042,0.8131,0.8125,0.81,0.0,0.0,0.0,0.0,0.0,0.0,0.0,0.0,0.0,0.8039,0.8177,0.8238,0.8187,0.8311,0.8392,0.8392,0.8547,0.8648,0.8648,0.8818,0.8886,0.8893,0.8975,0.8852,0.8573,0.8424,0.8305,0.8235,0.0,0.0,0.0,0.0,0.801,0.8027,0.0,0.0,0.0,0.0,0.0,0.0,0.0,0.0,0.0,0.0,0.0,0.0,1.1362,1.1379,1.1531,1.1918,1.196,1.2127,1.2532,1.2468,1.2409,1.2408,1.2793,1.2963,1.2853,1.3521,1.3854,1.3854,1.4046,1.4163,1.4216,1.4216,1.4212,1.4184,1.4184,1.3779,1.3104,1.2828,1.2509,1.2176,0.0,0.0,0.0,0.0,0.0,0.0,0.0,0.0,0.0,0.0,0.0,0.0,0.0,0.0,0.0,0.0,0.0,0.0,0.0,0.0,0.0,0.0,0.0,0.0,0.0,0.0,0.0,0.0,0.0,0.0,0.0,0.0,0.0,0.0,0.0,0.0,0.0,0.8529,0.855,0.8605,0.8628,0.8628,0.0,0.0,0.0,0.0,0.0,0.0,0.8608,0.8499,0.8431,0.8403,0.8485,0.8573,0.8682,0.8804,0.8879,0.8886,0.9007,0.9082,0.9088,0.9259,0.9349,0.9362,0.9442,0.9458,0.9315,0.8866,0.8662,0.8587,0.8486,0.8438,0.8425,0.8284,0.8217,0.8262,0.0,0.0,0.0,0.0,0.0,0.0,0.0,0.0,0.0,0.0,0.0,1.1646,1.2104,1.2136,1.2202,1.2357,1.2377,1.2549,1.2943,1.2958,1.3125,1.3487,1.3542,1.357,1.3553,1.4202,1.455,1.455,1.5253,1.5491,1.5311,1.5311,1.5096,1.4666,1.4666,1.4224,1.3469,1.3314,1.3067,1.2751,1.252,0.0,0.0,0.0,0.0,0.0,0.0,0.0,0.0,0.0,0.0,0.0,0.0,0.0,0.0,0.0,0.0,0.0,0.0,0.0,0.0,0.0,0.0,0.0,0.0,0.0,0.0,0.0,0.0,0.0,0.0,0.0,0.0,0.0,0.0,0.0,0.0,0.0,0.0,0.9148,0.8949,0.0,0.0,0.0,0.0,0.9182,0.9338,0.9186,0.8624,0.89,0.8937,0.8689,0.8988,0.9166,0.9173,0.9301,0.9376,0.9376,0.9503,0.9578,0.9585,0.969,0.9758,0.9758,0.9765,0.9765,0.9754,0.9335,0.9042,0.8885,0.8879,0.8879,0.8879,0.8872,0.8865,0.8845,0.0,0.0,0.0,0.0,0.0,0.0,0.0,0.0,1.0923,1.1418,1.1963,1.2259,1.221,1.2431,1.2635,1.2783,1.298,1.3271,1.3665,1.3711,1.3769,1.3917,1.3928,1.414,1.4619,1.508,1.53,1.53,1.5777,1.5944,1.5781,1.6052,1.6039,1.5792,1.5792,1.5401,1.4687,1.4254,1.3881,1.3557,1.3264,1.2892,0.0,0.0,0.0,0.0,0.0,0.0,0.0,0.0,0.0,0.0,0.0,0.0,0.0,0.0,0.0,0.0,0.0,0.0,0.0,0.0,0.0,0.0,0.0,0.0,0.0,0.0,0.0,0.0,0.0,0.0,0.0,0.0,0.0,0.0,0.0,0.0,0.0,0.9494,0.9392,0.0,0.9698,0.973,0.9691,0.9649,0.9485,0.9331,0.9248,0.9189,0.9154,0.9137,0.934,0.9449,0.9449,0.9686,0.9815,0.9846,1.0002,1.0039,1.0046,1.0093,1.0114,1.0114,1.0114,1.0114,1.0107,0.9975,0.9734,0.9481,0.9481,0.942,0.9345,0.9345,0.9306,0.9211,0.0,0.0,0.0,0.0,0.0,0.0,0.0,1.1052,1.1338,1.1651,1.2275,1.263,1.2485,1.279,1.3119,1.3409,1.361,1.387,1.428,1.4296,1.4362,1.4461,1.4571,1.4855,1.5367,1.5812,1.6031,1.6031,1.6508,1.6609,1.6381,1.6652,1.6627,1.6396,1.6396,1.6206,1.5858,1.5436,1.4894,1.4254,1.4033,1.3789,1.3484,0.0,0.0,0.0,0.0,0.0,0.0,0.0,0.0,0.0,0.0,0.0,0.0,0.0,0.0,0.0,0.0,0.0,0.0,0.0,0.0,0.0,0.0,0.0,0.0,0.0,0.0,0.0,0.0,0.0,0.0,0.0,0.0,0.0,0.0,0.9856,0.9841,0.9944,0.9912,0.9938,1.0094,1.0092,1.0038,0.9871,0.9665,0.9546,0.9601,0.9518,0.9503,0.9605,0.9754,0.9836,0.9836,0.987,0.9928,1.0044,1.0037,1.0097,1.0143,1.0195,1.0182,1.0182,1.0182,1.0182,1.0182,1.0182,1.0071,0.9869,0.9928,0.9917,0.9836,0.9836,0.9774,0.9709,0.0,0.0,0.0,0.0,0.0,0.0,1.1162,1.1487,1.1793,1.2098,1.2459,1.2798,1.2995,1.3272,1.3676,1.4244,1.4206,1.4298,1.4692,1.4731,1.4891,1.52,1.5538,1.5717,1.5733,1.6376,1.6721,1.6721,1.7445,1.7583,1.7138,1.7154,1.6912,1.6485,1.6463,1.6632,1.6838,1.6838,1.6073,1.4872,1.4857,1.4762,1.4614,0.0,0.0,0.0,0.0,0.0,0.0,0.0,0.0,0.0,0.0,0.0,0.0,0.0,0.0,0.0,0.0,0.0,0.0,0.0,0.0,0.0,0.0,0.0,0.0,0.0,0.0,0.0,0.0,0.0,0.0,0.0,0.0,0.0,1.056,1.0462,1.0455,1.0491,1.0445,1.0427,1.0498,1.0509,1.0322,0.9852,0.995,0.9893,0.9632,0.9873,0.9997,1.0035,1.0215,1.0297,1.0304,0.9914,0.9787,0.9895,0.9705,0.9673,0.9829,0.9928,0.9989,0.9989,0.9989,0.9989,0.9989,0.9989,0.9989,1.0003,1.0208,1.0304,1.0304,1.0297,1.029,1.0256,0.0,0.0,0.0,0.0,0.0,0.0,1.1294,1.159,1.1982,1.2606,1.2953,1.3204,1.3423,1.3927,1.429,1.4296,1.4671,1.4932,1.5069,1.5282,1.5471,1.5549,1.5883,1.6174,1.6424,1.6889,1.7239,1.7514,1.7938,1.8004,1.7707,1.8233,1.8318,1.8006,1.8248,1.8129,1.7743,1.7743,1.7368,1.6711,1.6031,1.5711,1.5619,0.0,0.0,0.0,0.0,0.0,0.0,0.0,0.0,0.0,0.0,0.0,0.0,0.0,0.0,0.0,0.0,0.0,0.0,0.0,0.0,0.0,0.0,0.0,0.0,0.0,0.0,0.0,0.0,0.0,0.0,0.0,1.1194,1.112,1.0705,1.0895,1.0958,1.0679,1.0767,1.0852,1.0856,1.076,1.0599,1.0336,1.0253,1.0187,1.0093,1.0175,1.0263,1.0365,1.0228,1.0228,1.0365,1.0059,0.9918,0.9955,0.993,0.9898,0.9934,0.9971,0.9989,0.9989,0.9989,0.9989,0.9989,0.9989,0.9989,1.0005,1.0064,1.0013,0.9946,1.0109,1.0207,1.0276,0.0,0.0,0.0,0.0,0.0,0.0,1.1387,1.1788,1.2299,1.2825,1.3132,1.3415,1.37,1.4255,1.4621,1.4635,1.498,1.5343,1.5686,1.5983,1.6122,1.6044,1.6441,1.6746,1.6953,1.7445,1.7816,1.8007,1.8494,1.8633,1.8357,1.8925,1.9069,1.8819,1.9018,1.8953,1.8704,1.8704,1.8536,1.8234,1.7514,1.706,1.6739,1.6034,1.5646,1.5413,1.484,1.4436,1.4079,1.3434,0.0,0.0,0.0,0.0,0.0,0.0,0.0,0.0,0.0,0.0,0.0,0.0,0.0,0.0,0.0,0.0,0.0,0.0,0.0,0.0,0.0,0.0,0.0,0.0,1.163,1.154,1.1414,1.1385,1.1302,1.1196,1.1125,1.1091,1.1134,1.0918,1.0727,1.0507,1.0474,1.0493,1.0555,1.0616,1.0657,1.0538,1.0389,1.027,1.0216,0.9953,0.9811,0.9864,0.9689,0.9648,0.9695,0.9695,0.9695,0.0,0.9695,0.9695,0.9695,0.9695,0.9695,0.0,0.0,0.0,0.0,0.0,1.0097,1.0155,0.0,0.0,0.0,0.0,0.0,0.0,1.1428,1.2055,1.265,1.2963,1.3178,1.3488,1.3915,1.4402,1.4792,1.508,1.5219,1.5617,1.6372,1.667,1.6753,1.6633,1.7061,1.7339,1.7419,1.7985,1.8335,1.8414,1.9089,1.9312,1.9106,1.945,1.9474,1.9253,1.9299,1.9407,1.9581,1.9581,1.9539,1.9423,1.9082,1.8494,1.7785,1.7096,1.6837,1.67,1.5846,1.5553,1.5366,1.43,0.0,0.0,0.0,0.0,0.0,0.0,0.0,0.0,0.0,0.0,0.0,0.0,0.0,0.0,0.0,0.0,0.0,0.0,0.0,0.0,0.0,0.0,0.0,0.0,1.2202,1.2161,1.234,1.1868,1.1578,1.1812,1.1483,1.1295,1.1346,1.1033,1.0777,1.0587,1.069,1.0792,1.086,0.0,0.0,0.0,0.0,1.0332,0.9997,0.9649,0.9543,0.9669,0.9314,0.9201,0.9345,0.9345,0.9345,0.9345,0.9345,0.9345,0.9345,0.9345,0.9345,0.939,0.9783,0.995,0.9978,0.9978,0.9966,0.9989,0.0,0.0,0.0,0.0,0.0,0.0,1.1562,1.2188,1.2858,1.3482,1.3498,1.3696,1.4319,1.4894,1.5222,1.5114,1.5615,1.6119,1.6522,1.6707,1.6966,1.7365,1.7317,1.7562,1.8097,1.824,1.8589,1.9185,1.9328,1.9511,1.9716,2.0081,2.019,2.0156,2.044,2.0433,2.0215,2.0215,2.0058,1.9813,1.9709,1.9089,1.8144,1.7731,1.7594,1.7498,1.6716,1.6377,1.6146,1.5153,1.4732,1.4545,1.4216,1.4111,0.0,0.0,0.0,0.0,0.0,0.0,0.0,0.0,0.0,0.0,0.0,0.0,0.0,0.0,0.0,0.0,0.0,0.0,0.0,1.2349,1.2456,1.248,1.2273,1.2181,1.209,1.1987,1.1798,1.1679,1.1617,1.1326,1.111,1.1084,1.1097,1.0987,1.067,1.0696,1.0594,1.0287,1.0012,0.9883,0.9911,0.9523,0.9405,0.9526,0.0,0.0,0.9638,0.9638,0.9638,0.9638,0.9638,0.9638,0.9638,0.9638,0.9638,0.9611,0.9474,0.9568,0.9765,0.9765,0.9876,0.9989,0.0,0.0,0.0,0.0,0.0,0.0,1.1606,1.2223,1.2934,1.3603,1.3581,1.3761,1.4429,1.5033,1.531,1.5114,1.5948,1.6563,1.6733,1.6963,1.729,1.7723,1.7621,1.7785,1.8287,1.8478,1.8827,1.9391,1.9566,1.9821,2.0155,2.0496,2.0655,2.067,2.082,2.0804,2.0655,2.0655,2.0448,2.0155,2.0155,1.9741,1.9041,1.8494,1.8192,1.7991,1.7445,1.7101,1.6776,1.6054,1.5521,1.5136,1.4755,1.4574,1.4482,0.0,0.0,0.0,0.0,0.0,0.0,0.0,0.0,0.0,0.0,0.0,0.0,0.0,0.0,1.3003,1.2967,0.0,1.3049,1.2798,1.2708,1.2669,1.2592,1.2433,1.225,1.2155,1.1904,1.173,1.1682,1.1415,1.1241,1.1295,1.1099,1.0923,1.0825,1.0648,1.0428,1.0167,0.9993,0.9876,0.9818,0.9597,0.9519,0.9616,0.9616,0.9649,0.9709,0.9709,0.9709,0.9709,0.9709,0.9709,0.9709,0.9709,0.9709,0.9693,0.9536,0.9526,0.9596,0.9596,0.9625,0.9653,0.0,0.0,0.0,0.0,0.0,0.0,0.0,1.2258,1.2984,1.3643,1.3622,1.3788,1.4459,1.5008,1.5305,1.522,1.6241,1.6899,1.6899,1.7245,1.7623,1.7985,1.79,1.8035,1.8398,1.8662,1.9034,1.9487,1.9757,2.0107,2.0496,2.0756,2.0899,2.0899,2.0899,2.0899,2.0899,2.0899,2.0724,2.0496,2.0496,2.0314,1.9916,1.9272,1.8812,1.8446,1.8055,1.7721,1.7408,1.6875,1.6283,1.5701,1.5247,1.4934,1.477,1.477,1.462,0.0,0.0,0.0,0.0,0.0,0.0,0.0,0.0,1.3668,1.3664,1.3707,1.3677,1.36,1.3514,1.3474,1.3364,1.3174,1.2929,1.2819,1.2934,1.2611,1.2349,1.2353,1.1962,1.1716,1.1731,1.1448,1.1274,1.1317,1.1038,1.0853,1.0823,1.0595,1.0292,1.0036,1.0036,0.9902,0.9703,0.9709,0.972,0.9704,0.9704,0.9715,0.9774,0.9774,0.9774,0.9774,0.9774,0.9774,0.9774,0.9774,0.9774,0.9774,0.9774,0.9661,0.9552,0.953,0.9443,0.934,0.0,0.0,0.0,0.0,0.0,0.0,0.0,0.0,1.3121,1.3798,1.3751,1.3941,1.4602,1.4952,1.5267,1.5589,1.6415,1.6899,1.6899,1.7367,1.7866,1.8331,1.8159,1.8296,1.8725,1.8788,1.9145,1.9837,1.9869,2.0234,2.0836,2.0883,2.0899,2.0899,2.0899,2.0899,2.0899,2.0899,2.0867,2.0836,2.0836,2.0655,2.0289,1.9916,1.9566,1.9185,1.8478,1.8208,1.8106,1.7576,1.6995,1.6463,1.6212,1.5957,1.5739,1.5739,1.5756,1.5754,1.5542,1.502,1.4526,1.4508,1.4531,1.4495,0.0,1.4225,1.4256,1.4442,1.3874,1.3524,1.4083,1.3663,1.3183,1.3044,1.2986,1.2934,1.2841,1.2629,1.2485,1.2472,1.2022,1.1766,1.1874,1.1579,1.1288,1.1041,1.1092,1.0876,1.0236,1.0236,1.0082,0.9762,0.9762,0.973,0.9709,0.9709,0.972,0.978,0.978,0.984,0.9981,0.9981,0.9981,0.9981,0.9981,0.9981,0.9981,0.9981,0.9981,0.9981,0.9981,0.9867,0.9748,0.9688,0.9611,0.9465,0.0,0.0,0.0,0.0,0.0,0.0,0.0,0.0,1.3049,1.3497,1.3645,1.3875,1.4296,1.4912,1.5389,1.5678,1.6331,1.6772,1.6882,1.722,1.7684,1.8258,1.8164,1.8282,1.8684,1.8778,1.9177,1.9884,1.9884,2.025,2.0899,2.0899,2.0899,2.0899,2.0899,2.0899,2.0899,2.0899,2.0899,2.0899,2.0899,2.0804,2.0639,2.0107,1.9805,1.9582,1.8859,1.8478,0.0,1.8055,1.7486,1.6881,1.6779,1.6496,1.6206,1.6206,1.6008,1.5816,1.5755,1.5425,1.511,1.5298,1.5244,1.5046,1.4765,1.4705,1.4646,1.452,1.4165,1.3937,1.4163,1.3731,1.3364,1.3335,1.3264,1.3046,1.267,1.2558,1.24,1.2184,1.1832,1.1662,1.1731,1.1456,1.124,1.1117,1.081,1.0482,1.0185,1.0013,0.9849,0.9764,0.9769,0.9802,0.9873,0.9643,0.9554,0.9557,0.9325,0.9235,0.9285,0.9285,0.9285,0.9285,0.9285,0.9285,0.9285,0.9285,0.9285,0.9324,0.9553,0.9604,0.9585,0.9699,0.9693,0.9633,0.0,0.0,0.0,0.0,0.0,0.0,0.0,0.0,0.0,0.0,1.3557,1.3828,1.4164,1.4914,1.5434,1.5536,1.6175,1.6692,1.6901,1.7143,1.7549,1.8167,1.8254,1.8392,1.8594,1.8812,1.92,1.9757,1.9837,2.0203,2.0756,2.0851,2.0899,2.0899,2.0899,2.0899,2.0899,2.0899,2.0899,2.0899,2.0899,2.0836,2.0702,2.0123,1.9837,1.9678,1.9027,1.8646,1.8446,1.8446,1.7895,1.7239,1.7239,1.6929,1.6551,1.6551,1.6323,1.6063,1.6058,1.5807,1.5635,1.6024,1.5806,1.5425,1.5267,1.5165,1.496,1.46,1.4429,1.435,1.4241,1.3842,1.3559,1.3582,1.3413,1.3103,1.265,1.2543,1.2361,1.2016,1.1693,1.15,1.15,1.1295,1.1116,1.0933,1.0504,1.0205,1.0092,0.9899,0.9802,0.9845,0.9735,0.974,0.9825,0.9436,0.9246,0.9246,0.8934,0.8817,0.8817,0.8817,0.8817,0.8817,0.8817,0.8817,0.8817,0.8817,0.8817,0.8817,0.9129,0.9246,0.9275,0.9459,0.9628,0.9715,0.0,0.0,0.0,0.0,0.0,0.0,0.0,0.0,0.0,0.0,0.0,1.39,1.4444,1.5033,1.531,1.5132,1.6035,1.6692,1.6901,1.7261,1.7709,1.8188,1.8569,1.872,1.8594,1.8995,1.9258,1.9407,1.9725,2.0075,2.0416,2.0766,2.0899,2.0899,2.0899,2.0899,2.0899,2.0899,2.0899,2.0899,2.0899,2.0718,2.0369,2.0028,1.9694,1.936,1.8947,1.8788,1.8788,1.8788,1.8254,1.7575,1.7575,1.7274,1.6888,1.6888,1.6931,1.6919,1.6718,1.6286,1.6011,1.6545,1.6021,1.5479,1.573,1.5507,1.5189,1.4864,1.4694,1.456,1.4497,1.4013,1.3585,1.3594,1.3318,1.3014,1.2822,1.2619,1.244,1.2209,1.159,1.1201,1.1201,1.1207,1.0933,1.0286,1.0343,1.0222,0.9835,0.9943,0.9975,0.9975,0.9625,0.9397,0.9402,0.9012,0.8817,0.8817,0.8817,0.8817,0.8817,0.8817,0.8817,0.8817,0.8817,0.8817,0.8817,0.8817,0.8817,0.8817,0.8817,0.8817,0.8817,0.8813,0.9243,0.9791,0.0,0.0,0.0,0.0,0.0,0.0,0.0,0.0,0.0,0.0,0.0,0.0,0.0,0.0,0.0,0.0,1.5647,1.614,1.649,1.6865,1.7291,1.7726,1.8153,1.8505,1.872,1.8951,1.9245,1.9588,1.9701,1.987,2.0075,2.0187,2.0378,2.0575,2.0575,2.0702,2.0883,2.067,2.0575,2.0559,2.0346,2.0171,2.0028,1.9694,1.9503,1.9344,0.0,1.8804,1.8804,1.8804,1.8403,1.7942,1.7942,1.7581,1.7139,1.7004,1.6998,1.7007,1.6775,1.6575,1.6467,1.6659,1.6311,1.593,1.5983,1.5616,1.5135,1.4763,1.459,1.4415,1.4104,1.3798,1.3573,1.3485,1.3144,1.2783,1.246,1.2331,1.2173,1.1828,1.1451,1.1135,1.0934,1.0765,0.0,1.0355,1.0201,1.0075,0.996,0.9726,0.9597,0.9597,0.9207,0.9012,0.9012,0.8583,0.8393,0.8393,0.8076,0.7955,0.7955,0.7955,0.7955,0.7955,0.7955,0.7955,0.7955,0.7955,0.7955,0.7959,0.8271,0.8393,0.8432,0.87,0.8949,0.9152,0.0,0.0,0.0,0.0,0.0,0.0,0.0,0.0,0.0,0.0,0.0,0.0,0.0,0.0,0.0,0.0,0.0,1.586,1.6267,1.6557,1.6935,1.7488,1.7904,1.8271,1.8574,1.8812,1.9094,1.9434,1.9564,1.9738,1.9974,2.0103,2.0256,2.0482,2.0482,2.0536,2.0628,2.0429,2.0284,2.0203,1.998,1.9845,1.9694,1.9471,1.9312,0.0,1.8884,1.8804,1.8781,1.8728,1.8435,1.8087,1.7994,1.7672,1.7327,1.7344,1.7288,1.7221,1.7055,1.6935,1.6843,1.6808,1.6482,1.616,1.6107,1.5609,1.5066,1.4679,1.455,1.4369,1.3895,1.3684,1.3503,1.3235,1.2964,1.2612,1.2089,1.2129,1.2015,1.144,1.1205,1.0915,1.0628,1.0384,1.0257,1.0257,1.0092,0.9942,0.9786,0.9558,0.9324,0.9207,0.8778,0.8588,0.8588,0.8154,0.7959,0.7959,0.7642,0.7486,0.7486,0.7486,0.7486,0.7486,0.7486,0.7486,0.7486,0.7486,0.7486,0.7525,0.7842,0.7959,0.7998,0.8232,0.8349,0.8388,0.0,0.0,0.0,0.0,0.0,0.0,0.0,0.0,0.0,0.0,0.0,0.0,0.0,0.0,0.0,0.0,0.0,0.0,1.6233,1.6337,1.6699,1.742,1.7772,1.8043,1.8192,1.8578,1.8856,1.8985,1.9303,1.9672,2.0058,2.0381,2.0538,2.0571,2.0571,2.0442,2.0216,2.02,2.0063,1.9893,1.9877,1.9646,1.9375,1.9375,1.9129,1.8804,1.8804,1.8781,1.8758,1.8566,1.8326,1.807,1.7767,1.7556,1.7512,1.7868,1.7732,1.7522,1.7554,1.7357,1.7087,1.7017,1.6546,1.6107,1.609,1.5572,1.4967,1.465,1.4519,1.4298,1.3845,1.3644,1.3397,1.2857,1.2746,1.2494,1.1813,1.1952,1.1864,1.108,1.0841,1.0634,1.0228,1.007,0.9975,0.998,0.0,0.9786,0.9441,0.9363,0.9168,0.8778,0.8393,0.8159,0.8159,0.7725,0.7486,0.7486,0.7486,0.7486,0.7486,0.7486,0.7486,0.7486,0.7486,0.7486,0.7486,0.7486,0.7486,0.7486,0.7486,0.7486,0.7486,0.7486,0.7486,0.7603,0.0,0.0,0.0,0.0,0.0,0.0,0.0,0.0,0.0,0.0,0.0,0.0,0.0,0.0,0.0,0.0,0.0,0.0,1.5463,1.6046,1.6457,1.6592,1.7261,1.7752,1.8046,1.8441,1.871,1.8839,1.8939,1.9085,1.9276,1.9375,1.9705,2.0239,2.0239,2.0316,2.0467,2.0021,1.9789,1.9725,1.9263,1.9034,1.8947,1.8947,1.8884,1.8804,1.8804,1.8689,1.8566,1.8535,1.834,1.8088,1.761,1.7646,1.7815,1.7663,1.7592,1.7515,1.7293,1.7308,1.728,1.6815,1.6559,1.6281,1.5828,1.5215,1.465,1.4351,1.4015,1.3646,1.3269,1.3207,1.3,1.2329,1.2206,1.21,1.1765,1.1398,1.1135,1.0995,1.0578,1.0273,1.0223,0.9987,0.9767,0.0,0.9553,0.9514,0.9402,0.8817,0.8471,0.8354,0.792,0.7681,0.7681,0.7564,0.7486,0.7486,0.7486,0.7486,0.7486,0.7486,0.7486,0.7486,0.7486,0.7486,0.7486,0.7486,0.7486,0.7486,0.7486,0.7486,0.7486,0.7486,0.7486,0.7525,0.0,0.0,0.0,0.0,0.0,0.0,0.0,0.0,0.0,0.0,0.0,0.0,0.0,0.0,0.0,0.0,0.0,0.0,0.0,1.5617,1.5994,1.6283,1.6766,1.7177,1.7515,1.7912,1.8227,1.8452,1.8625,1.8832,1.9094,1.9094,1.9312,1.9715,1.9715,1.9741,1.977,1.9366,1.9125,0.0,0.0,1.8367,1.8367,1.8367,1.8367,1.8367,1.8367,1.8236,1.811,1.8149,1.808,1.7973,1.7707,1.7782,1.7977,1.7767,1.7675,1.7548,1.7321,1.7272,1.7162,1.6675,1.6434,1.6164,1.5531,1.4977,1.453,1.4262,1.3757,1.3283,1.3036,1.2793,1.2441,1.1855,1.1714,1.1574,1.1391,1.1044,1.0751,1.0655,1.0329,1.0085,0.9992,0.9693,0.9505,0.9392,0.9402,0.9246,0.8895,0.8432,0.812,0.7881,0.7642,0.7486,0.7486,0.7486,0.7486,0.7486,0.7486,0.7486,0.7486,0.7486,0.7486,0.7486,0.0,0.7486,0.7486,0.7486,0.7486,0.7486,0.7486,0.7486,0.7486,0.7486,0.7486,0.7486,0.0,0.0,0.0,0.0,0.0,0.0,0.0,0.0,0.0,0.0,0.0,0.0,0.0,0.0,0.0,0.0,0.0,0.0,0.0,0.0,1.5497,1.6147,1.6303,1.6526,1.6814,1.7209,1.7586,1.7923,1.8288,1.8686,1.9114,1.9114,1.9149,1.92,1.9157,1.9028,1.8792,1.8559,1.8322,1.8083,1.7888,1.7785,1.7785,0.0,1.7785,1.7785,1.7719,1.7648,1.7561,1.7588,1.7658,1.7761,1.7834,1.7873,1.7928,1.7908,1.7729,1.7532,1.7456,1.7186,1.6882,1.6557,1.6253,1.5868,1.5175,1.4799,1.4471,1.4142,1.3564,1.3078,1.2922,1.2381,1.183,1.1513,1.1308,1.1084,1.0853,1.0735,1.0559,1.0189,1.0047,0.992,0.973,0.938,0.9221,0.9314,0.9285,0.8934,0.8237,0.8159,0.792,0.7525,0.7486,0.7486,0.7486,0.7486,0.7486,0.7486,0.7486,0.7486,0.7486,0.7486,0.7486,0.7486,0.0,0.0,0.7486,0.7486,0.7486,0.7486,0.7486,0.7486,0.7486,0.7486,0.7486,0.7486,0.0,0.0,0.0,0.0,0.0,0.0,0.0,0.0,0.0,0.0,1.3023,1.3445,0.0,0.0,0.0,0.0,0.0,0.0,0.0,0.0,0.0,1.5394,1.5993,1.6352,1.6402,1.6797,1.7192,1.7589,1.7657,1.8034,1.8703,1.8703,1.8874,1.92,1.8964,1.8835,1.8792,1.8403,1.823,1.8164,1.7909,1.7785,1.7785,1.7785,0.0,0.0,1.7349,1.7248,1.7258,1.709,1.7223,1.747,1.7563,1.7622,1.7633,1.741,1.7274,1.7178,1.7166,1.6932,1.6651,1.6527,1.6094,1.5512,1.4828,1.4471,1.4112,1.3504,1.3054,1.2702,1.2405,1.1931,1.151,1.1299,1.1142,1.0918,1.0529,1.0301,1.0062,0.983,0.9576,0.9494,0.9687,0.9312,0.8992,0.0,0.8583,0.8354,0.8198,0.7842,0.7564,0.7486,0.7486,0.7486,0.7486,0.7486,0.7486,0.7486,0.7486,0.7486,0.7486,0.7486,0.7486,0.7486,0.7486,0.0,0.7486,0.7486,0.7486,0.7486,0.7486,0.7486,0.7486,0.7486,0.7486,0.7486,0.0,0.0,0.0,0.0,0.0,0.0,0.0,1.2529,1.2382,1.2308,1.2848,1.3209,1.3141,1.3838,1.4192,0.0,0.0,0.0,0.0,0.0,0.0,1.5172,1.5548,1.5822,1.6027,1.6422,1.6675,1.6769,0.0,1.7169,1.7408,1.7631,1.7833,1.8018,1.8037,1.8075,1.8037,1.7744,1.7618,1.7597,1.7344,1.7223,1.7223,1.7223,0.0,0.0,1.6743,1.677,1.6907,1.6768,1.6831,1.704,1.7383,1.7546,1.7556,1.7279,1.714,1.7043,1.6771,1.6446,1.6132,1.5971,1.5456,1.4906,1.4393,1.3956,1.3479,1.2982,1.2513,1.2098,1.1874,1.1365,1.0959,1.084,1.0728,1.0524,1.0247,1.0085,0.9909,0.9625,0.9407,0.9305,0.9298,0.8918,0.8607,0.8418,0.805,0.7842,0.7842,0.7603,0.7486,0.7486,0.7486,0.7486,0.7486,0.7486,0.7486,0.7486,0.7486,0.7486,0.7486,0.7486,0.7486,0.7486,0.7486,0.0,0.7486,0.7486,0.7486,0.7486,0.7486,0.7486,0.7486,0.7486,0.7486,0.7486,0.0,0.0,0.0,0.0,0.0,0.0,0.0,1.2443,1.2283,1.2221,1.2599,1.2896,1.2904,1.3679,1.4088,0.0,0.0,0.0,0.0,0.0,0.0,0.0,0.0,0.0,1.5563,0.0,0.0,1.604,1.629,0.0,0.0,0.0,0.0,0.0,1.7,1.7109,1.7092,1.6891,1.6811,0.0,0.0,1.6488,1.6503,0.0,0.0,0.0,0.0,1.6253,1.6463,1.6405,1.64,1.6532,1.7072,1.7273,1.7282,1.7082,1.697,1.6821,1.6326,1.5971,1.5659,1.5361,1.4834,1.4313,1.3982,1.3441,1.2888,1.2545,1.2058,1.164,1.1381,1.0878,1.0502,1.045,1.0284,1.0067,0.9883,0.982,0.9681,0.9394,0.9316,0.9143,0.8924,0.8589,0.8276,0.8004,0.767,0.0,0.7486,0.7486,0.7486,0.7486,0.7486,0.7486,0.7486,0.7486,0.7486,0.7486,0.7486,0.7486,0.7486,0.7486,0.7486,0.7486,0.7486,0.0,0.0,0.7486,0.7486,0.7486,0.7486,0.7486,0.7486,0.7486,0.7486,0.7486,0.0,0.0,0.0,0.0,0.0,0.0,0.0,1.232,1.2203,1.1973,1.2286,1.2564,1.2622,1.3357,1.383,0.0,0.0,0.0,0.0,0.0,0.0,0.0,0.0,0.0,0.0,0.0,0.0,1.5821,1.5854,0.0,0.0,0.0,0.0,0.0,0.0,1.614,1.6121,1.5912,0.0,0.0,0.0,0.0,0.0,0.0,0.0,0.0,0.0,1.5721,1.5749,1.5963,1.5976,1.5947,1.6295,1.6427,1.6416,1.6381,1.6374,1.6304,1.6017,1.5677,1.536,1.5024,1.4494,1.3954,1.3612,1.3089,1.2545,1.223,1.1914,1.152,1.096,1.0655,1.0457,1.0331,0.994,0.9608,0.9481,0.929,0.9137,0.8956,0.9068,0.9063,0.8914,0.8589,0.8276,0.8004,0.767,0.0,0.7486,0.7486,0.7486,0.7486,0.7486,0.7486,0.7486,0.7486,0.7486,0.7486,0.7486,0.7486,0.7486,0.7486,0.7486,0.7486,0.7486,0.0,0.0,0.7486,0.7486,0.7486,0.7486,0.7486,0.7486,0.7486,0.7486,0.7486,0.0,0.0,0.0,0.0,0.0,0.0,1.2283,1.2172,1.2017,1.1906,1.2057,1.229,1.2567,1.3035,1.3407,1.3599,0.0,0.0,0.0,0.0,0.0,0.0,0.0,0.0,0.0,0.0,1.5019,1.5255,1.5255,0.0,0.0,0.0,0.0,0.0,0.0,1.5816,1.5816,1.5739,0.0,0.0,0.0,0.0,0.0,0.0,0.0,0.0,0.0,0.0,1.5569,1.5414,1.5444,1.556,1.553,1.5552,1.5644,1.5971,1.5937,1.5743,1.5444,1.5027,1.4603,1.4274,1.3744,1.3246,1.2913,1.2414,1.1904,1.1569,1.1151,1.0743,1.04,1.0125,0.9932,0.9891,0.9633,0.9398,0.9294,0.9187,0.9047,0.8921,0.8811,0.8658,0.8457,0.8159,0.7873,0.765,0.7554,0.0,0.7486,0.7486,0.7486,0.7486,0.7486,0.7486,0.7486,0.7486,0.7486,0.7486,0.7486,0.7486,0.7486,0.7486,0.7486,0.7486,0.7486,0.0,0.0,0.7486,0.7369,0.7138,0.7138,0.6978,0.6783,0.6783,0.6783,0.6783,0.0,0.0,0.0,0.0,0.0,1.2234,1.2197,1.1998,1.1819,1.1781,1.1828,1.1987,1.2328,1.2597,1.2888,1.3233,1.3384,0.0,0.0,0.0,0.0,0.0,0.0,0.0,0.0,0.0,1.4565,1.4667,1.4762,1.4739,0.0,0.0,1.503,1.503,0.0,0.0,0.0,0.0,0.0,0.0,0.0,0.0,0.0,0.0,0.0,0.0,0.0,0.0,0.0,0.0,0.0,1.5027,1.4854,1.4776,1.4838,1.5379,1.5421,1.5179,1.4885,1.4447,1.4003,1.3673,1.3129,1.2621,1.227,1.1738,1.1226,1.0952,1.0533,1.0123,0.9881,0.9687,0.9546,0.9408,0.9217,0.9081,0.905,0.8924,0.8851,0.8861,0.8618,0.8378,0.8093,0.7778,0.7527,0.7417,0.0,0.0,0.7486,0.7486,0.7486,0.7486,0.7486,0.7486,0.7486,0.7486,0.7486,0.7486,0.7486,0.7486,0.7486,0.7486,0.7486,0.7486,0.0,0.0,0.0,0.733,0.7096,0.6708,0.6708,0.6548,0.6314,0.6314,0.6314,0.6314,0.0,0.0,0.0,0.0,0.0,0.0,1.1918,1.1781,1.1644,1.1519,1.1511,1.1575,1.1802,1.2052,1.2341,1.2682,1.3069,0.0,0.0,0.0,0.0,0.0,0.0,0.0,0.0,0.0,1.4109,1.4125,1.4439,1.4597,1.4597,1.4613,1.4613,1.4613,0.0,0.0,0.0,0.0,0.0,0.0,0.0,0.0,1.431,0.0,0.0,0.0,0.0,0.0,0.0,0.0,0.0,0.0,0.0,1.4128,1.4014,1.457,1.4708,1.4651,1.4372,1.4061,1.372,1.3399,1.2741,1.2134,1.1771,1.1142,1.0575,1.0433,1.0179,0.9885,0.9491,0.9503,0.9454,0.8984,0.8738,0.8636,0.869,0.8428,0.8372,0.8765,0.8573,0.8303,0.8019,0.7579,0.7334,0.7382,0.0,0.0,0.7486,0.7486,0.7486,0.7486,0.7486,0.7486,0.7486,0.7486,0.7486,0.7486,0.7486,0.7486,0.7486,0.7486,0.7486,0.0,0.0,0.0,0.0,0.6904,0.6666,0.6314,0.6314,0.6314,0.6314,0.6314,0.6314,0.6314,0.0,0.0,0.0,0.0,0.0,0.0,0.0,1.1644,1.1544,1.1506,1.133,1.1345,1.1627,1.1658,1.1864,1.2389,1.2844,0.0,0.0,0.0,0.0,0.0,0.0,0.0,0.0,0.0,1.387,1.4091,1.4439,1.4597,1.4597,1.4597,1.4597,1.4597,1.4597,1.4559,0.0,0.0,0.0,0.0,0.0,1.3985,1.3929,0.0,0.0,0.0,0.0,0.0,0.0,0.0,0.0,0.0,0.0,0.0,0.0,1.3446,1.362,1.3856,1.378,1.3381,1.2925,1.2683,1.2121,1.1577,1.129,1.0906,1.0489,1.0076,0.9808,0.9578,0.9313,0.9037,0.8858,0.8907,0.8517,0.8265,0.8526,0.8341,0.8242,0.8316,0.7966,0.7598,0.7333,0.0,0.7207,0.7334,0.0,0.0,0.7482,0.7486,0.7486,0.7486,0.7486,0.7486,0.7486,0.7486,0.7486,0.7486,0.7486,0.7486,0.7486,0.7486,0.0,0.0,0.0,0.0,0.0,0.6587,0.6235,0.5883,0.5844,0.5648,0.5414,0.5414,0.5414,0.5414,0.0,0.0,0.0,0.0,0.0,0.0,0.0,1.1469,1.1343,1.1343,1.1154,1.1102,1.131,1.1328,1.1532,1.2034,1.2407,0.0,0.0,0.0,0.0,0.0,0.0,0.0,1.2901,1.3281,1.3578,1.3799,1.42,1.44,1.44,1.44,1.44,1.44,1.44,1.4364,0.0,0.0,0.0,0.0,1.3852,1.3725,1.3546,0.0,0.0,0.0,0.0,0.0,0.0,0.0,0.0,0.0,0.0,0.0,0.0,0.0,1.2711,1.297,1.3143,1.2771,1.2317,1.219,1.1637,1.1067,1.0801,1.0391,0.9981,0.9608,0.9388,0.9229,0.9045,0.8716,0.8553,0.8698,0.8306,0.8083,0.8313,0.825,0.8161,0.8013,0.7608,0.7282,0.0,0.7072,0.715,0.0,0.0,0.0,0.7472,0.7466,0.7486,0.7486,0.7486,0.7486,0.7486,0.7486,0.7486,0.7486,0.7486,0.7486,0.7486,0.7486,0.0,0.0,0.0,0.0,0.0,0.6157,0.5805,0.5414,0.5374,0.5218,0.4983,0.4983,0.4983,0.4983,0.0,0.0,0.0,0.0,0.0,0.0,0.0,1.1242,1.1095,1.1095,1.0981,1.0892,1.0892,1.1045,1.1282,1.1609,0.0,0.0,0.0,0.0,0.0,0.0,0.0,0.0,1.2567,1.3039,1.3298,1.3298,1.3842,1.4093,1.4093,1.4093,1.4093,1.4093,1.4093,1.4093,0.0,0.0,0.0,0.0,1.3761,1.351,0.0,0.0,0.0,0.0,0.0,0.0,0.0,0.0,0.0,0.0,0.0,0.0,0.0,0.0,0.0,0.0,0.0,1.2224,1.1841,1.183,1.1225,1.0584,1.0323,0.9721,0.0,0.9084,0.8972,0.885,0.8669,0.8552,0.8441,0.8379,0.8131,0.7994,0.8085,0.8123,0.8051,0.7783,0.7453,0.7182,0.701,0.7068,0.708,0.0,0.0,0.0,0.7378,0.746,0.7466,0.7466,0.7474,0.7478,0.7486,0.7486,0.7486,0.7486,0.7486,0.7486,0.7486,0.7486,0.0,0.0,0.0,0.0,0.0,0.5651,0.5374,0.4983,0.4983,0.4983,0.4983,0.4983,0.4983,0.4983,0.0,0.0,0.0,0.0,0.0,0.0,0.0,0.0,0.0,0.0,1.0824,1.0752,1.0752,1.0705,1.0767,0.0,0.0,0.0,0.0,0.0,0.0,0.0,0.0,0.0,1.2212,1.2827,1.3148,1.3148,1.379,1.4093,1.4093,1.4093,1.4093,1.4093,1.4093,1.4018,0.0,0.0,0.0,0.0,1.3346,1.32,0.0,0.0,0.0,0.0,1.2273,1.2238,0.0,0.0,0.0,0.0,0.0,0.0,0.0,0.0,1.1405,1.1245,1.1307,0.0,1.1333,1.1107,1.0618,1.0086,0.0,0.9458,0.9071,0.8653,0.8739,0.8743,0.8269,0.8127,0.8105,0.8084,0.7839,0.77,0.7908,0.7655,0.743,0.7408,0.7074,0.6865,0.6974,0.7011,0.0,0.0,0.0,0.7219,0.7326,0.7351,0.7363,0.7363,0.7386,0.7456,0.7486,0.7486,0.7486,0.7486,0.7486,0.7486,0.7486,0.7486,0.0,0.0,0.0,0.0,0.5612,0.5296,0.51,0.4983,0.4983,0.4983,0.4983,0.4983,0.4983,0.4983,0.0,0.0,0.0,0.0,0.0,0.0,0.0,0.0,0.0,0.0,0.0,1.0522,1.0522,1.038,0.0,0.0,0.0,0.0,0.0,0.0,0.0,0.0,0.0,1.2089,1.2089,1.2664,1.2963,1.2963,1.3542,1.3819,1.3819,1.3819,1.3819,1.3819,1.3819,1.371,0.0,0.0,0.0,1.3072,1.3072,0.0,0.0,0.0,0.0,0.0,1.1922,1.1852,0.0,1.1704,1.1721,1.1757,0.0,0.0,0.0,0.0,1.0945,1.0758,1.0505,1.0664,1.0818,1.0518,1.0117,0.9747,0.9484,0.9105,0.8758,0.846,0.8455,0.8381,0.8065,0.7892,0.7853,0.7968,0.7723,0.7584,0.7774,0.7453,0.7215,0.7207,0.6909,0.6778,0.0,0.0,0.0,0.0,0.0,0.715,0.7199,0.7277,0.7302,0.7302,0.7347,0.7374,0.7464,0.7505,0.7486,0.7486,0.7486,0.7486,0.7486,0.7486,0.7291,0.0,0.0,0.0,0.5612,0.5179,0.4983,0.4983,0.4983,0.4983,0.4983,0.4983,0.4983,0.4983,0.0,0.0,0.0,0.0,0.0,0.0,0.0,0.0,0.0,0.0,0.0,0.0,0.0,0.0,0.0,0.0,0.0,0.0,0.0,0.0,0.0,0.0,1.2011,1.2011,1.2011,1.2501,1.2745,1.2745,1.3259,1.3473,1.3455,1.3455,1.3437,1.3401,1.3401,1.3309,0.0,0.0,0.0,1.2838,1.2838,0.0,0.0,0.0,0.0,0.0,0.0,0.0,0.0,1.1364,1.1272,1.1104,1.1133,0.0,0.0,0.0,0.0,0.0,0.9948,1.007,1.0275,1.0032,0.9756,0.9476,0.9212,0.8758,0.8386,0.8389,0.8186,0.7993,0.7986,0.7774,0.7663,0.7881,0.7663,0.7521,0.7605,0.734,0.7099,0.7029,0.6841,0.0,0.6879,0.0,0.0,0.0,0.0,0.7068,0.7068,0.7178,0.7256,0.7256,0.7273,0.7314,0.735,0.7439,0.7493,0.7505,0.7505,0.7474,0.7486,0.7486,0.7291,0.0,0.0,0.0,0.5651,0.5179,0.4983,0.4983,0.4983,0.4983,0.4983,0.4983,0.4983,0.4983,0.0,0.0,0.0,0.0,0.0,0.0,0.0,0.0,0.0,0.0,0.0,0.0,0.0,0.0,0.0,0.0,0.0,0.0,0.0,0.0,0.0,1.1435,1.1591,1.1685,1.1685,1.2239,1.256,1.256,1.3202,1.3401,1.3255,1.3255,1.3163,1.2984,1.2984,1.298,1.2948,1.2948,0.0,1.2654,1.2654,0.0,0.0,0.0,0.0,0.0,0.0,0.0,0.0,1.0903,1.0801,1.0656,1.0496,0.0,0.0,0.0,0.0,0.0,0.9597,0.9572,0.9624,0.9779,0.9535,0.9187,0.8924,0.8627,0.8371,0.8334,0.8163,0.7966,0.7839,0.7698,0.7606,0.7568,0.7478,0.7393,0.7302,0.6988,0.674,0.6694,0.0,0.6762,0.6879,0.0,0.0,0.0,0.0,0.7011,0.7011,0.7023,0.7031,0.7031,0.7105,0.7154,0.7129,0.7256,0.738,0.7411,0.7411,0.7452,0.7486,0.7486,0.7291,0.0,0.0,0.6079,0.5651,0.5179,0.4983,0.4983,0.4983,0.4983,0.4983,0.4983,0.4983,0.4983,0.0,0.0,0.0,0.0,0.0,0.0,0.0,0.0,0.0,0.0,0.0,0.0,0.0,0.0,0.0,0.0,0.0,0.0,0.0,0.0,1.1294,1.12,1.1279,1.1412,1.1537,1.1995,1.2292,1.2446,1.2935,1.3127,1.3039,1.3039,1.2984,1.2893,1.2893,1.2838,1.2746,1.2746,1.2562,1.2254,0.0,0.0,0.0,0.0,0.0,0.0,0.0,0.0,0.0,0.0,1.0352,1.0206,1.0151,0.0,0.0,0.0,0.0,0.0,0.9256,0.9181,0.9182,0.9209,0.9099,0.8907,0.8651,0.845,0.8282,0.807,0.7948,0.782,0.7612,0.752,0.7476,0.7578,0.7492,0.7341,0.7211,0.6924,0.6658,0.0,0.0,0.6688,0.0,0.0,0.0,0.0,0.0,0.0,0.699,0.699,0.699,0.699,0.7031,0.7052,0.7052,0.7092,0.722,0.7359,0.7359,0.7366,0.7452,0.7452,0.7364,0.7213,0.0,0.6392,0.6001,0.557,0.5218,0.4983,0.4983,0.4983,0.4977,0.4948,0.4937,0.4931,0.0,0.0,0.0,0.0,0.0,0.0,0.0,0.0,0.0,0.0,0.0,0.0,0.0,0.0,0.0,0.0,0.0,0.0,0.0,1.0724,1.1075,1.1028,1.1028,1.1183,1.1491,1.1832,1.2123,1.2396,1.2753,1.2874,1.282,1.2783,1.2764,1.2764,1.2764,1.2654,1.2452,1.2452,1.2249,1.1909,0.0,0.0,0.0,0.0,0.0,0.0,0.0,0.0,0.0,0.0,0.0,0.0,0.0,0.0,0.0,0.9463,0.9453,0.9349,0.8984,0.8898,0.8863,0.8644,0.8633,0.8659,0.8503,0.8332,0.8135,0.7962,0.7806,0.7669,0.7516,0.7427,0.7422,0.7552,0.7428,0.7247,0.712,0.6813,0.6569,0.6502,0.6567,0.6627,0.0,0.0,0.0,0.0,0.0,0.0,0.699,0.699,0.699,0.699,0.699,0.699,0.699,0.699,0.7072,0.7269,0.7269,0.7314,0.7362,0.7378,0.7427,0.7454,0.7049,0.6708,0.6392,0.5926,0.5492,0.5139,0.5061,0.4972,0.4956,0.4899,0.4877,0.4869,0.0,0.0,0.0,0.0,0.0,0.0,0.0,0.0,0.0,0.0,0.0,0.0,0.0,0.0,0.0,0.0,0.0,0.0,0.0,1.0724,1.1012,1.0839,1.0823,1.1024,1.1491,1.1832,1.2123,1.2396,1.2753,1.2801,1.2618,1.2434,1.2342,1.2342,1.2342,1.2231,1.2046,1.2046,1.1917,1.1706,1.1426,0.0,0.0,0.0,0.0,0.0,0.0,0.0,0.0,0.0,0.0,0.0,0.0,0.0,0.9286,0.9101,0.9005,0.8923,0.8822,0.8758,0.8652,0.8319,0.8339,0.8471,0.8646,0.8255,0.7924,0.8194,0.7807,0.751,0.7714,0.7712,0.7587,0.7274,0.7117,0.6953,0.6778,0.0,0.6378,0.6477,0.6567,0.0,0.0,0.0,0.0,0.0,0.0,0.0,0.699,0.699,0.699,0.699,0.699,0.699,0.699,0.699,0.7039,0.7096,0.7096,0.7182,0.7314,0.7354,0.739,0.7403,0.7065,0.6865,0.6787,0.6004,0.5691,0.5612,0.5179,0.495,0.4896,0.4837,0.4815,0.4812,0.0,0.0,0.0,0.0,0.0,0.0,0.0,0.0,0.0,0.0,0.0,0.0,0.0,0.0,0.0,0.0,0.0,0.0,0.0,1.0448,1.076,1.0681,1.0555,1.064,1.0982,1.1411,1.1778,1.2095,1.2376,1.2489,1.2415,1.2212,1.212,1.212,1.1991,1.188,1.1811,1.1811,1.1611,1.1252,1.0976,1.059,0.0,0.0,0.0,0.0,0.0,0.0,0.0,0.0,0.9398,0.917,0.8903,0.8957,0.9041,0.8682,0.8721,0.8843,0.8614,0.8513,0.8401,0.8244,0.8276,0.8295,0.8172,0.802,0.7882,0.7756,0.77,0.7669,0.7723,0.7727,0.7605,0.7372,0.714,0.6926,0.6718,0.6454,0.6349,0.6477,0.6518,0.0,0.0,0.0,0.0,0.0,0.0,0.0,0.699,0.699,0.699,0.699,0.699,0.699,0.699,0.699,0.7007,0.7039,0.7039,0.7088,0.7178,0.7211,0.7256,0.7313,0.7197,0.7049,0.6825,0.6516,0.609,0.5584,0.508,0.4861,0.4834,0.4812,0.479,0.4785,0.0,0.0,0.0,0.0,0.0,0.0,0.0,0.0,0.0,0.0,0.0,0.0,0.0,0.0,0.0,0.0,0.0,0.0,0.9542,1.0096,1.0412,1.0412,1.0269,1.028,1.0474,1.097,1.1396,1.1704,1.1975,1.212,1.212,1.1972,1.1917,1.1885,1.1768,1.1663,1.1607,1.1607,1.1328,1.0874,1.0581,1.0142,0.0,0.0,0.0,0.0,0.0,0.0,0.0,0.0,0.9065,0.8941,0.8684,0.8694,0.8736,0.8398,0.8425,0.8558,0.8397,0.8274,0.8157,0.8132,0.8129,0.8071,0.7801,0.7844,0.7849,0.753,0.7589,0.7714,0.7695,0.7641,0.7543,0.7281,0.7043,0.681,0.659,0.6447,0.6382,0.6481,0.6489,0.0,0.0,0.0,0.0,0.0,0.0,0.0,0.0,0.6974,0.699,0.699,0.699,0.699,0.699,0.699,0.699,0.699,0.699,0.7023,0.7084,0.7076,0.7162,0.7219,0.7289,0.7183,0.6934,0.6815,0.6319,0.5663,0.5141,0.4965,0.4959,0.4824,0.4764,0.4756,0.0,0.0,0.0,0.0,0.0,0.0,0.0,0.0,0.0,0.0,0.0,0.0,0.0,0.0,0.0,0.0,0.0,0.0,0.9195,0.9698,0.9999,0.9999,0.9999,0.9999,0.9999,1.0594,1.1031,1.1293,1.1573,1.17,1.17,1.17,1.17,1.17,1.17,1.157,1.1403,1.1403,1.1126,1.0659,1.0266,0.9936,0.9644,0.0,0.0,0.0,0.0,0.0,0.0,0.0,0.8832,0.8922,0.8522,0.84,0.8378,0.8323,0.8112,0.796,0.8229,0.8106,0.7926,0.7988,0.7894,0.7763,0.7646,0.7695,0.7774,0.7636,0.7555,0.7527,0.7682,0.7523,0.7296,0.6959,0.6791,0.6571,0.6246,0.637,0.6489,0.6489,0.6489,0.0,0.0,0.0,0.0,0.0,0.0,0.0,0.0,0.6973,0.699,0.699,0.699,0.699,0.699,0.699,0.699,0.699,0.699,0.699,0.6994,0.7084,0.7088,0.7092,0.7219,0.7297,0.726,0.6804,0.6351,0.5971,0.5481,0.5305,0.5262,0.4867,0.4701,0.4701,0.0,0.0,0.0,0.0,0.0,0.0,0.0,0.0,0.0,0.0,0.0,0.0,0.0,0.0,0.0,0.0,0.0,0.0,0.9195,0.9698,0.9999,0.9999,0.9916,0.9868,0.9868,1.0257,1.0833,1.1586,1.1662,1.17,1.17,1.1564,1.1477,1.1477,1.1329,1.1236,1.118,1.1031,1.0706,1.0248,0.9985,0.9559,0.9055,0.0,0.0,0.0,0.0,0.0,0.0,0.0,0.0,0.0,0.8274,0.8195,0.8148,0.7947,0.7882,0.7917,0.7999,0.7966,0.7926,0.7988,0.7973,0.7883,0.7638,0.7562,0.7528,0.7521,0.7599,0.7682,0.7832,0.7606,0.7296,0.6959,0.6791,0.6571,0.6246,0.637,0.6489,0.6489,0.0,0.0,0.0,0.0,0.0,0.0,0.0,0.0,0.0,0.6883,0.6928,0.6928,0.6994,0.699,0.699,0.699,0.699,0.699,0.699,0.699,0.699,0.7019,0.7031,0.7031,0.706,0.7109,0.7129,0.6716,0.6455,0.6299,0.5853,0.5494,0.5201,0.511,0.492,0.4701,0.0,0.0,0.0,0.0,0.0,0.0,0.0,0.0,0.0,0.0,0.8395,0.8395,0.0,0.0,0.0,0.0,0.0,0.0,0.0,0.9497,0.9792,0.9792,0.9664,0.9617,0.9644,0.9946,1.0432,1.1108,1.1335,1.1459,1.1459,1.1329,1.1273,1.1273,1.1068,1.0987,1.0956,1.0781,1.0415,0.9962,0.977,0.9327,0.8781,0.0,0.0,0.0,0.0,0.0,0.0,0.0,0.0,0.0,0.8063,0.7968,0.7936,0.7767,0.7681,0.7697,0.7846,0.7848,0.7783,0.784,0.7833,0.7781,0.7511,0.7389,0.7393,0.7493,0.7616,0.7736,0.7881,0.7505,0.7143,0.6929,0.6634,0.6368,0.621,0.6341,0.6448,0.6485,0.0,0.0,0.0,0.0,0.0,0.0,0.0,0.0,0.0,0.6754,0.6838,0.6838,0.6924,0.6969,0.6969,0.697,0.699,0.699,0.699,0.699,0.699,0.699,0.699,0.699,0.699,0.7023,0.7035,0.6811,0.6701,0.666,0.621,0.5901,0.565,0.5501,0.5211,0.4883,0.0,0.0,0.0,0.0,0.0,0.0,0.0,0.0,0.0,0.0,0.8315,0.8315,0.0,0.0,0.0,0.0,0.0,0.0,0.0,0.9165,0.9452,0.9452,0.9344,0.9316,0.9393,0.9645,0.9897,1.0207,1.0763,1.1061,1.1061,1.1061,1.1061,1.1031,1.0844,1.0781,1.0762,1.0556,1.0226,0.9787,0.956,0.9185,0.8733,0.8344,0.0,0.0,0.0,0.0,0.0,0.0,0.0,0.0,0.7919,0.7784,0.7736,0.7675,0.7488,0.7358,0.7749,0.7715,0.7577,0.76,0.7577,0.7505,0.7265,0.7258,0.7354,0.7468,0.7622,0.7747,0.785,0.7327,0.6898,0.6867,0.6367,0.6048,0.6157,0.6255,0.6345,0.6464,0.0,0.0,0.0,0.0,0.0,0.0,0.0,0.0,0.0,0.6664,0.6678,0.6678,0.6834,0.6879,0.6879,0.6969,0.6978,0.6978,0.6986,0.699,0.699,0.699,0.699,0.699,0.699,0.699,0.699,0.699,0.699,0.6954,0.6595,0.645,0.6341,0.5974,0.561,0.525,0.0,0.0,0.0,0.0,0.0,0.0,0.0,0.0,0.0,0.0,0.0,0.0,0.0,0.0,0.0,0.0,0.0,0.0,0.0,0.893,0.9103,0.9103,0.9087,0.9169,0.9393,0.9462,0.9714,1.0207,1.0486,1.0631,1.0631,1.0631,1.0631,1.0631,1.0594,1.0556,1.0556,1.0349,1.0125,0.9846,0.9433,0.901,0.8608,0.8309,0.8026,0.0,0.0,0.0,0.0,0.0,0.0,0.0,0.7823,0.7592,0.7328,0.7369,0.7233,0.714,0.7549,0.748,0.7333,0.7551,0.7443,0.726,0.721,0.7323,0.7457,0.7484,0.7687,0.7784,0.7566,0.7174,0.6806,0.6556,0.6212,0.5996,0.6044,0.6186,0.6325,0.6345,0.0,0.0,0.0,0.0,0.0,0.0,0.0,0.0,0.6518,0.657,0.6619,0.6619,0.6709,0.6754,0.6754,0.6875,0.692,0.0,0.699,0.699,0.699,0.699,0.699,0.699,0.699,0.699,0.699,0.699,0.699,0.699,0.6918,0.6664,0.6377,0.6304,0.601,0.5683,0.0,0.0,0.0,0.0,0.0,0.0,0.0,0.0,0.0,0.0,0.0,0.0,0.0,0.0,0.0,0.0,0.0,0.0,0.0,0.0,0.8974,0.891,0.891,0.8917,0.897,0.9097,0.9304,0.9589,0.991,1.0219,1.05,1.05,1.05,1.05,1.0406,1.0368,1.0349,1.0143,0.9936,0.9725,0.9389,0.9045,0.8703,0.8385,0.8131,0.7972,0.7921,0.0,0.0,0.0,0.0,0.0,0.0,0.0,0.7192,0.7165,0.7088,0.7084,0.7414,0.7349,0.724,0.7383,0.7203,0.7047,0.7183,0.7301,0.7419,0.7479,0.7703,0.7811,0.7449,0.7112,0.6775,0.6464,0.6143,0.5971,0.5984,0.6101,0.619,0.6272,0.0,0.0,0.0,0.0,0.0,0.0,0.0,0.6489,0.6489,0.6534,0.6559,0.6559,0.6615,0.666,0.666,0.6749,0.6794,0.6794,0.692,0.6986,0.699,0.699,0.699,0.699,0.699,0.699,0.699,0.699,0.699,0.699,0.699,0.6881,0.67,0.67,0.6446,0.6083,0.0,0.0,0.0,0.0,0.0,0.0,0.0,0.0,0.0,0.0,0.0,0.0,0.0,0.0,0.0,0.0,0.0,0.0,0.0,0.0,0.0,0.8668,0.8684,0.8619,0.8452,0.87,0.8852,0.8895,0.932,0.982,1.0338,1.0383,1.0406,1.0387,1.0218,1.0143,1.0143,0.9935,0.9753,0.9582,0.9338,0.9093,0.8829,0.8435,0.8284,0.8248,0.8097,0.8042,0.8015,0.7821,0.0,0.0,0.0,0.0,0.7126,0.7035,0.6985,0.7007,0.7274,0.7217,0.7111,0.7093,0.6943,0.6861,0.71,0.7236,0.7338,0.7435,0.7676,0.7759,0.7383,0.7082,0.6775,0.6372,0.607,0.5914,0.5987,0.598,0.6077,0.6223,0.0,0.0,0.0,0.0,0.0,0.0,0.0,0.6489,0.6489,0.6489,0.6489,0.6489,0.6563,0.6566,0.6566,0.6656,0.667,0.667,0.679,0.6916,0.6966,0.6966,0.6974,0.699,0.699,0.699,0.699,0.699,0.699,0.699,0.699,0.699,0.699,0.699,0.6773,0.6522,0.0,0.0,0.0,0.0,0.0,0.0,0.0,0.0,0.0,0.0,0.7411,0.7512,0.0,0.0,0.0,0.0,0.0,0.0,0.8071,0.0,0.0,0.8117,0.822,0.8269,0.8236,0.8441,0.8657,0.8895,0.9148,0.9414,0.9717,0.9905,0.9973,0.9973,0.9954,0.9935,0.9916,0.9738,0.9623,0.9562,0.9188,0.8913,0.8699,0.8405,0.8231,0.8097,0.7912,0.7843,0.7803,0.7609,0.7541,0.0,0.0,0.0,0.6951,0.6995,0.6881,0.6776,0.7004,0.692,0.6746,0.6706,0.6751,0.6839,0.7002,0.7176,0.7311,0.7327,0.7551,0.7577,0.7067,0.6929,0.6683,0.607,0.5916,0.589,0.5902,0.5971,0.6001,0.6025,0.0,0.0,0.0,0.0,0.0,0.0,0.6489,0.6489,0.6489,0.6489,0.6489,0.6489,0.6497,0.6505,0.6505,0.6596,0.6607,0.6611,0.67,0.679,0.6908,0.6908,0.6953,0.699,0.699,0.699,0.699,0.699,0.699,0.699,0.699,0.699,0.699,0.699,0.6954,0.6918,0.0,0.0,0.0,0.0,0.0,0.0,0.0,0.0,0.0,0.0,0.0,0.7384,0.0,0.0,0.0,0.7731,0.779,0.787,0.7993,0.8003,0.8003,0.8003,0.8068,0.809,0.809,0.8182,0.8283,0.8393,0.8606,0.8835,0.9092,0.9304,0.9508,0.9738,0.9738,0.9682,0.9568,0.9473,0.9435,0.9406,0.9117,0.8946,0.8852,0.8615,0.8411,0.8263,0.8171,0.7993,0.779,0.7696,0.7518,0.7296,0.7103,0.0,0.0,0.0,0.6764,0.6733,0.6852,0.672,0.655,0.6591,0.6714,0.6834,0.6959,0.7116,0.7252,0.7294,0.7392,0.7351,0.6869,0.686,0.6683,0.6009,0.5886,0.5886,0.5886,0.5922,0.5963,0.5984,0.0,0.0,0.0,0.0,0.0,0.0,0.6378,0.6431,0.6485,0.6489,0.6489,0.6489,0.6489,0.6489,0.6489,0.6526,0.6575,0.659,0.6631,0.6696,0.6782,0.6867,0.694,0.699,0.699,0.699,0.699,0.699,0.699,0.699,0.699,0.699,0.699,0.699,0.699,0.699,0.0,0.0,0.0,0.0,0.0,0.0,0.0,0.0,0.0,0.0,0.0,0.0,0.0,0.0,0.0,0.0,0.7783,0.7873,0.7873,0.7873,0.7873,0.7873,0.7906,0.7922,0.7922,0.7971,0.8003,0.8003,0.8199,0.8449,0.87,0.8913,0.9155,0.9454,0.9511,0.9435,0.9303,0.9246,0.9227,0.9208,0.8999,0.8884,0.8827,0.8684,0.8494,0.8312,0.8274,0.8044,0.7784,0.7688,0.7458,0.7161,0.6903,0.671,0.0,0.0,0.0,0.664,0.6673,0.6508,0.6369,0.6478,0.6643,0.679,0.691,0.7057,0.7171,0.7263,0.7284,0.7193,0.6808,0.68,0.6647,0.5975,0.5904,0.5886,0.5886,0.5886,0.591,0.5979,0.0,0.0,0.0,0.0,0.0,0.0,0.6284,0.6313,0.6415,0.6419,0.6427,0.6452,0.6452,0.6464,0.6489,0.6489,0.6522,0.6592,0.6592,0.6602,0.6692,0.6793,0.6871,0.6925,0.697,0.699,0.699,0.699,0.699,0.699,0.699,0.699,0.699,0.699,0.699,0.699,0.0,0.0,0.0,0.0,0.0,0.0,0.0,0.0,0.0,0.0,0.0,0.0,0.7926,0.7804,0.77,0.77,0.7587,0.7521,0.7521,0.7521,0.7521,0.7521,0.7645,0.0,0.771,0.7906,0.8003,0.8003,0.8199,0.8449,0.87,0.8913,0.9006,0.9046,0.9227,0.9303,0.9284,0.9103,0.9027,0.9008,0.8799,0.8608,0.8418,0.8418,0.8293,0.8083,0.79,0.7823,0.7746,0.7353,0.7219,0.7123,0.6737,0.6602,0.6601,0.0,0.0,0.0,0.6338,0.6235,0.614,0.6276,0.6458,0.6634,0.6785,0.6904,0.7051,0.7166,0.7252,0.7197,0.687,0.6759,0.651,0.591,0.5859,0.5886,0.5886,0.5886,0.589,0.5894,0.0,0.0,0.0,0.0,0.0,0.0,0.6218,0.6222,0.6226,0.6226,0.6235,0.6321,0.6325,0.6366,0.6485,0.6489,0.6489,0.6493,0.6493,0.6542,0.6598,0.6602,0.6656,0.6714,0.6917,0.699,0.699,0.699,0.699,0.699,0.699,0.699,0.699,0.699,0.699,0.699,0.0,0.0,0.0,0.0,0.0,0.0,0.0,0.0,0.0,0.0,0.0,0.0,0.0,0.722,0.7188,0.7188,0.7138,0.7122,0.7122,0.7122,0.7122,0.7122,0.7286,0.7384,0.7384,0.758,0.7684,0.7684,0.7746,0.7959,0.8319,0.8387,0.8556,0.8827,0.9018,0.9037,0.8913,0.8837,0.8723,0.8618,0.8532,0.8379,0.8217,0.8217,0.8083,0.79,0.7823,0.7631,0.74,0.7238,0.7026,0.6795,0.6641,0.6569,0.655,0.661,0.6526,0.6392,0.631,0.6144,0.6018,0.6243,0.6388,0.6509,0.6634,0.6779,0.6904,0.7051,0.7078,0.7022,0.6789,0.6671,0.6493,0.6051,0.5839,0.5731,0.5823,0.5831,0.5851,0.5908,0.0,0.0,0.0,0.0,0.0,0.0,0.0,0.6125,0.621,0.6214,0.6194,0.6227,0.6231,0.6272,0.6366,0.6366,0.6427,0.6489,0.6489,0.6505,0.6538,0.6596,0.6607,0.6647,0.6766,0.6851,0.6945,0.6966,0.699,0.699,0.699,0.699,0.699,0.699,0.699,0.699,0.0,0.0,0.0,0.0,0.0,0.0,0.0,0.0,0.0,0.6901,0.0,0.0,0.0,0.0,0.6901,0.6901,0.6901,0.6901,0.6901,0.6901,0.6901,0.6901,0.7024,0.7106,0.7106,0.7237,0.7302,0.7302,0.7302,0.7505,0.7903,0.7903,0.8107,0.8494,0.8637,0.8656,0.8589,0.8532,0.8418,0.8312,0.8312,0.8214,0.8102,0.8102,0.8008,0.7863,0.7785,0.7588,0.7352,0.7194,0.6957,0.672,0.6661,0.6585,0.6517,0.6482,0.6396,0.6275,0.6144,0.5991,0.5953,0.6178,0.6295,0.6396,0.6558,0.6655,0.6774,0.6899,0.6921,0.6905,0.6803,0.6669,0.6446,0.6116,0.5889,0.5756,0.5725,0.5733,0.5757,0.5788,0.5796,0.0,0.0,0.0,0.0,0.0,0.0,0.0,0.6088,0.6092,0.6104,0.6137,0.6166,0.621,0.6272,0.6272,0.6317,0.644,0.644,0.6456,0.6489,0.655,0.6579,0.6583,0.6643,0.6745,0.6891,0.6953,0.6962,0.699,0.699,0.699,0.699,0.699,0.699,0.699,0.0,0.0,0.0,0.0,0.0,0.0,0.0,0.0,0.6894,0.6894,0.0,0.0,0.0,0.0,0.0,0.6902,0.6902,0.6894,0.6894,0.6894,0.6885,0.6876,0.6893,0.6901,0.6901,0.6901,0.6901,0.6901,0.6901,0.711,0.7504,0.7504,0.7714,0.8102,0.8102,0.8197,0.8369,0.8178,0.8102,0.8091,0.8091,0.8089,0.8103,0.8103,0.8043,0.7975,0.7769,0.7694,0.7604,0.715,0.7005,0.6964,0.6764,0.6656,0.6555,0.6288,0.614,0.6041,0.0,0.0,0.0,0.6074,0.6194,0.6347,0.6556,0.6585,0.6623,0.6774,0.6796,0.6834,0.6959,0.6731,0.6394,0.6067,0.6074,0.599,0.5668,0.561,0.561,0.5614,0.5614,0.0,0.0,0.0,0.0,0.0,0.5878,0.5878,0.5882,0.5886,0.5926,0.5984,0.6129,0.6206,0.621,0.621,0.6223,0.6313,0.6313,0.6362,0.6485,0.6485,0.6485,0.6493,0.6579,0.6719,0.6883,0.6887,0.694,0.6986,0.699,0.699,0.699,0.699,0.699,0.699,0.0,0.0,0.0,0.0,0.0,0.6466,0.6466,0.6596,0.6684,0.0,0.0,0.0,0.698,0.698,0.698,0.698,0.698,0.6905,0.6763,0.6755,0.6697,0.6539,0.6679,0.6761,0.6761,0.6843,0.6901,0.6901,0.6901,0.711,0.7504,0.7504,0.7714,0.8102,0.7957,0.7919,0.7968,0.8063,0.8103,0.8096,0.8096,0.806,0.8024,0.8024,0.7934,0.7769,0.7707,0.748,0.7171,0.7047,0.6902,0.6757,0.6655,0.6608,0.6531,0.6224,0.6123,0.6041,0.5774,0.0,0.0,0.0,0.0,0.0,0.6353,0.6426,0.6498,0.6618,0.6645,0.6709,0.6828,0.677,0.6632,0.6322,0.6269,0.6162,0.5914,0.5894,0.5805,0.5635,0.5614,0.0,0.0,0.0,0.0,0.0,0.5691,0.5719,0.5814,0.588,0.5898,0.5922,0.5978,0.6023,0.6056,0.6056,0.6101,0.6219,0.6219,0.6268,0.6353,0.6353,0.6423,0.6489,0.6514,0.6592,0.6706,0.6838,0.6903,0.6932,0.6962,0.699,0.699,0.699,0.699,0.699,0.0,0.0,0.0,0.6301,0.6301,0.6301,0.6301,0.6398,0.647,0.0,0.0,0.0,0.672,0.672,0.672,0.672,0.672,0.6655,0.6544,0.6614,0.6601,0.6498,0.6613,0.6689,0.6697,0.6688,0.6696,0.6696,0.678,0.6967,0.7291,0.7358,0.7553,0.7853,0.7718,0.7631,0.7554,0.7725,0.7875,0.7983,0.7938,0.7955,0.7942,0.7871,0.7814,0.7777,0.765,0.7438,0.7204,0.7069,0.6906,0.0,0.6705,0.6558,0.6359,0.6151,0.6019,0.5908,0.5735,0.5691,0.574,0.5877,0.0,0.0,0.6189,0.6285,0.6388,0.6458,0.6507,0.6553,0.6703,0.6725,0.6689,0.6585,0.6544,0.6399,0.6088,0.5934,0.5797,0.5692,0.559,0.0,0.0,0.5557,0.5573,0.561,0.5614,0.5638,0.572,0.5744,0.5788,0.5859,0.5859,0.5904,0.5963,0.5967,0.6012,0.6129,0.6129,0.6174,0.6259,0.63,0.6345,0.6431,0.6468,0.6518,0.6579,0.6719,0.6821,0.6895,0.6949,0.6994,0.699,0.699,0.699,0.699,0.0,0.0,0.6306,0.6306,0.6306,0.6306,0.6306,0.6317,0.6335,0.0,0.6353,0.6371,0.6371,0.6371,0.6371,0.6371,0.6371,0.6363,0.6331,0.65,0.6582,0.6559,0.6623,0.6657,0.6656,0.6478,0.639,0.639,0.6575,0.6762,0.6949,0.7074,0.7242,0.7422,0.7422,0.7342,0.72,0.7339,0.7544,0.7769,0.7717,0.7785,0.7875,0.7697,0.7737,0.7834,0.762,0.7509,0.7436,0.7172,0.6944,0.0,0.0,0.6441,0.6086,0.6063,0.5886,0.5691,0.5691,0.5691,0.5735,0.586,0.5893,0.0,0.604,0.6183,0.6271,0.6271,0.6328,0.6412,0.6531,0.6553,0.6622,0.6741,0.6763,0.6621,0.6187,0.5877,0.5718,0.5752,0.5543,0.0,0.5455,0.5463,0.5471,0.5565,0.5589,0.5601,0.5601,0.561,0.565,0.5761,0.5765,0.581,0.59,0.5904,0.5918,0.5976,0.5976,0.6052,0.617,0.6251,0.6264,0.6321,0.6436,0.6477,0.6493,0.6575,0.6706,0.6862,0.6883,0.694,0.6974,0.6986,0.699,0.699,0.0,0.6197,0.6306,0.6306,0.6306,0.6306,0.6306,0.6433,0.6547,0.6547,0.6673,0.6787,0.6787,0.6787,0.6787,0.6787,0.6787,0.6716,0.6552,0.6581,0.6533,0.6362,0.6378,0.6381,0.6381,0.6351,0.6311,0.6311,0.6366,0.6489,0.6674,0.6704,0.6829,0.7019,0.7019,0.7056,0.714,0.7313,0.7498,0.764,0.7628,0.7741,0.7899,0.7848,0.7797,0.7726,0.7681,0.7552,0.7357,0.699,0.684,0.6729,0.0,0.0,0.0,0.5841,0.0,0.5691,0.5691,0.5691,0.0,0.0,0.0,0.0,0.5931,0.6034,0.6145,0.6145,0.6138,0.6192,0.6342,0.6363,0.6377,0.646,0.6482,0.6456,0.6362,0.6281,0.6078,0.5616,0.5513,0.0,0.5186,0.5186,0.5195,0.5261,0.5427,0.5533,0.5533,0.5573,0.5622,0.5642,0.5642,0.5683,0.5806,0.5806,0.5855,0.5914,0.5914,0.5959,0.6048,0.6064,0.615,0.6284,0.6337,0.6386,0.6489,0.6505,0.6579,0.669,0.6834,0.6899,0.6924,0.6962,0.699,0.699,0.5784,0.588,0.5951,0.5951,0.6002,0.6047,0.6047,0.6271,0.6458,0.6458,0.6658,0.6791,0.6791,0.6791,0.6783,0.6697,0.669,0.6633,0.6457,0.6544,0.6557,0.6459,0.6452,0.6445,0.6445,0.6345,0.6301,0.6301,0.6408,0.6507,0.6608,0.6708,0.6809,0.6903,0.6966,0.6977,0.6973,0.7192,0.7282,0.7268,0.7462,0.765,0.7796,0.7684,0.7648,0.7644,0.7644,0.7505,0.726,0.6913,0.6684,0.0,0.6268,0.607,0.5863,0.0,0.5691,0.5691,0.0,0.0,0.0,0.5691,0.0,0.0,0.0,0.5909,0.5996,0.5996,0.6045,0.6129,0.6189,0.62,0.6222,0.6252,0.6263,0.6257,0.6257,0.6272,0.6218,0.5982,0.5695,0.0,0.5324,0.5188,0.5128,0.5146,0.5232,0.5328,0.5346,0.539,0.5455,0.5545,0.5545,0.5589,0.5712,0.5712,0.5757,0.5847,0.5847,0.5896,0.5955,0.5968,0.6069,0.6158,0.6247,0.6341,0.639,0.6468,0.6514,0.6571,0.6706,0.6809,0.6895,0.694,0.6986,0.699,0.5624,0.5656,0.5674,0.5674,0.5759,0.5846,0.5846,0.6067,0.6245,0.6245,0.6432,0.6557,0.6557,0.6598,0.6572,0.6465,0.6519,0.6484,0.6388,0.651,0.6587,0.6587,0.6552,0.6547,0.6547,0.6379,0.6306,0.6306,0.6455,0.6547,0.6547,0.671,0.6802,0.682,0.6932,0.6934,0.6831,0.7007,0.7024,0.694,0.7209,0.7467,0.7617,0.7423,0.7439,0.7543,0.7503,0.7354,0.7111,0.6827,0.6537,0.6311,0.6265,0.6036,0.0,0.0,0.0,0.0,0.0,0.0,0.0,0.0,0.0,0.5691,0.0,0.0,0.0,0.5871,0.5947,0.6024,0.6045,0.6051,0.0,0.6107,0.0,0.0,0.0,0.6142,0.0,0.6272,0.5841,0.0,0.5395,0.5165,0.5063,0.5079,0.51,0.5114,0.5187,0.518,0.5281,0.5423,0.5475,0.5524,0.5589,0.5589,0.5634,0.5753,0.5804,0.5818,0.5896,0.5955,0.5972,0.6001,0.617,0.6251,0.6321,0.6431,0.6473,0.6497,0.6587,0.6711,0.6842,0.6875,0.6936,0.6966,0.5729,0.5862,0.5947,0.5947,0.5959,0.5965,0.5965,0.6004,0.6037,0.6037,0.6052,0.6073,0.6073,0.6245,0.6349,0.633,0.653,0.6668,0.6654,0.6566,0.6504,0.6504,0.6386,0.633,0.633,0.6316,0.6303,0.6303,0.6323,0.633,0.633,0.6363,0.6427,0.655,0.6564,0.6682,0.6878,0.6734,0.679,0.6963,0.6794,0.6989,0.7433,0.7283,0.7303,0.7384,0.7142,0.7045,0.6955,0.0,0.6426,0.6367,0.0,0.608,0.6024,0.5915,0.0,0.0,0.0,0.0,0.0,0.0,0.5691,0.0,0.0,0.0,0.5729,0.5729,0.0,0.5784,0.5904,0.0,0.0,0.0,0.0,0.0,0.6107,0.6098,0.6035,0.5811,0.572,0.0,0.0,0.4897,0.4874,0.5007,0.5063,0.5112,0.5124,0.5175,0.52,0.5248,0.5353,0.5439,0.552,0.5524,0.554,0.563,0.5741,0.5816,0.5798,0.5892,0.5947,0.5992,0.6013,0.6142,0.6284,0.6329,0.6382,0.6497,0.6587,0.6602,0.6674,0.683,0.6895,0.6916,0.5502,0.5623,0.5663,0.5663,0.5678,0.5708,0.5708,0.5921,0.6091,0.622,0.6242,0.6242,0.6242,0.6307,0.6325,0.6251,0.6344,0.6376,0.0,0.625,0.6212,0.6212,0.6161,0.609,0.6007,0.6007,0.5969,0.5893,0.5893,0.5931,0.6007,0.6007,0.6078,0.6218,0.628,0.6382,0.6509,0.658,0.6667,0.6769,0.6813,0.6969,0.7165,0.7103,0.7161,0.7254,0.6989,0.689,0.6829,0.0,0.6362,0.0,0.0,0.0,0.0,0.6024,0.0,0.0,0.0,0.0,0.0,0.0,0.0,0.0,0.5691,0.0,0.5691,0.0,0.0,0.0,0.0,0.0,0.0,0.0,0.5859,0.0,0.0,0.0,0.581,0.0,0.0,0.0,0.0,0.0,0.0,0.0,0.4855,0.492,0.5022,0.5063,0.5112,0.5138,0.5228,0.5293,0.5325,0.5406,0.548,0.5536,0.5602,0.568,0.5812,0.5823,0.5888,0.5947,0.5968,0.6033,0.6138,0.6243,0.6341,0.6382,0.6509,0.6575,0.6607,0.6733,0.6846,0.6903,0.525,0.5363,0.5405,0.5405,0.5475,0.5567,0.5599,0.588,0.6139,0.6297,0.6319,0.6319,0.6319,0.6358,0.6367,0.6256,0.628,0.6263,0.0,0.6087,0.605,0.605,0.6014,0.5947,0.5864,0.5864,0.5802,0.5705,0.5705,0.5753,0.5864,0.5864,0.5917,0.605,0.6154,0.6239,0.6317,0.6466,0.6541,0.6625,0.675,0.6827,0.6856,0.6905,0.6958,0.6961,0.6767,0.6692,0.6667,0.6462,0.6358,0.0,0.6342,0.0,0.6176,0.0,0.0,0.0,0.5986,0.0,0.0,0.0,0.0,0.0,0.0,0.0,0.0,0.0,0.0,0.0,0.0,0.0,0.0,0.0,0.0,0.5648,0.0,0.5534,0.0,0.0,0.0,0.0,0.0,0.0,0.0,0.0,0.0,0.4736,0.4917,0.4946,0.4977,0.5067,0.5134,0.5191,0.5188,0.5312,0.5386,0.5471,0.5496,0.5578,0.5708,0.5787,0.5818,0.5884,0.5947,0.5968,0.6001,0.6186,0.6292,0.6325,0.6452,0.653,0.66,0.6656,0.6745,0.6867,0.5091,0.5278,0.5408,0.5408,0.5569,0.574,0.5877,0.602,0.6096,0.612,0.612,0.612,0.612,0.6285,0.6397,0.6391,0.6513,0.6578,0.6572,0.0,0.619,0.619,0.0,0.599,0.5984,0.5984,0.5984,0.5978,0.5978,0.5984,0.5984,0.5984,0.6056,0.619,0.6196,0.6336,0.6578,0.6385,0.6415,0.6591,0.6384,0.6358,0.6456,0.0,0.6637,0.6437,0.6412,0.0,0.0,0.6412,0.6406,0.0,0.0,0.0,0.0,0.0,0.0,0.0,0.0,0.0,0.0,0.5926,0.0,0.0,0.0,0.0,0.5691,0.0,0.0,0.0,0.0,0.0,0.0,0.0,0.0,0.0,0.0,0.0,0.0,0.0,0.0,0.0,0.0,0.0,0.0,0.0,0.0,0.0,0.4712,0.4769,0.4854,0.4999,0.5063,0.513,0.5188,0.5192,0.5268,0.5414,0.5467,0.5512,0.552,0.57,0.5812,0.582,0.588,0.5943,0.5996,0.6149,0.6235,0.6325,0.6452,0.6489,0.6501,0.6596,0.6651,0.6741,0.4755,0.4943,0.5125,0.5292,0.5385,0.5516,0.5738,0.5803,0.59,0.6089,0.6107,0.6107,0.6107,0.6154,0.6201,0.6201,0.6233,0.6257,0.6257,0.6178,0.0,0.6133,0.6014,0.5885,0.0,0.5722,0.5638,0.56,0.56,0.5619,0.5661,0.5661,0.575,0.5874,0.5975,0.6054,0.6144,0.6243,0.6336,0.6401,0.6462,0.6524,0.6531,0.0,0.0,0.6542,0.6623,0.665,0.0,0.6558,0.6531,0.652,0.6439,0.6412,0.6406,0.6363,0.6352,0.0,0.0,0.0,0.62,0.6056,0.0,0.0,0.0,0.0,0.0,0.0,0.0,0.0,0.0,0.0,0.0,0.0,0.0,0.0,0.0,0.0,0.0,0.0,0.0,0.0,0.0,0.0,0.0,0.0,0.0,0.0,0.0,0.4704,0.4765,0.4798,0.4941,0.5035,0.5063,0.5155,0.5232,0.5264,0.5382,0.5451,0.5512,0.5605,0.5725,0.5816,0.5876,0.5906,0.5939,0.6028,0.6149,0.6235,0.6329,0.6431,0.6497,0.6592,0.6611,0.6656,0.4638,0.4738,0.4892,0.5119,0.5265,0.5432,0.5604,0.5658,0.5731,0.5895,0.5919,0.5935,0.5976,0.6042,0.6085,0.6128,0.6149,0.6172,0.6172,0.6134,0.0,0.6107,0.6007,0.5931,0.0,0.0,0.5659,0.5583,0.5583,0.5578,0.5572,0.5615,0.5697,0.5778,0.5915,0.5991,0.6045,0.6125,0.6168,0.6197,0.6286,0.6334,0.0,0.0,0.6464,0.6516,0.0,0.6484,0.6474,0.637,0.6344,0.6355,0.6337,0.6325,0.6345,0.6373,0.6412,0.6396,0.635,0.6328,0.0,0.6205,0.6112,0.0,0.592,0.0,0.0,0.0,0.0,0.0,0.0,0.0,0.0,0.0,0.0,0.0,0.0,0.5175,0.0,0.0,0.0,0.0,0.0,0.0,0.0,0.0,0.0,0.0,0.0,0.0,0.4618,0.4708,0.4818,0.4933,0.4995,0.512,0.5183,0.5192,0.5337,0.541,0.5467,0.5524,0.5614,0.5737,0.5831,0.5888,0.5894,0.5983,0.6073,0.6222,0.628,0.6374,0.6493,0.6555,0.6596,0.6615,0.4687,0.4704,0.4748,0.4892,0.5219,0.5479,0.5488,0.5564,0.5601,0.5601,0.5626,0.5664,0.5794,0.592,0.6053,0.6184,0.6251,0.6271,0.6271,0.6157,0.0,0.0,0.6076,0.6071,0.6071,0.0,0.0,0.5864,0.5864,0.581,0.5685,0.5815,0.5864,0.5869,0.6016,0.6136,0.6244,0.6001,0.592,0.5987,0.5872,0.5844,0.5921,0.6025,0.6195,0.6319,0.6023,0.5917,0.5917,0.5912,0.5907,0.5946,0.6126,0.6195,0.62,0.6329,0.6373,0.6367,0.6387,0.6387,0.636,0.6325,0.0,0.0,0.0,0.0,0.5871,0.0,0.0,0.0,0.0,0.0,0.0,0.0,0.0,0.0,0.0,0.0,0.4998,0.0,0.0,0.5143,0.0,0.0,0.0,0.0,0.0,0.0,0.0,0.0,0.4493,0.4696,0.4708,0.479,0.4991,0.5055,0.5118,0.5184,0.5333,0.5405,0.5414,0.5467,0.5528,0.5618,0.5741,0.5831,0.5894,0.5979,0.6064,0.6182,0.6276,0.637,0.6489,0.6489,0.6546,0.6615,0.466,0.4872,0.4998,0.5051,0.5086,0.521,0.5464,0.5522,0.5587,0.5796,0.5818,0.5832,0.5886,0.5915,0.5936,0.5965,0.5995,0.0,0.0,0.0,0.0,0.5876,0.5728,0.5664,0.5664,0.5561,0.5478,0.5453,0.5453,0.5439,0.5414,0.5439,0.5453,0.5458,0.559,0.5679,0.5713,0.5689,0.5736,0.5851,0.5987,0.6024,0.603,0.0,0.5909,0.5969,0.6138,0.6193,0.6179,0.6071,0.6047,0.6028,0.6004,0.597,0.5972,0.5964,0.596,0.5966,0.6087,0.6117,0.6157,0.633,0.6328,0.6276,0.0,0.0,0.0,0.0,0.0,0.0,0.0,0.0,0.0,0.0,0.0,0.0,0.0,0.0,0.0,0.4998,0.0,0.0,0.0,0.0,0.0,0.0,0.0,0.0,0.0,0.0,0.0,0.463,0.4671,0.4761,0.4842,0.4961,0.5051,0.5118,0.5207,0.5316,0.5414,0.5467,0.5528,0.5618,0.5741,0.5831,0.589,0.591,0.5975,0.6064,0.6182,0.6345,0.6489,0.6489,0.6546,0.6607,0.4445,0.4604,0.4775,0.4947,0.4938,0.5012,0.5294,0.5324,0.5377,0.5532,0.5558,0.5576,0.5589,0.5665,0.5736,0.5777,0.5846,0.0,0.5902,0.0,0.0,0.5839,0.573,0.567,0.5622,0.5565,0.0,0.5398,0.5398,0.5351,0.5308,0.5351,0.5398,0.5403,0.5508,0.5579,0.5632,0.5579,0.5551,0.555,0.5661,0.5732,0.0,0.5667,0.5629,0.5656,0.5828,0.5912,0.5903,0.5817,0.5799,0.5781,0.5786,0.5781,0.579,0.5815,0.5839,0.5841,0.5889,0.5911,0.5951,0.6177,0.6195,0.6186,0.6279,0.6183,0.6034,0.0,0.0,0.0,0.0,0.0,0.0,0.0,0.0,0.0,0.0,0.0,0.0,0.0,0.4998,0.0,0.0,0.0,0.0,0.0,0.0,0.0,0.0,0.0,0.0,0.4508,0.4602,0.4692,0.4752,0.4908,0.5044,0.5108,0.5175,0.5264,0.5414,0.5431,0.552,0.5618,0.567,0.5794,0.5886,0.5886,0.5939,0.6005,0.619,0.6362,0.6489,0.6489,0.6522,0.6579,0.4169,0.4223,0.4354,0.4731,0.4797,0.4857,0.5028,0.5103,0.0,0.5157,0.0,0.5167,0.5233,0.5416,0.5534,0.5585,0.575,0.5857,0.5857,0.5829,0.5815,0.5815,0.5801,0.5781,0.5714,0.5714,0.5625,0.0,0.5452,0.5381,0.5268,0.5386,0.5452,0.5457,0.5511,0.56,0.5693,0.5541,0.5361,0.5192,0.5228,0.5308,0.5409,0.5409,0.5409,0.5409,0.5409,0.5409,0.5409,0.5409,0.5409,0.5421,0.553,0.5582,0.5592,0.5768,0.5815,0.5792,0.5768,0.5766,0.5794,0.5941,0.5987,0.6062,0.6219,0.6279,0.6227,0.5975,0.5915,0.5866,0.0,0.0,0.0,0.0,0.0,0.0,0.0,0.0,0.0,0.0,0.0,0.0,0.0,0.0,0.0,0.0,0.0,0.0,0.0,0.0,0.0,0.4407,0.4524,0.4642,0.4708,0.0,0.5006,0.5108,0.5163,0.5252,0.5409,0.5409,0.5471,0.5597,0.561,0.5711,0.59,0.5882,0.5947,0.6052,0.6207,0.6362,0.6489,0.6489,0.6489,0.6501,0.4076,0.434,0.4559,0.4691,0.4705,0.4731,0.4774,0.5088,0.5357,0.5431,0.5439,0.5443,0.5536,0.5561,0.5586,0.5598,0.5573,0.0,0.0,0.0,0.0,0.5327,0.5282,0.5232,0.5215,0.5215,0.5199,0.0,0.0,0.5161,0.5144,0.5161,0.5169,0.5169,0.5182,0.5199,0.522,0.5235,0.0,0.5224,0.5328,0.5365,0.5409,0.5409,0.5409,0.5409,0.5409,0.5409,0.5409,0.5409,0.5409,0.5405,0.5417,0.544,0.542,0.5356,0.5327,0.5364,0.551,0.5563,0.5588,0.5794,0.6,0.6154,0.6067,0.6191,0.6254,0.6107,0.5975,0.5866,0.5735,0.0,0.0,0.0,0.0,0.0,0.0,0.0,0.0,0.0,0.0,0.4998,0.0,0.0,0.0,0.0,0.0,0.0,0.0,0.0,0.0,0.0,0.4524,0.0,0.0,0.0,0.4919,0.5108,0.5124,0.5218,0.5409,0.5409,0.5435,0.5508,0.5581,0.5675,0.581,0.5884,0.601,0.6161,0.619,0.6341,0.6489,0.6489,0.6489,0.6501,0.3922,0.4073,0.4228,0.4405,0.4441,0.0,0.0,0.4879,0.5102,0.5317,0.535,0.5424,0.558,0.5614,0.5614,0.5614,0.5573,0.5549,0.5549,0.5471,0.5402,0.5354,0.5337,0.5271,0.5155,0.5151,0.513,0.5108,0.0,0.0,0.5108,0.5108,0.5108,0.5112,0.513,0.5151,0.5159,0.0,0.0,0.532,0.5365,0.5409,0.5409,0.5409,0.5409,0.5409,0.5409,0.5409,0.5409,0.5409,0.5409,0.5409,0.5409,0.5409,0.5373,0.5328,0.5316,0.5323,0.5341,0.5343,0.5402,0.5593,0.5711,0.5814,0.5884,0.6017,0.6126,0.601,0.6013,0.5942,0.5746,0.5534,0.0,0.0,0.0,0.0,0.0,0.0,0.0,0.0,0.0,0.0,0.0,0.0,0.0,0.0,0.0,0.0,0.0,0.0,0.0,0.0,0.0,0.0,0.0,0.0,0.0,0.5039,0.5084,0.5177,0.5312,0.5361,0.5426,0.5512,0.5573,0.5666,0.582,0.588,0.5963,0.6089,0.6161,0.6296,0.6423,0.6468,0.6489,0.6493,0.3814,0.3817,0.3882,0.4098,0.413,0.4219,0.4489,0.4519,0.466,0.506,0.5119,0.5212,0.5434,0.5463,0.5463,0.5463,0.5507,0.5524,0.5524,0.5567,0.5581,0.5512,0.5508,0.5443,0.5277,0.5285,0.524,0.0,0.0,0.0,0.0,0.5165,0.5165,0.5169,0.513,0.0,0.0,0.0,0.525,0.5241,0.5241,0.5241,0.5241,0.5241,0.5298,0.5354,0.5354,0.5382,0.5439,0.5439,0.541,0.5409,0.5409,0.5409,0.5409,0.5409,0.5409,0.5365,0.5264,0.5248,0.5278,0.5402,0.5431,0.5491,0.5679,0.5833,0.5937,0.5831,0.591,0.5916,0.5729,0.5556,0.0,0.0,0.0,0.0,0.0,0.0,0.0,0.0,0.0,0.0,0.4998,0.0,0.0,0.0,0.0,0.0,0.0,0.0,0.0,0.0,0.0,0.4597,0.4597,0.0,0.4854,0.0,0.5063,0.513,0.5192,0.5341,0.5418,0.5488,0.5569,0.5679,0.5814,0.5888,0.5939,0.6001,0.6149,0.6235,0.6329,0.6452,0.6489,0.6489,0.3869,0.3883,0.3899,0.3924,0.0,0.3935,0.3965,0.3965,0.4188,0.4761,0.4841,0.4868,0.4967,0.4974,0.4974,0.4974,0.518,0.5316,0.5316,0.5511,0.561,0.5601,0.5601,0.5593,0.5548,0.5496,0.548,0.0,0.0,0.0,0.0,0.0,0.0,0.0,0.0,0.0,0.0,0.4779,0.471,0.4776,0.4776,0.4776,0.4776,0.4776,0.4951,0.5218,0.5218,0.5389,0.5589,0.5589,0.5512,0.5409,0.5409,0.5409,0.5409,0.5409,0.5409,0.5405,0.5397,0.5369,0.5345,0.5255,0.5412,0.5549,0.5456,0.5634,0.5778,0.5576,0.554,0.559,0.569,0.5578,0.5475,0.0,0.0,0.0,0.0,0.0,0.4998,0.4998,0.0,0.0,0.0,0.4998,0.0,0.0,0.4531,0.0,0.0,0.0,0.0,0.4295,0.0,0.4597,0.4597,0.472,0.4854,0.4999,0.5063,0.513,0.5192,0.5341,0.5414,0.5402,0.554,0.5711,0.5904,0.5882,0.5939,0.6001,0.6149,0.6235,0.6329,0.6452,0.6489,0.6489,0.0,0.0,0.0,0.0,0.0,0.0,0.0,0.4023,0.411,0.4336,0.4481,0.4655,0.4868,0.4902,0.4902,0.4902,0.4998,0.5068,0.5068,0.5131,0.5151,0.5134,0.513,0.5108,0.5061,0.5028,0.5009,0.0,0.0,0.0,0.0,0.0,0.0,0.0,0.0,0.4807,0.481,0.4719,0.4678,0.4708,0.4708,0.4708,0.4708,0.4708,0.4796,0.4914,0.4914,0.4973,0.5086,0.5295,0.5424,0.5512,0.5512,0.55,0.5455,0.5455,0.5422,0.5409,0.5409,0.5409,0.5373,0.5337,0.5338,0.5345,0.5242,0.5404,0.55,0.5363,0.5341,0.5371,0.5355,0.5323,0.5319,0.0,0.0,0.0,0.0,0.0,0.0,0.4998,0.0,0.4998,0.0,0.0,0.0,0.0,0.0,0.0,0.0,0.0,0.0,0.4295,0.0,0.4597,0.4597,0.472,0.4826,0.4892,0.5039,0.5128,0.5142,0.5312,0.541,0.5463,0.5561,0.5687,0.5839,0.5896,0.591,0.5951,0.6036,0.6157,0.6247,0.6337,0.644,0.6489,0.3771,0.0,0.3965,0.0,0.4029,0.4093,0.4093,0.4093,0.4093,0.4093,0.421,0.4406,0.4624,0.4655,0.4655,0.4655,0.4749,0.4804,0.4781,0.4871,0.4902,0.4828,0.4825,0.0,0.4747,0.4753,0.4739,0.4739,0.4719,0.0,0.0,0.0,0.0,0.0,0.4588,0.4572,0.4591,0.4503,0.4456,0.4475,0.4475,0.4475,0.4475,0.4475,0.4535,0.4624,0.4624,0.4684,0.4803,0.5044,0.5309,0.5534,0.56,0.5569,0.552,0.552,0.5488,0.5418,0.5418,0.543,0.5409,0.5409,0.5333,0.5232,0.5142,0.5211,0.5283,0.5181,0.5184,0.5176,0.512,0.5134,0.5128,0.5098,0.0,0.0,0.0,0.0,0.0,0.0,0.4818,0.4818,0.4818,0.4701,0.0,0.0,0.0,0.0,0.0,0.0,0.0,0.0,0.0,0.0,0.0,0.472,0.4809,0.4813,0.4996,0.5108,0.5116,0.53,0.5426,0.5512,0.5573,0.5666,0.582,0.588,0.5886,0.5894,0.5987,0.606,0.6157,0.6272,0.6357,0.6452,0.3097,0.3385,0.3608,0.3608,0.3868,0.4093,0.4093,0.4093,0.4093,0.4093,0.4093,0.4091,0.4123,0.4123,0.4123,0.4123,0.4415,0.4581,0.4514,0.4819,0.4977,0.0,0.0,0.4902,0.4902,0.4828,0.4787,0.4787,0.0,0.0,0.4708,0.0,0.4708,0.4676,0.4353,0.4243,0.4277,0.4009,0.3924,0.3918,0.3918,0.3918,0.3918,0.3918,0.4099,0.4404,0.4404,0.4622,0.4902,0.4902,0.5114,0.5422,0.5552,0.5614,0.5614,0.5614,0.5549,0.5508,0.5508,0.5447,0.5409,0.5409,0.5409,0.5357,0.5236,0.5146,0.5109,0.5107,0.4991,0.4936,0.5074,0.5057,0.4953,0.4836,0.0,0.0,0.0,0.0,0.0,0.4413,0.4404,0.4404,0.4404,0.4404,0.0,0.0,0.0,0.0,0.0,0.0,0.0,0.4295,0.4498,0.0,0.4597,0.472,0.4809,0.4813,0.4996,0.5108,0.5116,0.53,0.5426,0.5512,0.5573,0.5666,0.582,0.588,0.5886,0.5894,0.5987,0.5992,0.6013,0.6219,0.6284,0.6333,0.3121,0.3251,0.3318,0.3318,0.3417,0.3583,0.385,0.3884,0.3983,0.4215,0.4248,0.4248,0.4248,0.4142,0.4093,0.0,0.419,0.4246,0.0,0.4319,0.4374,0.4357,0.4354,0.4333,0.429,0.4269,0.4237,0.4196,0.0,0.0,0.0,0.4164,0.4164,0.4134,0.4043,0.3993,0.4013,0.3921,0.3901,0.3889,0.3889,0.3889,0.3889,0.3889,0.3982,0.4071,0.4071,0.4133,0.4256,0.4472,0.4622,0.4769,0.5027,0.5395,0.5737,0.5737,0.5642,0.5557,0.5524,0.5488,0.5455,0.5426,0.5409,0.5357,0.524,0.5124,0.4999,0.4922,0.4822,0.4755,0.4757,0.4824,0.484,0.4741,0.4777,0.0,0.0,0.0,0.0,0.0,0.4599,0.4599,0.0,0.4435,0.0,0.0,0.0,0.0,0.0,0.0,0.0,0.0,0.4508,0.0,0.4663,0.4752,0.4809,0.4813,0.4996,0.5173,0.5296,0.5385,0.5426,0.5431,0.5549,0.563,0.567,0.5825,0.5886,0.589,0.5918,0.5967,0.5996,0.6085,0.6182,0.6321,0.2793,0.2928,0.3028,0.3028,0.3127,0.3295,0.3533,0.3566,0.3667,0.3869,0.3902,0.3936,0.4104,0.4041,0.0,0.4161,0.4161,0.4153,0.4128,0.4128,0.4118,0.4093,0.4093,0.4077,0.4039,0.0,0.0,0.3985,0.3985,0.3985,0.3985,0.3985,0.3985,0.3985,0.3985,0.3985,0.3985,0.3985,0.3985,0.3985,0.3985,0.3985,0.3985,0.3985,0.3972,0.395,0.395,0.3908,0.392,0.4133,0.4287,0.4438,0.4656,0.5052,0.5498,0.5619,0.5676,0.5654,0.5627,0.5561,0.5496,0.5443,0.5434,0.5357,0.524,0.5128,0.4998,0.4904,0.4794,0.4692,0.4634,0.4637,0.4624,0.4587,0.4612,0.4598,0.4589,0.0,0.0,0.0,0.0,0.0,0.0,0.4285,0.4214,0.0,0.0,0.0,0.0,0.0,0.0,0.4407,0.4524,0.0,0.4708,0.4769,0.4809,0.4813,0.4996,0.5202,0.5409,0.5409,0.5409,0.5418,0.5536,0.5614,0.563,0.5813,0.5886,0.5886,0.5886,0.5922,0.5975,0.5976,0.6093,0.6194,0.2189,0.2458,0.266,0.0,0.2928,0.0,0.3161,0.3161,0.3161,0.3194,0.3194,0.3329,0.3734,0.3768,0.3869,0.4207,0.0,0.0,0.0,0.4224,0.4164,0.4109,0.4107,0.4104,0.4099,0.4099,0.4099,0.4093,0.4093,0.4093,0.4093,0.4093,0.4093,0.4093,0.4093,0.4093,0.4093,0.4093,0.4093,0.4093,0.4093,0.4093,0.4093,0.4093,0.4058,0.4009,0.4009,0.3977,0.39,0.39,0.4114,0.4382,0.4382,0.4598,0.4933,0.5298,0.5582,0.579,0.5782,0.5655,0.5524,0.5512,0.5443,0.5357,0.524,0.5146,0.5084,0.5015,0.4834,0.4716,0.4708,0.4545,0.4428,0.4392,0.4342,0.4279,0.4215,0.0,0.0,0.0,0.0,0.0,0.0,0.4012,0.407,0.0,0.0,0.0,0.0,0.0,0.4349,0.4419,0.4532,0.465,0.4716,0.4769,0.4817,0.483,0.5,0.5202,0.5409,0.5409,0.5409,0.5418,0.5532,0.561,0.563,0.5805,0.5882,0.5886,0.5886,0.5886,0.5898,0.5983,0.5984,0.6013,0.0,0.0,0.2324,0.2324,0.2389,0.2524,0.2795,0.2828,0.2894,0.3161,0.3194,0.3228,0.3329,0.3329,0.3362,0.3463,0.3969,0.43,0.4286,0.4286,0.4281,0.4264,0.4264,0.4243,0.4164,0.4161,0.4139,0.4093,0.4093,0.4093,0.4093,0.4093,0.4093,0.4093,0.4093,0.4093,0.4093,0.4093,0.4093,0.4093,0.4093,0.4093,0.4093,0.4093,0.4085,0.4072,0.4072,0.4064,0.4053,0.4053,0.4083,0.4108,0.4108,0.4294,0.4622,0.5237,0.5437,0.5532,0.5738,0.5779,0.5684,0.5541,0.5443,0.5357,0.524,0.5146,0.5084,0.5015,0.4883,0.4761,0.472,0.4671,0.4574,0.4436,0.4395,0.435,0.4283,0.4271,0.0,0.0,0.4238,0.4238,0.4238,0.4238,0.4246,0.0,0.0,0.0,0.0,0.4379,0.4423,0.456,0.463,0.4716,0.4781,0.4797,0.4878,0.5017,0.5088,0.5202,0.5409,0.5409,0.5409,0.5418,0.5492,0.5553,0.5622,0.5765,0.5855,0.5886,0.5886,0.5886,0.589,0.591,0.5963,0.5996,0.2196,0.2196,0.2196,0.2196,0.2196,0.2265,0.2436,0.2458,0.255,0.2718,0.2736,0.2793,0.2961,0.2961,0.3028,0.3194,0.3566,0.3801,0.3801,0.3801,0.3801,0.3801,0.3969,0.4057,0.4024,0.4157,0.4243,0.4177,0.4177,0.4177,0.4177,0.4177,0.4177,0.4177,0.4177,0.4177,0.4177,0.4177,0.4177,0.4177,0.4177,0.4177,0.4177,0.4177,0.4158,0.4134,0.4134,0.4118,0.4093,0.4093,0.4072,0.4045,0.4045,0.413,0.4328,0.4826,0.5081,0.523,0.5551,0.5599,0.5554,0.5524,0.5471,0.5414,0.5328,0.5207,0.5118,0.5051,0.4961,0.4871,0.4757,0.4712,0.4675,0.4553,0.4468,0.4395,0.4346,0.4324,0.0,0.43,0.43,0.43,0.43,0.43,0.4316,0.4334,0.4338,0.0,0.4491,0.4513,0.4562,0.4634,0.4683,0.4724,0.4809,0.485,0.4969,0.5108,0.5122,0.5243,0.5409,0.5409,0.5409,0.5414,0.5471,0.5528,0.5622,0.5741,0.5835,0.5886,0.5886,0.5886,0.5886,0.5886,0.5918,0.5967,0.221,0.221,0.221,0.221,0.221,0.221,0.221,0.2189,0.2207,0.2207,0.2184,0.2302,0.2601,0.2635,0.2733,0.3028,0.306,0.3094,0.3194,0.3194,0.3194,0.3194,0.3533,0.3701,0.3701,0.4003,0.414,0.414,0.414,0.414,0.414,0.414,0.414,0.414,0.4207,0.4241,0.4241,0.4274,0.4308,0.4308,0.4308,0.4308,0.4308,0.4308,0.4275,0.4232,0.4232,0.4164,0.412,0.412,0.4115,0.4107,0.4107,0.4066,0.4081,0.4365,0.4602,0.4854,0.521,0.5301,0.532,0.5441,0.55,0.5488,0.5418,0.5293,0.5195,0.5118,0.5047,0.4974,0.4846,0.4761,0.4724,0.4712,0.4553,0.4448,0.4436,0.0,0.434,0.434,0.434,0.434,0.434,0.434,0.4373,0.4428,0.4432,0.4472,0.0,0.4667,0.4716,0.4704,0.4704,0.4736,0.4809,0.4924,0.5044,0.5108,0.5175,0.5264,0.5409,0.5409,0.5409,0.5414,0.5455,0.552,0.5622,0.5729,0.5823,0.5886,0.5886,0.5886,0.5886,0.5886,0.5886,0.5898,0.221,0.221,0.221,0.221,0.221,0.221,0.221,0.2206,0.2204,0.2204,0.2199,0.2222,0.2265,0.2262,0.2285,0.2359,0.2356,0.2591,0.3161,0.3194,0.3194,0.3194,0.3262,0.3295,0.3295,0.3329,0.3362,0.3362,0.3362,0.3362,0.3362,0.3362,0.3362,0.3396,0.3734,0.3869,0.3902,0.4174,0.4308,0.4308,0.4308,0.4308,0.4308,0.4308,0.4303,0.4294,0.4294,0.4286,0.4281,0.4281,0.4245,0.4169,0.4169,0.4128,0.408,0.4144,0.4163,0.4261,0.4827,0.5149,0.529,0.5324,0.5414,0.5504,0.5492,0.5333,0.5184,0.5199,0.5088,0.4995,0.4979,0.4875,0.4765,0.472,0.4683,0.4638,0.4585,0.0,0.4552,0.4552,0.4552,0.4552,0.4552,0.4552,0.456,0.4572,0.4576,0.4589,0.4683,0.47,0.4716,0.4789,0.4789,0.4797,0.4809,0.4924,0.5044,0.5108,0.5175,0.5264,0.5409,0.5409,0.5409,0.5409,0.5422,0.5492,0.5614,0.563,0.5735,0.5886,0.5886,0.5886,0.5886,0.5886,0.5886,0.589,0.2257,0.2257,0.2257,0.2257,0.2257,0.2257,0.2257,0.2244,0.227,0.227,0.222,0.2205,0.2191,0.219,0.2185,0.2204,0.2203,0.2341,0.265,0.2646,0.2658,0.2658,0.2827,0.304,0.3265,0.3255,0.3267,0.3267,0.3267,0.3267,0.3267,0.3267,0.3267,0.3267,0.3439,0.3542,0.3542,0.3686,0.3879,0.4046,0.4016,0.414,0.4308,0.4308,0.4308,0.4308,0.4308,0.4308,0.4308,0.4308,0.4289,0.4264,0.4264,0.4224,0.4142,0.4142,0.4205,0.4336,0.4552,0.4845,0.5081,0.5038,0.5178,0.5309,0.5234,0.527,0.5276,0.5228,0.5151,0.5088,0.5015,0.4937,0.4879,0.4765,0.4712,0.0,0.0,0.463,0.4597,0.4597,0.4597,0.4597,0.4597,0.4597,0.4617,0.4643,0.4647,0.4683,0.4748,0.4752,0.4769,0.4809,0.4809,0.4834,0.4908,0.4998,0.5092,0.5155,0.5248,0.5341,0.5409,0.5409,0.5409,0.5409,0.5409,0.548,0.5614,0.5614,0.5723,0.5886,0.5886,0.5886,0.5886,0.5886,0.5886,0.5886,0.2296,0.2296,0.2296,0.2296,0.2296,0.2296,0.2296,0.2315,0.2301,0.2301,0.2245,0.2228,0.2221,0.2221,0.2218,0.2212,0.221,0.221,0.221,0.2202,0.221,0.221,0.2448,0.2733,0.3036,0.3033,0.305,0.305,0.305,0.305,0.305,0.305,0.305,0.305,0.3155,0.319,0.3188,0.3257,0.345,0.3689,0.3684,0.3898,0.4192,0.4192,0.4218,0.4308,0.4308,0.4308,0.4308,0.4308,0.4308,0.4308,0.4308,0.4275,0.4237,0.4237,0.4323,0.4411,0.4328,0.4543,0.4766,0.471,0.491,0.5068,0.4958,0.5078,0.519,0.5127,0.5123,0.5094,0.5059,0.5028,0.4974,0.4854,0.0,0.0,0.0,0.4675,0.4658,0.4658,0.4658,0.4658,0.4658,0.4658,0.4663,0.4708,0.4712,0.474,0.4805,0.4809,0.4817,0.4842,0.4842,0.49,0.4995,0.5084,0.5146,0.5192,0.5337,0.5409,0.5409,0.5409,0.5409,0.5409,0.5409,0.548,0.5614,0.5614,0.5723,0.5886,0.5886,0.5886,0.5886,0.5886,0.5886,0.5886,0.2296,0.2296,0.2296,0.2296,0.2296,0.2296,0.2296,0.2295,0.2293,0.2293,0.2292,0.228,0.229,0.2288,0.2277,0.2213,0.221,0.221,0.221,0.2206,0.2204,0.2204,0.2238,0.224,0.2278,0.2279,0.228,0.228,0.228,0.228,0.228,0.228,0.228,0.228,0.2664,0.2838,0.2873,0.3151,0.3324,0.3324,0.332,0.3538,0.3842,0.3842,0.4015,0.4308,0.4308,0.4308,0.4308,0.4308,0.4308,0.4308,0.4308,0.4305,0.43,0.43,0.4253,0.421,0.406,0.4235,0.4438,0.4432,0.4626,0.4823,0.4745,0.4698,0.4708,0.4882,0.4887,0.4912,0.5145,0.5088,0.4995,0.4987,0.0,0.0,0.4801,0.4793,0.4789,0.4789,0.4789,0.4789,0.4789,0.4789,0.4793,0.4801,0.4801,0.4801,0.4809,0.4809,0.485,0.4987,0.4987,0.4991,0.4999,0.5118,0.5184,0.5192,0.5337,0.5409,0.5409,0.5409,0.5409,0.5409,0.5409,0.548,0.5614,0.5614,0.5723,0.5886,0.5886,0.5886,0.5886,0.5886,0.5886,0.5886,0.2296,0.2296,0.2296,0.2296,0.2296,0.2296,0.2296,0.2296,0.2296,0.2296,0.2296,0.2292,0.2318,0.2316,0.2276,0.2265,0.2264,0.2264,0.2264,0.2264,0.2248,0.2212,0.2228,0.2274,0.2274,0.2255,0.2264,0.2264,0.2264,0.2264,0.2264,0.2264,0.2264,0.2264,0.2406,0.2478,0.2512,0.2637,0.2805,0.2979,0.2989,0.3178,0.3477,0.3477,0.3691,0.3988,0.3988,0.4135,0.4308,0.4308,0.4308,0.4308,0.4308,0.4308,0.4308,0.4308,0.4264,0.4174,0.4128,0.414,0.4148,0.4114,0.4298,0.4481,0.4452,0.4535,0.4614,0.4697,0.4798,0.4867,0.4951,0.5051,0.5104,0.5015,0.0,0.49,0.4817,0.4809,0.4809,0.4809,0.4809,0.4809,0.4809,0.4809,0.4809,0.4809,0.4888,0.492,0.492,0.4973,0.5018,0.5055,0.5112,0.5114,0.5114,0.5183,0.5244,0.5328,0.5365,0.5409,0.5409,0.5409,0.5409,0.5409,0.5409,0.548,0.5614,0.5614,0.5723,0.5886,0.5886,0.5886,0.5886,0.5886,0.5886,0.5886,0.2296,0.2296,0.2296,0.2296,0.2296,0.2296,0.2296,0.2296,0.2296,0.2296,0.2296,0.2296,0.2296,0.2296,0.2296,0.2296,0.2296,0.2296,0.2296,0.2296,0.2279,0.224,0.2293,0.2304,0.2304,0.2287,0.2296,0.2296,0.2296,0.2296,0.2296,0.2296,0.2296,0.2296,0.2296,0.2296,0.2295,0.2312,0.2446,0.2659,0.2635,0.2832,0.3139,0.3139,0.3357,0.3663,0.3804,0.3986,0.419,0.431,0.4335,0.4333,0.4313,0.4308,0.4308,0.4308,0.4278,0.424,0.4221,0.4109,0.4018,0.3961,0.4052,0.4183,0.4162,0.4266,0.439,0.4431,0.4555,0.4662,0.4694,0.4822,0.4932,0.4944,0.4926,0.4912,0.4903,0.487,0.4854,0.4854,0.4854,0.4854,0.4854,0.4878,0.4895,0.4895,0.4977,0.504,0.504,0.51,0.5126,0.5126,0.5211,0.526,0.526,0.526,0.532,0.5409,0.5409,0.5409,0.5409,0.5409,0.5409,0.5409,0.541,0.5504,0.5618,0.5646,0.5748,0.5886,0.5886,0.5886,0.5886,0.5886,0.5886,0.5886,0.2296,0.2296,0.2296,0.2296,0.2296,0.2296,0.2296,0.2296,0.2296,0.2296,0.2296,0.2296,0.2296,0.2296,0.2296,0.2296,0.2296,0.2296,0.2296,0.2296,0.2296,0.2296,0.2296,0.2296,0.2296,0.2296,0.2296,0.2296,0.2296,0.2296,0.2296,0.2296,0.2296,0.2296,0.2296,0.2296,0.2296,0.2296,0.2296,0.2296,0.2296,0.2496,0.2789,0.2789,0.3014,0.3365,0.3752,0.3893,0.3953,0.4282,0.4398,0.4387,0.4327,0.4308,0.4308,0.4308,0.4308,0.4294,0.4234,0.4139,0.408,0.4018,0.3961,0.3904,0.3905,0.3891,0.3945,0.4081,0.4112,0.4176,0.4438,0.4395,0.4402,0.4749,0.4736,0.4786,0.5055,0.503,0.4999,0.4999,0.4999,0.4999,0.4999,0.5055,0.5108,0.5108,0.5108,0.5108,0.5112,0.5171,0.5192,0.5192,0.5333,0.5409,0.5409,0.5409,0.5409,0.5409,0.5409,0.5409,0.5409,0.5409,0.5409,0.5414,0.5471,0.5528,0.5622,0.5741,0.5835,0.5886,0.5886,0.5886,0.5886,0.5886,0.5886,0.5886,0.2296,0.2296,0.2296,0.2296,0.2296,0.2296,0.2296,0.2296,0.2296,0.2296,0.2296,0.2296,0.2296,0.2296,0.2296,0.2296,0.2296,0.2296,0.2296,0.2296,0.2296,0.2296,0.2296,0.2296,0.2296,0.2296,0.2296,0.2296,0.2296,0.2296,0.2296,0.2296,0.2296,0.2296,0.2296,0.2296,0.2296,0.2296,0.2296,0.2296,0.2296,0.2363,0.2464,0.2464,0.2661,0.295,0.3092,0.3286,0.3538,0.3909,0.4018,0.4011,0.4226,0.4308,0.4308,0.4308,0.4308,0.4303,0.4286,0.4237,0.4131,0.4028,0.3961,0.3915,0.3896,0.3891,0.391,0.3964,0.403,0.4131,0.4195,0.4332,0.4433,0.4436,0.4436,0.4428,0.4452,0.4454,0.4515,0.4748,0.48,0.4853,0.5041,0.5092,0.5108,0.5108,0.5142,0.5203,0.5296,0.5324,0.5341,0.5341,0.5365,0.5409,0.5409,0.5409,0.5409,0.5409,0.5409,0.5409,0.5409,0.5409,0.5409,0.5414,0.5471,0.5528,0.5622,0.5741,0.5835,0.5886,0.5886,0.5886,0.5886,0.5886,0.5886,0.5886,0.2078,0.2114,0.215,0.226,0.2296,0.2296,0.2296,0.2296,0.2296,0.2296,0.2296,0.2296,0.2296,0.2296,0.2296,0.2296,0.2296,0.2296,0.2296,0.2296,0.2296,0.2296,0.2296,0.2296,0.2296,0.2296,0.2296,0.2296,0.2296,0.2296,0.2296,0.2296,0.2296,0.2296,0.2296,0.2296,0.2296,0.2296,0.2296,0.2296,0.2296,0.2296,0.2296,0.2296,0.243,0.2629,0.2773,0.2975,0.3203,0.3575,0.3748,0.3905,0.4226,0.4343,0.4338,0.4313,0.4308,0.4308,0.4308,0.4262,0.4166,0.4093,0.4012,0.3947,0.3895,0.389,0.3888,0.3894,0.3949,0.3998,0.3948,0.4075,0.4192,0.4181,0.4168,0.421,0.43,0.427,0.4303,0.4518,0.4545,0.4598,0.4759,0.4843,0.4862,0.4862,0.4908,0.4961,0.5039,0.5043,0.5098,0.521,0.521,0.527,0.5409,0.5409,0.5409,0.5409,0.5409,0.5409,0.5409,0.5409,0.5426,0.5435,0.5524,0.5585,0.5675,0.5798,0.5867,0.5886,0.5886,0.5886,0.5886,0.5886,0.5886,0.5886,0.1677,0.175,0.1859,0.215,0.2187,0.2187,0.2187,0.2223,0.226,0.226,0.2296,0.2296,0.2296,0.2296,0.2296,0.2296,0.226,0.2223,0.2187,0.2187,0.2187,0.2187,0.2187,0.2187,0.2187,0.226,0.2296,0.2296,0.2296,0.2296,0.2296,0.2296,0.2296,0.2296,0.2296,0.2296,0.2296,0.2296,0.2296,0.2296,0.2296,0.2296,0.2296,0.2296,0.2296,0.2333,0.2697,0.2844,0.291,0.3232,0.3583,0.3923,0.4247,0.4329,0.4353,0.4324,0.4308,0.4308,0.4308,0.4267,0.4191,0.4185,0.4101,0.4004,0.3942,0.3892,0.3904,0.391,0.3894,0.3856,0.3743,0.3715,0.3745,0.3945,0.3955,0.4064,0.4369,0.4315,0.4248,0.4276,0.4276,0.4272,0.4303,0.4443,0.4508,0.4508,0.4508,0.4508,0.4508,0.4508,0.462,0.4847,0.4875,0.5015,0.5354,0.5354,0.5382,0.5409,0.5409,0.5409,0.5409,0.5409,0.5426,0.5512,0.5573,0.5666,0.582,0.588,0.5886,0.5886,0.5886,0.5886,0.5886,0.5886,0.5886,0.5886,0.1313,0.1313,0.1349,0.1423,0.1423,0.1423,0.1423,0.1713,0.1895,0.1895,0.215,0.2296,0.2296,0.2296,0.2296,0.2296,0.2078,0.1786,0.1459,0.1423,0.1423,0.1423,0.1423,0.1423,0.1423,0.2006,0.2296,0.2296,0.2296,0.2296,0.2296,0.2296,0.2296,0.2296,0.2296,0.2296,0.2296,0.2296,0.2296,0.2296,0.2296,0.2296,0.2296,0.2296,0.2296,0.2296,0.2405,0.2442,0.2474,0.2801,0.3175,0.3546,0.3843,0.3915,0.3974,0.4223,0.4308,0.4308,0.4308,0.4297,0.4275,0.4229,0.4164,0.4118,0.4009,0.395,0.3887,0.3904,0.3894,0.3883,0.3856,0.3773,0.3702,0.3748,0.3731,0.3698,0.3782,0.377,0.382,0.4043,0.4071,0.4182,0.4429,0.447,0.4508,0.4508,0.4508,0.4508,0.4508,0.4508,0.4536,0.4592,0.4592,0.4732,0.5015,0.5015,0.5126,0.5409,0.5409,0.5409,0.5409,0.5409,0.5426,0.5512,0.5573,0.5666,0.582,0.588,0.5886,0.5886,0.5886,0.5886,0.5886,0.5886,0.5886,0.5886,0.0876,0.0912,0.0985,0.1168,0.1204,0.1204,0.1204,0.1386,0.1532,0.1532,0.1678,0.1787,0.1787,0.1787,0.1787,0.1787,0.1605,0.1422,0.1204,0.1204,0.1204,0.1204,0.1204,0.1204,0.1204,0.1568,0.1787,0.1787,0.1787,0.186,0.2078,0.2078,0.215,0.2296,0.2296,0.2296,0.2296,0.2296,0.2296,0.2296,0.2296,0.2296,0.2296,0.2296,0.2296,0.2296,0.2296,0.2296,0.2366,0.2712,0.2995,0.3201,0.3524,0.373,0.3875,0.4027,0.4161,0.4308,0.4308,0.4308,0.43,0.4267,0.4237,0.4153,0.4031,0.398,0.3953,0.3895,0.3896,0.3894,0.3897,0.3836,0.3784,0.3757,0.3699,0.3658,0.3658,0.3633,0.3645,0.3785,0.3813,0.3868,0.4061,0.4061,0.4061,0.4061,0.4061,0.4061,0.4061,0.4061,0.4117,0.426,0.426,0.4397,0.4704,0.4704,0.4875,0.5154,0.5326,0.5409,0.5409,0.5422,0.5488,0.5549,0.5638,0.5761,0.5851,0.5896,0.5886,0.5886,0.5886,0.5886,0.5886,0.5886,0.5886,0.5886,0.0438,0.0511,0.062,0.0949,0.0985,0.0985,0.0985,0.1058,0.1095,0.1095,0.1168,0.1204,0.1204,0.1204,0.1168,0.1095,0.1095,0.1058,0.0985,0.0985,0.0985,0.0985,0.0985,0.0985,0.0985,0.0985,0.1058,0.1204,0.1204,0.1386,0.1713,0.1713,0.1859,0.2114,0.2187,0.2223,0.2223,0.226,0.2296,0.2296,0.2296,0.2296,0.2296,0.2296,0.2296,0.2296,0.2296,0.2296,0.2369,0.2697,0.2808,0.2874,0.3196,0.3477,0.3717,0.3728,0.3952,0.422,0.421,0.4241,0.4308,0.4308,0.427,0.4169,0.4058,0.4018,0.3991,0.3945,0.3895,0.3904,0.3886,0.3897,0.3872,0.3823,0.3762,0.3724,0.3724,0.368,0.3644,0.3605,0.3594,0.3589,0.3589,0.3589,0.3589,0.3589,0.3589,0.3589,0.3589,0.3589,0.3701,0.3924,0.3924,0.4092,0.4424,0.4424,0.4564,0.4847,0.517,0.5378,0.5406,0.5475,0.5536,0.5642,0.5749,0.5831,0.5886,0.5886,0.5886,0.5886,0.5886,0.5886,0.5886,0.5886,0.5886,0.5886,0.0073,0.0073,0.0109,0.0146,0.0146,0.0146,0.0146,0.0474,0.0693,0.0693,0.0985,0.1204,0.1204,0.1204,0.1058,0.0693,0.0693,0.0547,0.0182,0.0146,0.0146,0.0146,0.0146,0.0146,0.0146,0.0146,0.0511,0.1204,0.1204,0.1241,0.1277,0.1277,0.1314,0.1349,0.1713,0.1859,0.1895,0.2187,0.2296,0.2296,0.2296,0.2296,0.2296,0.2296,0.2296,0.2296,0.2296,0.2296,0.2296,0.2369,0.2369,0.2436,0.2763,0.2927,0.3016,0.3288,0.3602,0.3862,0.3881,0.407,0.4308,0.4308,0.43,0.4278,0.4174,0.4077,0.4001,0.3993,0.3953,0.3887,0.3909,0.3897,0.3888,0.388,0.3825,0.3787,0.3787,0.3779,0.3754,0.3702,0.3647,0.3589,0.3589,0.3589,0.3589,0.3589,0.3589,0.3589,0.3589,0.3589,0.3617,0.3645,0.3645,0.3785,0.4064,0.4064,0.4232,0.4564,0.4945,0.5264,0.5492,0.5504,0.5602,0.5761,0.5808,0.5831,0.5886,0.5886,0.5886,0.5886,0.5886,0.5886,0.5886,0.5886,0.5886,0.5886,0.0,0.0,0.0,0.0,0.0,0.0,0.0,0.0146,0.0255,0.0255,0.0401,0.0547,0.0547,0.0547,0.0474,0.0292,0.0255,0.0182,0.0,0.0,0.0,0.0,0.0,0.0,0.0,0.0,0.0182,0.0547,0.0547,0.0657,0.0876,0.0876,0.0985,0.1204,0.1386,0.1459,0.1495,0.1859,0.2005,0.2041,0.2223,0.2296,0.2296,0.2296,0.2296,0.2296,0.2296,0.2296,0.2296,0.2296,0.2296,0.233,0.2462,0.2661,0.2813,0.2969,0.3247,0.3561,0.3748,0.3902,0.407,0.4241,0.4308,0.43,0.4273,0.4166,0.4085,0.4018,0.3982,0.3955,0.3895,0.3899,0.391,0.391,0.3888,0.385,0.385,0.382,0.379,0.3762,0.3735,0.3718,0.3718,0.3718,0.3705,0.3669,0.3666,0.3652,0.3589,0.3589,0.3589,0.3589,0.3589,0.3645,0.3785,0.3819,0.3978,0.429,0.4681,0.5013,0.5287,0.5556,0.5704,0.5816,0.5835,0.588,0.5886,0.5886,0.5886,0.5886,0.5886,0.5886,0.5886,0.5886,0.5886,0.5886]},{"header":{"parameterUnit":"m.s-1","parameterCategory":1,"la1":30.6,"la2":28.766,"lo1":-90.7593,"lo2":-88.6598,"dy":0.0162,"dx":0.0183,"nx":116,"ny":114,"refTime":"2023-09-29T18:00:00:Z","depth":0,"parameterNumber":3,"parameterNumberName":"V-component_of_WINDS"},"data":[0.0,0.0,0.0,0.0,0.0,0.0,0.0,0.0,0.0,0.0,0.0,0.0,0.0,0.0,0.0,0.0,0.0,0.0,0.0,0.0,0.0,0.0,0.0,0.0,0.0,0.0,0.0,0.0,0.0,0.0,0.0,0.0,0.0,0.0,0.0,0.0,0.0,0.0,0.0,0.0,0.0,0.0,0.0,0.0,0.0,0.0,0.0,0.0,0.0,0.0,0.0,0.0,0.0,0.0,0.0,0.0,0.0,0.0,0.0,0.0,0.0,0.0,0.0,0.0,0.0,0.0,0.0,0.0,0.0,0.0,0.0,0.0,0.0,0.0,0.0,0.0,0.0,0.0,0.0,0.0,0.0,0.0,0.0,0.0,0.0,0.0,0.0,0.0,0.0,0.0,0.0,0.0,0.0,0.0,0.0,0.0,0.0,0.0,0.0,0.0,0.0,0.0,0.0,0.0,0.0,0.0,0.0,0.0,0.0,0.0,0.0,0.0,0.0,0.0,0.0,0.0,0.0,0.0,0.0,0.0,0.0,0.0,0.0,0.0,0.0,0.0,0.0,0.0,0.0,0.0,0.0,0.0,0.0,0.0,0.0,0.0,0.0,0.0,0.0,0.0,0.0,0.0,0.0,0.0,0.0,0.0,0.0,0.0,0.0,0.0,0.0,0.0,0.0,0.0,0.0,0.0,0.0,0.0,0.0,0.0,0.0,0.0,0.0,0.0,0.0,0.0,0.0,0.0,0.0,0.0,0.0,0.0,0.0,0.0,0.0,0.0,0.0,0.0,0.0,0.0,0.0,0.0,0.0,0.0,0.0,0.0,0.0,0.0,0.0,0.0,0.0,0.0,0.0,0.0,0.0,0.0,0.0,0.0,0.0,0.0,0.0,0.0,0.0,0.0,0.0,0.0,0.0,0.0,0.0,0.0,0.0,0.0,0.0,0.0,0.0,0.0,0.0,0.0,0.0,0.0,0.0,0.0,0.0,0.0,0.0,0.0,0.0,0.0,0.0,0.0,0.0,0.0,0.0,0.0,0.0,0.0,0.0,0.0,0.0,0.0,0.0,0.0,0.0,0.0,0.0,0.0,0.0,0.0,0.0,0.0,0.0,0.0,0.0,0.0,0.0,0.0,0.0,0.0,0.0,0.0,0.0,0.0,0.0,0.0,0.0,0.0,0.0,0.0,0.0,0.0,0.0,0.0,0.0,0.0,0.0,0.0,0.0,0.0,0.0,0.0,0.0,0.0,0.0,0.0,0.0,0.0,0.0,0.0,0.0,0.0,0.0,0.0,0.0,0.0,0.0,0.0,0.0,0.0,0.0,0.0,0.0,0.0,0.0,0.0,0.0,0.0,0.0,0.0,0.0,0.0,0.0,0.0,0.0,0.0,0.0,0.0,0.0,0.0,0.0,0.0,0.0,0.0,0.0,0.0,0.0,0.0,0.0,0.0,0.0,0.0,0.0,0.0,0.0,0.0,0.0,0.0,0.0,0.0,0.0,0.0,0.0,0.0,0.0,0.0,0.0,0.0,0.0,0.0,0.0,0.0,0.0,0.0,0.0,0.0,0.0,0.0,0.0,0.0,0.0,0.0,0.0,0.0,0.0,0.0,0.0,0.0,0.0,0.0,0.0,0.0,0.0,0.0,0.0,0.0,0.0,0.0,0.0,0.0,0.0,0.0,0.0,0.0,0.0,0.0,0.0,0.0,0.0,0.0,0.0,0.0,0.0,0.0,0.0,0.0,0.0,0.0,0.0,0.0,0.0,0.0,0.0,0.0,0.0,0.0,0.0,0.0,0.0,0.0,0.0,0.0,0.0,0.0,0.0,0.0,0.0,0.0,0.0,0.0,0.0,0.0,0.0,0.0,0.0,0.0,0.0,0.0,0.0,0.0,0.0,0.0,0.0,0.0,0.0,0.0,0.0,0.0,0.0,0.0,0.0,0.0,0.0,0.0,0.0,0.0,0.0,0.0,0.0,0.0,0.0,0.0,0.0,0.0,0.0,0.0,0.0,0.0,0.0,0.0,0.0,0.0,0.0,0.0,0.0,0.0,0.0,0.0,0.0,0.0,0.0,0.0,0.0,0.0,0.0,0.0,0.0,0.0,0.0,0.0,0.0,0.0,0.0,0.0,0.0,0.0,0.0,0.0,0.0,0.0,0.0,0.0,0.0,0.0,0.0,0.0,0.0,0.0,0.0,0.0,0.0,0.0,0.0,0.0,0.0,0.0,0.0,0.0,0.0,0.0,0.0,0.0,0.0,0.0,0.0,0.0,0.0,0.0,0.0,0.0,0.0,0.0,0.0,0.0,0.0,0.0,0.0,0.0,0.0,0.0,0.0,0.0,0.0,0.0,0.0,0.0,0.0,0.0,0.0,0.0,0.0,0.0,0.0,0.0,0.0,0.0,0.0,0.0,0.0,0.0,0.0,0.0,0.0,0.0,0.0,0.0,0.0,0.0,0.0,0.0,0.0,0.0,0.0,0.0,0.0,0.0,0.0,0.0,0.0,0.0,0.0,0.0,0.0,0.0,0.0,0.0,0.0,0.0,0.0,0.0,0.0,0.0,0.0,0.0,0.0,0.0,0.0,0.0,0.0,0.0,0.0,0.0,0.0,0.0,0.0,0.0,0.0,0.0,0.0,0.0,0.0,0.0,0.0,0.0,0.0,0.0,0.0,0.0,0.0,0.0,0.0,0.0,0.0,0.0,0.0,0.0,0.0,0.0,0.0,0.0,0.0,0.0,0.0,0.0,0.0,0.0,0.0,0.0,0.0,0.0,0.0,0.0,0.0,0.0,0.0,0.0,0.0,0.0,0.0,0.0,0.0,0.0,0.0,0.0,0.0,0.0,0.0,0.0,0.0,0.0,0.0,0.0,0.0,0.0,0.0,0.0,0.0,0.0,0.0,0.0,0.0,0.0,0.0,0.0,0.0,0.0,0.0,0.0,0.0,0.0,0.0,0.0,0.0,0.0,0.0,0.0,0.0,0.0,0.0,0.0,0.0,0.0,0.0,0.0,0.0,0.0,0.0,0.0,0.0,0.0,0.0,0.0,0.0,0.0,0.0,0.0,0.0,0.0,0.0,0.0,0.0,0.0,0.0,0.0,0.0,0.0,0.0,0.0,0.0,0.0,0.0,0.0,0.0,0.0,0.0,0.0,0.0,0.0,0.0,0.0,0.0,0.0,0.0,0.0,0.0,0.0,0.0,0.0,0.0,0.0,0.0,0.0,0.0,0.0,0.0,0.0,0.0,0.0,0.0,0.0,0.0,0.0,0.0,0.0,0.0,0.0,0.0,0.0,0.0,0.0,0.0,0.0,0.0,0.0,0.0,0.0,0.0,0.0,0.0,0.0,0.0,0.0,0.0,0.0,0.0,0.0,0.0,0.0,0.0,0.0,0.0,0.0,0.0,0.0,0.0,0.0,0.0,0.0,0.0,0.0,0.0,0.0,0.0,0.0,0.0,0.0,0.0,0.0,0.0,0.0,0.0,0.0,0.0,0.0,0.0,0.0,0.0,0.0,0.0,0.0,0.0,0.0,0.0,0.0,0.0,0.0,0.0,0.0,0.0,0.0,0.0,0.0,0.0,0.0,0.0,0.0,0.0,0.0,0.0,0.0,0.0,0.0,0.0,0.0,0.0,0.0,0.0,0.0,0.0,0.0,0.0,0.0,0.0,0.0,0.0,0.0,0.0,0.0,0.0,0.0,0.0,0.0,0.0,0.0,0.0,0.0,0.0,0.0,0.0,0.0,0.0,0.0,0.0,0.0,0.0,0.0,0.0,0.0,0.0,0.0,0.0,0.0,0.0,0.0,0.0,0.0,0.0,0.0,0.0,0.0,0.0,0.0,0.0,0.0,0.0,0.0,0.0,0.0,0.0,0.0,0.0,0.0,0.0,0.0,0.0,0.0,0.0,0.0,0.0,0.0,0.0,0.0,0.0,0.0,0.0,0.0,0.0,0.0,0.0,0.0,0.0,0.0,0.0,0.0,0.0,0.0,0.0,0.0,0.0,0.0,0.0,0.0,0.0,0.0,0.0,0.0,0.0,0.0,0.0,0.0,0.0,0.0,0.0,0.0,0.0,0.0,0.0,0.0,0.0,0.0,0.0,0.0,0.0,0.0,0.0,0.0,0.0,0.0,0.0,0.0,0.0,0.0,0.0,0.0,0.0,0.0,0.0,0.0,0.0,0.0,0.0,0.0,0.0,0.0,0.0,0.0,0.0,0.0,0.0,0.0,0.0,0.0,0.0,0.0,0.0,0.0,0.0,0.0,0.0,0.0,0.0,0.0,0.0,0.0,0.0,0.0,0.0,0.0,0.0,0.0,0.0,0.0,0.0,0.0,0.0,0.0,0.0,0.0,0.0,0.0,0.0,0.0,0.0,0.0,0.0,0.0,0.0,0.0,0.0,0.0,0.0,0.0,0.0,0.0,0.0,0.0,0.0,0.0,0.0,0.0,0.0,0.0,0.0,0.0,0.0,0.0,0.0,0.0,0.0,0.0,0.0,0.0,0.0,0.0,0.0,0.0,0.0,0.0,0.0,0.0,0.0,0.0,0.0,0.0,0.0,0.0,0.0,0.0,0.0,0.0,0.0,0.0,0.0,0.0,0.0,0.0,0.0,0.0,0.0,0.0,0.0,0.0,0.0,0.0,0.0,0.0,0.0,0.0,0.0,0.0,0.0,0.0,0.0,0.0,0.0,0.0,0.0,0.0,0.0,0.0,0.0,0.0,0.0,0.0,0.0,0.0,0.0,0.0,0.0,0.0,0.0,0.0,0.0,0.0,0.0,0.0,0.0,0.0,0.0,0.0,0.0,0.0,0.0,0.0,0.0,0.0,0.0,0.0,0.0,0.0,0.0,0.0,0.0,0.0,0.0,0.0,0.0,0.0,0.0,0.0,0.0,0.0,0.0,0.0,0.0,0.0,0.0,0.0,0.0,0.0,0.0,0.0,0.0,0.0,0.0,0.0,0.0,0.0,0.0,0.0,0.0,0.0,0.0,0.0,0.0,0.0,0.0,0.0,0.0,0.0,0.0,0.0,0.0,0.0,0.0,0.0,0.0,0.0,0.0,0.0,0.0,0.0,0.0,0.0,0.0,0.0,0.0,0.0,0.0,0.0,0.0,0.0,0.0,0.0,0.0,0.0,0.0,0.0,0.0,0.0,0.0,0.0,0.0,0.0,0.0,0.0,0.0,0.0,0.0,0.0,0.0,0.0,0.0,0.0,0.0,0.0,0.0,0.0,0.0,0.0,0.0,0.0,0.0,0.0,0.0,0.0,0.0,0.0,0.0,0.0,0.0,0.0,0.0,0.0,0.0,0.0,0.0,0.0,0.0,0.0,0.0,0.0,0.0,0.0,0.0,0.0,0.0,0.0,0.0,0.0,0.0,0.0,0.0,0.0,0.0,0.0,0.0,0.0,0.0,0.0,0.0,0.0,0.0,0.0,0.0,0.0,0.0,0.0,0.0,0.0,0.0,0.0,0.0,0.0,0.0,0.0,0.0,0.0,0.0,0.0,0.0,0.0,0.0,0.0,0.0,0.0,0.0,0.0,0.0,0.0,0.0,0.0,0.0,0.0,0.0,0.0,0.0,0.0,0.0,0.0,0.0,0.0,0.0,0.0,0.0,0.0,0.0,0.0,0.0,0.0,0.0,0.0,0.0,0.0,0.0,0.0,0.0,0.0,0.0,0.0,0.0,0.0,0.0,0.0,0.0,0.0,0.0,0.0,0.0,0.0,0.0,0.0,0.0,0.0,0.0,0.0,0.0,0.0,0.0,0.0,0.0,0.0,0.0,0.0,0.0,0.0,0.0,0.0,0.0,0.0,0.0,0.0,0.0,0.0,0.0,0.0,0.0,0.0,0.0,0.0,0.0,0.0,0.0,0.0,0.0,0.0,0.0,0.0,0.0,0.0,0.0,0.0,0.0,0.0,0.0,0.0,0.0,0.0,0.0,0.0,0.0,0.0,0.0,0.0,0.0,0.0,0.0,0.0,0.0,0.0,0.0,0.0,0.0,0.0,0.0,0.0,0.0,0.0,0.0,0.0,0.0,0.0,0.0,0.0,0.0,0.0,0.0,0.0,0.0,0.0,0.0,0.0,3.5952,0.0,0.0,0.0,0.0,0.0,0.0,0.0,0.0,0.0,0.0,0.0,0.0,0.0,0.0,0.0,0.0,0.0,0.0,0.0,0.0,0.0,0.0,0.0,0.0,0.0,0.0,0.0,0.0,0.0,0.0,0.0,0.0,0.0,0.0,0.0,0.0,0.0,0.0,2.4617,2.5009,2.5402,2.5759,2.4551,2.4195,2.4581,0.0,0.0,0.0,0.0,0.0,0.0,0.0,0.0,0.0,0.0,0.0,0.0,0.0,0.0,0.0,0.0,0.0,0.0,0.0,0.0,0.0,0.0,0.0,0.0,0.0,0.0,0.0,0.0,0.0,0.0,0.0,0.0,0.0,0.0,0.0,0.0,0.0,0.0,0.0,0.0,0.0,0.0,0.0,0.0,0.0,0.0,0.0,0.0,0.0,0.0,0.0,0.0,0.0,0.0,0.0,0.0,0.0,0.0,0.0,0.0,0.0,0.0,0.0,0.0,0.0,0.0,0.0,0.0,0.0,0.0,0.0,3.7782,0.0,0.0,0.0,0.0,0.0,0.0,0.0,0.0,0.0,0.0,0.0,0.0,0.0,0.0,0.0,0.0,0.0,0.0,0.0,0.0,0.0,0.0,0.0,1.9676,2.0039,2.0931,2.1012,2.1117,0.0,0.0,0.0,0.0,0.0,0.0,2.4902,2.5473,2.5937,2.6222,2.6472,2.6615,2.6615,2.6615,2.6621,2.6641,2.6057,0.0,0.0,0.0,0.0,0.0,0.0,0.0,0.0,0.0,0.0,0.0,0.0,0.0,0.0,0.0,0.0,0.0,0.0,0.0,0.0,0.0,0.0,0.0,0.0,0.0,0.0,0.0,0.0,0.0,0.0,0.0,0.0,0.0,0.0,0.0,0.0,0.0,0.0,0.0,0.0,0.0,0.0,0.0,0.0,0.0,0.0,0.0,0.0,0.0,0.0,0.0,0.0,0.0,0.0,0.0,0.0,0.0,0.0,0.0,0.0,0.0,0.0,0.0,4.3355,4.3778,4.3778,4.4586,4.497,4.485,4.2672,4.1485,4.1063,0.0,0.0,0.0,0.0,0.0,0.0,0.0,0.0,0.0,0.0,0.0,0.0,0.0,0.0,0.0,0.0,0.0,0.0,0.0,0.0,1.9492,2.0344,2.0465,2.0836,2.1768,2.1849,2.2417,2.3753,0.0,0.0,0.0,0.0,2.5631,2.5651,2.5759,2.6472,2.7886,2.9212,2.9861,2.9861,2.9861,2.994,2.9948,2.7082,2.5794,2.58,0.0,0.0,0.0,0.0,0.0,0.0,0.0,0.0,0.0,0.0,0.0,0.0,0.0,0.0,0.0,0.0,0.0,0.0,0.0,0.0,0.0,0.0,0.0,0.0,0.0,0.0,0.0,0.0,0.0,0.0,0.0,0.0,0.0,0.0,0.0,0.0,0.0,0.0,0.0,0.0,0.0,3.1424,3.3101,0.0,0.0,0.0,0.0,0.0,0.0,0.0,0.0,0.0,0.0,0.0,0.0,0.0,4.3692,4.3808,4.4662,4.509,4.509,4.597,4.6389,4.6428,4.7235,4.7582,4.7582,4.7226,0.0,4.3799,4.3799,0.0,0.0,0.0,0.0,0.0,0.0,0.0,0.0,0.0,0.0,0.0,0.0,0.0,0.0,0.0,0.0,0.0,0.0,0.0,0.0,0.0,2.1266,2.1813,2.3178,2.3296,2.3746,2.4864,2.4993,0.0,0.0,2.6555,2.7119,2.7143,2.8006,2.8791,2.9497,3.0182,3.0783,3.1307,3.1307,3.1567,3.2051,3.0614,2.9452,2.8584,2.8187,0.0,0.0,0.0,0.0,0.0,0.0,0.0,0.0,0.0,0.0,0.0,0.0,0.0,0.0,0.0,0.0,0.0,0.0,0.0,0.0,0.0,0.0,0.0,0.0,0.0,0.0,0.0,0.0,0.0,0.0,0.0,0.0,0.0,0.0,0.0,0.0,0.0,0.0,0.0,3.2597,3.3823,3.5046,3.6089,3.7015,0.0,0.0,0.0,0.0,0.0,0.0,0.0,0.0,0.0,4.4594,4.5362,4.5987,4.6432,4.7283,4.7745,4.7745,4.8629,4.9048,4.9048,4.9851,5.0236,5.0274,5.0736,5.0043,4.8466,4.7025,4.6213,4.5828,0.0,0.0,0.0,0.0,4.3884,4.3841,0.0,0.0,0.0,0.0,0.0,0.0,0.0,0.0,0.0,0.0,0.0,0.0,2.2269,2.2392,2.2971,2.4436,2.4589,2.4899,2.5658,2.5993,2.6237,2.6496,2.7911,2.8735,2.8784,3.0325,3.1118,3.1118,3.1502,3.2092,3.2793,3.2793,3.3178,3.3826,3.3826,3.281,3.106,3.0498,2.9785,2.8992,0.0,0.0,0.0,0.0,0.0,0.0,0.0,0.0,0.0,0.0,0.0,0.0,0.0,0.0,0.0,0.0,0.0,0.0,0.0,0.0,0.0,0.0,0.0,0.0,0.0,0.0,0.0,0.0,0.0,0.0,0.0,0.0,0.0,0.0,0.0,0.0,0.0,3.5272,3.6312,3.7181,3.8618,3.9738,0.0,0.0,0.0,0.0,0.0,0.0,4.4806,4.5303,4.619,4.7505,4.7966,4.8466,4.9082,4.9933,5.0356,5.0394,5.1246,5.1669,5.1707,5.251,5.2851,5.2928,5.3549,5.3467,5.2659,5.012,4.8966,4.8702,4.8125,4.7855,4.7778,4.7129,4.6903,4.6855,0.0,0.0,0.0,0.0,0.0,0.0,0.0,0.0,0.0,0.0,0.0,2.2166,2.382,2.3979,2.4339,2.5265,2.5342,2.5693,2.65,2.736,2.8188,2.8881,2.9845,3.0389,3.0396,3.1946,3.2775,3.2775,3.4258,3.505,3.5214,3.5214,3.5349,3.5572,3.5572,3.4233,3.1923,3.1946,3.1499,3.0784,3.0794,0.0,0.0,0.0,0.0,0.0,0.0,0.0,0.0,0.0,0.0,0.0,0.0,0.0,0.0,0.0,0.0,0.0,0.0,0.0,0.0,0.0,0.0,0.0,0.0,0.0,0.0,0.0,0.0,0.0,0.0,0.0,0.0,0.0,0.0,0.0,0.0,0.0,0.0,3.9822,4.0788,0.0,0.0,0.0,0.0,4.513,4.5896,4.6444,4.6671,4.8169,4.9115,4.9279,5.0813,5.1654,5.1692,5.2582,5.3005,5.3005,5.3895,5.4318,5.4357,5.5131,5.5516,5.5516,5.5555,5.5555,5.5318,5.2774,5.1279,5.0553,5.0515,5.0515,5.0515,5.0476,5.0438,5.0322,0.0,0.0,0.0,0.0,0.0,0.0,0.0,0.0,2.0382,2.1447,2.244,2.33,2.4029,2.453,2.5171,2.61,2.6613,2.721,2.8017,2.8948,2.9612,2.9844,3.0785,3.176,3.2787,3.3821,3.4365,3.4365,3.5435,3.6344,3.701,3.7532,3.8131,3.8783,3.8783,3.7761,3.5901,3.4896,3.4036,3.324,3.2727,3.1908,0.0,0.0,0.0,0.0,0.0,0.0,0.0,0.0,0.0,0.0,0.0,0.0,0.0,0.0,0.0,0.0,0.0,0.0,0.0,0.0,0.0,0.0,0.0,0.0,0.0,0.0,0.0,0.0,0.0,0.0,0.0,0.0,0.0,0.0,0.0,0.0,0.0,4.2387,4.337,0.0,4.5501,4.6652,4.7498,4.7825,4.8654,4.944,5.0051,5.0658,5.1259,5.1818,5.2972,5.3587,5.3587,5.4934,5.5665,5.5659,5.6544,5.6934,5.6973,5.7242,5.7357,5.7357,5.7357,5.7357,5.7319,5.639,5.5203,5.3939,5.3939,5.3592,5.3169,5.3169,5.2779,5.2241,0.0,0.0,0.0,0.0,0.0,0.0,0.0,2.0224,2.1046,2.1854,2.3026,2.3943,2.4371,2.5136,2.6064,2.7229,2.7827,2.8438,2.9238,3.0184,3.0843,3.1099,3.2252,3.3366,3.4464,3.5463,3.6006,3.6006,3.7077,3.7972,3.8708,3.9229,3.9833,4.0519,4.0519,3.9922,3.8883,3.7789,3.6407,3.4896,3.4354,3.3652,3.2806,0.0,0.0,0.0,0.0,0.0,0.0,0.0,0.0,0.0,0.0,0.0,0.0,0.0,0.0,0.0,0.0,0.0,0.0,0.0,0.0,0.0,0.0,0.0,0.0,0.0,0.0,0.0,0.0,0.0,0.0,0.0,0.0,0.0,0.0,4.2064,4.327,4.4968,4.6015,4.7008,4.8133,4.933,5.0178,5.0489,5.1364,5.2141,5.2766,5.3297,5.3895,5.4472,5.5318,5.578,5.578,5.6884,5.7588,5.7885,5.8798,5.9342,5.9612,5.992,6.0041,6.0041,6.0041,6.0041,6.0041,6.0041,5.9386,5.8192,5.7033,5.6242,5.578,5.578,5.5434,5.489,0.0,0.0,0.0,0.0,0.0,0.0,2.0163,2.0965,2.1777,2.2634,2.3371,2.4164,2.5031,2.5943,2.7096,2.8646,2.8926,2.9316,3.008,3.1059,3.1933,3.2737,3.4344,3.5248,3.5284,3.6836,3.7666,3.7666,3.9182,4.0019,4.0253,4.0289,4.0391,4.061,4.0619,4.0592,4.0464,4.0464,3.8625,3.574,3.5704,3.5151,3.4323,0.0,0.0,0.0,0.0,0.0,0.0,0.0,0.0,0.0,0.0,0.0,0.0,0.0,0.0,0.0,0.0,0.0,0.0,0.0,0.0,0.0,0.0,0.0,0.0,0.0,0.0,0.0,0.0,0.0,0.0,0.0,0.0,0.0,4.3984,4.465,4.5854,4.7568,4.8617,4.9859,5.1599,5.1796,5.2192,5.3157,5.4013,5.454,5.4626,5.617,5.706,5.7093,5.7934,5.8396,5.8434,5.8462,5.8879,5.9733,6.0634,6.1509,6.2276,6.313,6.3516,6.3516,6.3516,6.3516,6.3516,6.3516,6.3516,6.3158,5.9799,5.8434,5.8434,5.8396,5.8357,5.8165,0.0,0.0,0.0,0.0,0.0,0.0,2.009,2.0909,2.1897,2.3247,2.417,2.4965,2.5821,2.7187,2.8274,2.8751,2.9873,3.0658,3.0896,3.231,3.3559,3.4467,3.5517,3.6328,3.6943,3.7933,3.8719,3.928,4.0289,4.0857,4.1029,4.2121,4.2765,4.294,4.3516,4.31,4.1991,4.1991,4.0792,3.8779,3.771,3.7125,3.674,0.0,0.0,0.0,0.0,0.0,0.0,0.0,0.0,0.0,0.0,0.0,0.0,0.0,0.0,0.0,0.0,0.0,0.0,0.0,0.0,0.0,0.0,0.0,0.0,0.0,0.0,0.0,0.0,0.0,0.0,0.0,4.5639,4.6541,4.5797,4.6956,4.8304,4.9446,5.0386,5.1606,5.336,5.4096,5.4845,5.5769,5.6698,5.7225,5.7242,5.7703,5.8204,5.8781,5.9716,6.0509,6.1119,6.1764,6.2183,6.2414,6.2695,6.2937,6.3169,6.34,6.3516,6.3516,6.3516,6.3516,6.3516,6.3516,6.3516,6.3395,6.2436,6.1693,6.107,6.041,5.9403,5.828,0.0,0.0,0.0,0.0,0.0,0.0,2.0127,2.1156,2.2302,2.3529,2.4472,2.5296,2.6073,2.7678,2.885,2.9193,3.0418,3.1458,3.2116,3.3794,3.5022,3.5616,3.6765,3.7612,3.8076,3.9182,3.9958,4.0386,4.1538,4.216,4.2281,4.3524,4.4186,4.4335,4.4803,4.4448,4.3535,4.3535,4.2757,4.1439,4.0219,3.9352,3.8554,3.6986,3.609,3.5553,3.4438,3.3804,3.3319,3.2234,0.0,0.0,0.0,0.0,0.0,0.0,0.0,0.0,0.0,0.0,0.0,0.0,0.0,0.0,0.0,0.0,0.0,0.0,0.0,0.0,0.0,0.0,0.0,0.0,4.7865,4.877,4.9442,4.9809,5.0589,5.2251,5.2905,5.391,5.5655,5.6334,5.7007,5.7922,5.884,5.9511,5.9858,6.0204,6.0633,6.1129,6.167,6.2205,6.2728,6.3285,6.3741,6.4089,6.4116,6.4319,6.4628,6.4628,6.4628,0.0,6.4628,6.4628,6.4628,6.4628,6.4628,0.0,0.0,0.0,0.0,0.0,6.1362,6.0481,0.0,0.0,0.0,0.0,0.0,0.0,2.0148,2.1499,2.2822,2.372,2.4493,2.5301,2.6136,2.7777,2.907,2.9756,3.0735,3.1976,3.352,3.5197,3.6236,3.655,3.7985,3.8888,3.9066,4.0396,4.1181,4.1359,4.2812,4.3568,4.3744,4.4532,4.4989,4.5084,4.5192,4.5103,4.49,4.49,4.4407,4.3561,4.2858,4.1538,3.9886,3.8397,3.7871,3.7675,3.6174,3.5662,3.5445,3.3947,0.0,0.0,0.0,0.0,0.0,0.0,0.0,0.0,0.0,0.0,0.0,0.0,0.0,0.0,0.0,0.0,0.0,0.0,0.0,0.0,0.0,0.0,0.0,0.0,5.0339,5.1393,5.3718,5.2984,5.3048,5.5275,5.5664,5.6459,5.8201,5.846,5.8865,5.9852,6.0627,6.1402,6.2184,0.0,0.0,0.0,0.0,6.3659,6.3792,6.3845,6.4335,6.5185,6.5237,6.5726,6.6495,6.6495,6.6495,6.6495,6.6495,6.6495,6.6495,6.6495,6.6495,6.6291,6.4496,6.372,6.3676,6.3676,6.3599,6.3516,0.0,0.0,0.0,0.0,0.0,0.0,2.0027,2.1379,2.293,2.4416,2.4763,2.5456,2.6894,2.8534,2.9596,2.9783,3.1149,3.2731,3.4446,3.5525,3.6697,3.8105,3.8555,3.9387,4.0646,4.0967,4.1752,4.3026,4.3347,4.3822,4.4414,4.5235,4.5614,4.5672,4.6315,4.6233,4.5603,4.5603,4.5117,4.4371,4.4203,4.2812,4.0753,3.9825,3.9458,3.9244,3.7711,3.722,3.7023,3.5537,3.5079,3.5115,3.4912,3.487,0.0,0.0,0.0,0.0,0.0,0.0,0.0,0.0,0.0,0.0,0.0,0.0,0.0,0.0,0.0,0.0,0.0,0.0,0.0,5.0826,5.2768,5.4327,5.4935,5.5955,5.6574,5.6396,5.7035,5.8215,5.9939,6.0194,6.0869,6.2462,6.2737,6.2915,6.3128,6.3282,6.3735,6.4497,6.458,6.4916,6.5583,6.568,6.6131,6.6982,0.0,0.0,6.8308,6.8308,6.8308,6.8308,6.8308,6.8308,6.8308,6.8308,6.8308,6.8114,6.6358,6.5239,6.4618,6.4618,6.4166,6.3516,0.0,0.0,0.0,0.0,0.0,0.0,2.0002,2.1359,2.2977,2.4572,2.4851,2.551,2.7101,2.8726,2.9726,2.9783,3.203,3.3818,3.4691,3.5966,3.7236,3.8499,3.9061,3.9886,4.1074,4.1502,4.2287,4.349,4.3882,4.4453,4.5202,4.6034,4.6391,4.6427,4.683,4.6795,4.6391,4.6391,4.5927,4.5202,4.5202,4.4275,4.2705,4.1538,4.086,4.035,3.9182,3.8523,3.8069,3.6978,3.6399,3.6095,3.5788,3.5736,3.5731,0.0,0.0,0.0,0.0,0.0,0.0,0.0,0.0,0.0,0.0,0.0,0.0,0.0,0.0,4.7389,4.8289,0.0,5.1497,5.2928,5.4234,5.5566,5.6945,5.8338,5.9055,5.8596,5.9006,5.9997,6.1716,6.1965,6.2553,6.3852,6.3966,6.4194,6.4686,6.4716,6.5147,6.6058,6.6124,6.6576,6.7453,6.7485,6.7733,6.8153,6.8153,6.8385,6.881,6.881,6.881,6.881,6.881,6.881,6.881,6.881,6.881,6.8694,6.7849,6.6982,6.6183,6.6183,6.5626,6.4832,0.0,0.0,0.0,0.0,0.0,0.0,0.0,2.1339,2.2949,2.455,2.4829,2.5495,2.7086,2.8563,2.9597,2.9992,3.2888,3.4697,3.4697,3.6308,3.7685,3.8679,3.9449,4.0331,4.1324,4.1976,4.2751,4.3704,4.431,4.5095,4.6034,4.6688,4.7009,4.7009,4.7009,4.7009,4.7009,4.7009,4.6616,4.6034,4.6034,4.5559,4.4667,4.3286,4.2251,4.1431,4.0493,3.9744,3.9156,3.8409,3.773,3.7044,3.6472,3.6391,3.65,3.65,3.6644,0.0,0.0,0.0,0.0,0.0,0.0,0.0,0.0,4.4102,4.5043,4.6091,4.8093,4.9777,5.0326,5.1751,5.3352,5.5007,5.5586,5.6654,5.8949,6.0137,6.0869,6.1227,6.1185,6.171,6.3297,6.3507,6.3935,6.48,6.5086,6.5513,6.6231,6.6426,6.6869,6.7658,6.7658,6.8033,6.8772,6.881,6.8888,6.9048,6.9048,6.9125,6.9275,6.9275,6.9275,6.9275,6.9275,6.9275,6.9275,6.9275,6.9275,6.9275,6.9275,6.8738,6.7965,6.781,6.7191,6.6456,0.0,0.0,0.0,0.0,0.0,0.0,0.0,0.0,2.287,2.4418,2.4713,2.5411,2.6964,2.7973,2.9133,3.0637,3.3194,3.4697,3.4697,3.6207,3.7829,3.9423,3.9674,4.0556,4.2119,4.2262,4.3001,4.4489,4.456,4.5381,4.6866,4.6973,4.7009,4.7009,4.7009,4.7009,4.7009,4.7009,4.6938,4.6866,4.6866,4.6391,4.557,4.4667,4.3882,4.3026,4.1502,4.0895,4.0727,4.0064,3.938,3.8843,3.8779,3.8884,3.9015,3.9015,3.9555,4.0186,4.0227,4.0508,4.102,4.206,4.2961,4.3878,0.0,4.5811,4.6905,4.8562,4.9296,5.0364,5.256,5.3921,5.5045,5.6081,5.7537,5.8949,6.0088,6.1051,6.2236,6.3792,6.3322,6.329,6.4264,6.4436,6.4845,6.5759,6.6503,6.7014,6.7233,6.7984,6.848,6.8645,6.8645,6.8689,6.881,6.881,6.9164,6.9865,6.9865,7.0291,7.1021,7.1021,7.1021,7.1021,7.1021,7.1021,7.1021,7.1021,7.1021,7.1021,7.1021,7.0484,6.9633,6.8932,6.8114,6.7346,0.0,0.0,0.0,0.0,0.0,0.0,0.0,0.0,2.2687,2.3825,2.4459,2.5225,2.633,2.8083,2.9642,3.0811,3.2756,3.4151,3.4662,3.58,3.718,3.8767,3.9457,4.0348,4.1538,4.2052,4.3072,4.4596,4.4596,4.5416,4.7009,4.7009,4.7009,4.7009,4.7009,4.7009,4.7009,4.7009,4.7009,4.7009,4.7009,4.6795,4.6355,4.5095,4.4417,4.3918,4.2358,4.1502,0.0,4.0792,4.0274,3.9769,3.9769,3.9887,4.0048,4.0048,4.038,4.1001,4.2068,4.2523,4.2967,4.435,4.4987,4.5712,4.7279,4.7911,4.8664,5.0533,5.1404,5.2356,5.3913,5.5072,5.6206,5.7617,5.8916,6.0084,6.1082,6.2421,6.3607,6.4365,6.4629,6.4898,6.5282,6.5807,6.628,6.6657,6.7539,6.8104,6.8149,6.853,6.8988,6.9473,6.9512,6.9744,7.0247,7.0279,7.0488,7.0803,7.0834,7.1043,7.143,7.143,7.143,7.143,7.143,7.143,7.143,7.143,7.143,7.1425,7.1355,7.1151,7.072,6.9837,6.897,6.8269,0.0,0.0,0.0,0.0,0.0,0.0,0.0,0.0,0.0,0.0,2.424,2.5206,2.6224,2.8347,2.9926,3.0532,3.231,3.3755,3.4653,3.5491,3.6639,3.8249,3.9201,4.0126,4.0979,4.1823,4.2934,4.431,4.4489,4.5309,4.6688,4.6902,4.7009,4.7009,4.7009,4.7009,4.7009,4.7009,4.7009,4.7009,4.7009,4.6866,4.6498,4.5131,4.4489,4.4132,4.2797,4.194,4.1431,4.1431,4.1033,4.055,4.055,4.0681,4.0836,4.0836,4.1306,4.2119,4.3747,4.4254,4.477,4.6455,4.6983,4.7561,4.9455,4.9895,5.0405,5.2094,5.3154,5.4025,5.4942,5.6171,5.7445,5.8683,5.9883,6.0991,6.2004,6.342,6.453,6.4833,6.5686,6.6275,6.6275,6.6825,6.7331,6.7598,6.8496,6.9055,6.9071,6.9336,6.9744,7.033,7.0384,7.0699,7.1318,7.1371,7.1435,7.1435,7.1475,7.1489,7.1489,7.1489,7.1489,7.1489,7.1489,7.1489,7.1489,7.1489,7.1489,7.1489,7.145,7.1435,7.1353,7.0659,6.9887,6.9125,0.0,0.0,0.0,0.0,0.0,0.0,0.0,0.0,0.0,0.0,0.0,2.5434,2.7093,2.8726,2.9726,2.9818,3.2031,3.3755,3.4653,3.539,3.6562,3.8239,3.9095,3.9974,4.0979,4.1741,4.2565,4.3525,4.4239,4.5024,4.5856,4.6641,4.7009,4.7009,4.7009,4.7009,4.7009,4.7009,4.7009,4.7009,4.7009,4.6534,4.5749,4.4917,4.4168,4.3418,4.2619,4.2262,4.2262,4.2262,4.1857,4.1341,4.1341,4.151,4.1669,4.1669,4.2913,4.451,4.5544,4.599,4.65,4.8134,4.8764,4.9471,5.1151,5.1627,5.2007,5.3034,5.4013,5.4939,5.5804,5.7537,5.8843,5.8881,6.0385,6.1889,6.2846,6.3803,6.4753,6.5672,6.6577,6.7158,6.7158,6.7197,6.7598,6.8569,6.9468,6.996,6.9976,7.075,7.1258,7.1258,7.1306,7.1376,7.1415,7.1465,7.1489,7.1489,7.1489,7.1489,7.1489,7.1489,7.1489,7.1489,7.1489,7.1489,7.1489,7.1489,7.1489,7.1489,7.1489,7.1489,7.1489,7.1451,7.0805,6.9943,0.0,0.0,0.0,0.0,0.0,0.0,0.0,0.0,0.0,0.0,0.0,0.0,0.0,0.0,0.0,0.0,3.1001,3.2371,3.381,3.4627,3.5549,3.6597,3.7952,3.9126,3.9974,4.0815,4.1927,4.3358,4.3608,4.4174,4.5024,4.5274,4.5702,4.6212,4.6212,4.6498,4.6973,4.6427,4.6212,4.6177,4.563,4.5238,4.4917,4.4168,4.374,4.3383,0.0,4.2297,4.2297,4.2297,4.2261,4.2204,4.2204,4.2313,4.2621,4.3305,4.4354,4.5562,4.6562,4.7297,4.8078,4.9251,5.0107,5.1008,5.2177,5.2614,5.2998,5.4035,5.4931,5.5865,5.6831,5.803,5.9086,5.9747,6.1342,6.2654,6.2998,6.4376,6.548,6.5821,6.664,6.7446,6.8073,6.8693,0.0,6.9546,7.0358,7.085,7.0866,7.1174,7.1389,7.1389,7.144,7.1465,7.1465,7.1518,7.158,7.158,7.1577,7.1551,7.1551,7.1551,7.1551,7.1551,7.1551,7.1551,7.1551,7.1551,7.1551,7.159,7.1555,7.158,7.1575,7.1504,7.1276,7.1014,0.0,0.0,0.0,0.0,0.0,0.0,0.0,0.0,0.0,0.0,0.0,0.0,0.0,0.0,0.0,0.0,0.0,3.1638,3.3398,3.3995,3.4723,3.5757,3.7119,3.8199,3.905,3.9888,4.1007,4.2399,4.2683,4.3248,4.4084,4.4369,4.4771,4.527,4.527,4.5588,4.606,4.555,4.5359,4.5309,4.481,4.4442,4.4168,4.3668,4.3311,0.0,4.2476,4.2297,4.2308,4.2374,4.246,4.2609,4.2649,4.2994,4.3639,4.4891,4.5707,4.6524,4.7831,4.8578,4.9353,5.0602,5.1489,5.2245,5.3201,5.3553,5.387,5.4544,5.5386,5.6321,5.7324,5.8258,5.9222,6.0163,6.1819,6.3048,6.311,6.4653,6.5826,6.5929,6.6959,6.7957,6.8556,6.9739,7.0468,7.0468,7.0966,7.1302,7.1324,7.1394,7.1425,7.144,7.1494,7.1557,7.1557,7.1568,7.159,7.159,7.1585,7.1602,7.1602,7.1602,7.1602,7.1602,7.1602,7.1602,7.1602,7.1602,7.1602,7.1598,7.1603,7.159,7.1586,7.1559,7.1546,7.1541,0.0,0.0,0.0,0.0,0.0,0.0,0.0,0.0,0.0,0.0,0.0,0.0,0.0,0.0,0.0,0.0,0.0,0.0,3.3283,3.345,3.4143,3.5617,3.6488,3.7355,3.8193,3.9005,3.9867,4.0713,4.1513,4.2246,4.3014,4.3769,4.4169,4.424,4.424,4.4343,4.4489,4.4454,4.4473,4.4549,4.4514,4.4061,4.3454,4.3454,4.2965,4.2297,4.2297,4.2308,4.2318,4.2445,4.2592,4.2701,4.2828,4.3589,4.4742,4.6322,4.6959,4.7496,4.9229,4.9879,5.0426,5.2178,5.2779,5.3201,5.4103,5.4417,5.4546,5.4673,5.5394,5.6299,5.7256,5.8227,5.9206,6.0165,6.1785,6.2991,6.3162,6.4686,6.5814,6.599,6.7494,6.8594,6.8696,7.0258,7.1258,7.1297,0.0,7.1324,7.141,7.142,7.1445,7.1494,7.158,7.1607,7.1607,7.1616,7.1602,7.1602,7.1602,7.1602,7.1602,7.1602,7.1602,7.1602,7.1602,7.1602,7.1602,7.1602,7.1602,7.1602,7.1602,7.1602,7.1602,7.1602,7.1602,7.1589,0.0,0.0,0.0,0.0,0.0,0.0,0.0,0.0,0.0,0.0,0.0,0.0,0.0,0.0,0.0,0.0,0.0,0.0,3.1703,3.2853,3.3696,3.4065,3.539,3.6498,3.731,3.8074,3.8898,3.9832,4.0044,4.058,4.1396,4.1609,4.2317,4.3404,4.3404,4.3755,4.4332,4.3806,4.3611,4.3597,4.3076,4.2751,4.2619,4.2619,4.2476,4.2297,4.2297,4.2348,4.2445,4.2501,4.3011,4.3668,4.3862,4.4941,4.6258,4.6776,4.7928,4.9119,4.9694,5.0805,5.1927,5.253,5.3226,5.3883,5.4303,5.4518,5.4673,5.4752,5.5564,5.6299,5.663,5.7927,5.9095,5.9438,6.1017,6.2432,6.3092,6.4231,6.5228,6.5925,6.7022,6.7978,6.8657,6.9678,7.0617,0.0,7.1355,7.1361,7.1415,7.1489,7.1571,7.1584,7.1594,7.1581,7.1581,7.1594,7.1602,7.1602,7.1602,7.1602,7.1602,7.1602,7.1602,7.1602,7.1602,7.1602,7.1602,7.1602,7.1602,7.1602,7.1602,7.1602,7.1602,7.1602,7.1602,7.1598,0.0,0.0,0.0,0.0,0.0,0.0,0.0,0.0,0.0,0.0,0.0,0.0,0.0,0.0,0.0,0.0,0.0,0.0,0.0,3.2019,3.2792,3.3477,3.4328,3.517,3.5961,3.6724,3.7526,3.8415,3.8722,3.9316,4.0143,4.0143,4.0602,4.1449,4.1449,4.1739,4.2157,4.1828,4.1724,0.0,0.0,4.1252,4.1252,4.1252,4.1252,4.1252,4.1252,4.1566,4.2089,4.2498,4.3248,4.4137,4.4665,4.5727,4.6908,4.7363,4.8563,4.9812,5.0304,5.1435,5.2624,5.319,5.3755,5.4244,5.4388,5.4584,5.4705,5.4775,5.5307,5.5864,5.6324,5.726,5.8217,5.9096,6.0438,6.1697,6.2605,6.3856,6.4897,6.5427,6.6626,6.773,6.8651,6.9523,7.0416,7.1337,7.1415,7.1435,7.148,7.1575,7.1611,7.1599,7.1585,7.1602,7.1602,7.1602,7.1602,7.1602,7.1602,7.1602,7.1602,7.1602,7.1602,7.1602,0.0,7.1602,7.1602,7.1602,7.1602,7.1602,7.1602,7.1602,7.1602,7.1602,7.1602,7.1602,0.0,0.0,0.0,0.0,0.0,0.0,0.0,0.0,0.0,0.0,0.0,0.0,0.0,0.0,0.0,0.0,0.0,0.0,0.0,0.0,3.1817,3.3152,3.338,3.3836,3.4521,3.5285,3.6057,3.6849,3.7496,3.8259,3.9136,3.9136,3.9206,3.9312,3.9333,3.9395,3.9509,3.9575,3.9686,3.9795,3.9883,3.9886,3.9886,0.0,3.9886,3.9886,3.9916,4.0587,4.1559,4.2395,4.3295,4.4307,4.5203,4.611,4.701,4.7978,4.8959,4.9942,5.0878,5.1834,5.2837,5.384,5.4218,5.4332,5.4489,5.4633,5.472,5.4806,5.4912,5.5271,5.6109,5.6431,5.7188,5.8885,5.9919,6.0914,6.1947,6.3513,6.4612,6.4789,6.6234,6.7636,6.8689,6.9487,7.0335,7.1348,7.143,7.1475,7.1598,7.1607,7.1594,7.1598,7.1602,7.1602,7.1602,7.1602,7.1602,7.1602,7.1602,7.1602,7.1602,7.1602,7.1602,7.1602,0.0,0.0,7.1602,7.1602,7.1602,7.1602,7.1602,7.1602,7.1602,7.1602,7.1602,7.1602,0.0,0.0,0.0,0.0,0.0,0.0,0.0,0.0,0.0,0.0,2.3954,2.4925,0.0,0.0,0.0,0.0,0.0,0.0,0.0,0.0,0.0,3.1607,3.2836,3.3573,3.3723,3.4486,3.5249,3.6012,3.6153,3.6925,3.8294,3.8294,3.8645,3.9312,3.9426,3.9488,3.9509,3.9691,3.9771,3.9801,3.9873,3.9886,3.9886,3.9886,0.0,0.0,4.0078,4.0758,4.1601,4.1839,4.2965,4.4422,4.5309,4.6207,4.7163,4.8161,4.9121,5.0065,5.0935,5.1918,5.291,5.3849,5.4224,5.4434,5.4625,5.472,5.4814,5.4927,5.5035,5.5158,5.5385,5.6129,5.7053,5.8131,5.9036,6.019,6.1884,6.3031,6.3979,6.4805,6.5791,6.7026,6.8656,6.8984,6.9774,0.0,7.1518,7.1584,7.1602,7.1603,7.1594,7.1602,7.1602,7.1602,7.1602,7.1602,7.1602,7.1602,7.1602,7.1602,7.1602,7.1602,7.1602,7.1602,7.1602,0.0,7.1602,7.1602,7.1602,7.1602,7.1602,7.1602,7.1602,7.1602,7.1602,7.1602,0.0,0.0,0.0,0.0,0.0,0.0,0.0,2.2487,2.2569,2.2609,2.4005,2.5007,2.5043,2.6442,2.7446,0.0,0.0,0.0,0.0,0.0,0.0,3.115,3.1923,3.2485,3.2906,3.367,3.4285,3.4717,0.0,3.5695,3.6446,3.686,3.7283,3.767,3.8137,3.8378,3.8353,3.849,3.8547,3.8557,3.8671,3.8683,3.8683,3.8683,0.0,0.0,3.9445,4.0239,4.107,4.1633,4.2659,4.3961,4.5211,4.6236,4.7192,4.8208,4.9168,5.0028,5.049,5.1377,5.2254,5.2752,5.3028,5.3185,5.3366,5.3482,5.3564,5.3687,5.3798,5.4013,5.4543,5.509,5.5889,5.7264,5.8239,5.9308,6.0624,6.2354,6.3687,6.4165,6.5381,6.6737,6.8039,6.8602,6.9469,7.079,7.1344,7.1603,7.1603,7.1589,7.1602,7.1602,7.1602,7.1602,7.1602,7.1602,7.1602,7.1602,7.1602,7.1602,7.1602,7.1602,7.1602,7.1602,7.1602,0.0,7.1602,7.1602,7.1602,7.1602,7.1602,7.1602,7.1602,7.1602,7.1602,7.1602,0.0,0.0,0.0,0.0,0.0,0.0,0.0,2.2535,2.2623,2.2656,2.3915,2.4906,2.5122,2.6524,2.75,0.0,0.0,0.0,0.0,0.0,0.0,0.0,0.0,0.0,3.2176,0.0,0.0,3.3723,3.4297,0.0,0.0,0.0,0.0,0.0,3.6509,3.6847,3.6811,3.6904,3.6941,0.0,0.0,3.7086,3.7122,0.0,0.0,0.0,0.0,3.9481,4.0366,4.1315,4.224,4.3278,4.4912,4.6046,4.7002,4.7988,4.8938,4.9732,5.0061,5.0749,5.1418,5.1753,5.1947,5.2052,5.2183,5.2325,5.2423,5.2506,5.262,5.2914,5.369,5.4073,5.4823,5.6383,5.7406,5.8396,5.9458,6.1565,6.3129,6.3567,6.5,6.6365,6.7498,6.8408,6.9273,7.0248,7.1111,0.0,7.1602,7.1602,7.1602,7.1602,7.1602,7.1602,7.1602,7.1602,7.1602,7.1602,7.1602,7.1602,7.1602,7.1602,7.1602,7.1602,7.1602,0.0,0.0,7.1602,7.1602,7.1602,7.1602,7.1602,7.1602,7.1602,7.1602,7.1602,0.0,0.0,0.0,0.0,0.0,0.0,0.0,2.2602,2.2622,2.2788,2.3506,2.433,2.5177,2.6644,2.7587,0.0,0.0,0.0,0.0,0.0,0.0,0.0,0.0,0.0,0.0,0.0,0.0,3.3784,3.3854,0.0,0.0,0.0,0.0,0.0,0.0,3.5314,3.5323,3.5375,0.0,0.0,0.0,0.0,0.0,0.0,0.0,0.0,0.0,3.8728,3.9726,4.0524,4.1483,4.2581,4.4243,4.5442,4.6359,4.724,4.8151,4.9082,5.0038,5.0391,5.0734,5.1648,5.2043,5.219,5.228,5.2374,5.2506,5.2581,5.2653,5.2781,5.298,5.3719,5.4593,5.5571,5.6555,5.7801,5.9444,6.0581,6.1828,6.3473,6.4522,6.5785,6.7421,6.8408,6.9273,7.0248,7.1111,0.0,7.1602,7.1602,7.1602,7.1602,7.1602,7.1602,7.1602,7.1602,7.1602,7.1602,7.1602,7.1602,7.1602,7.1602,7.1602,7.1602,7.1602,0.0,0.0,7.1602,7.1602,7.1602,7.1602,7.1602,7.1602,7.1602,7.1602,7.1602,0.0,0.0,0.0,0.0,0.0,0.0,2.2534,2.2683,2.2721,2.2779,2.3537,2.4382,2.5205,2.6324,2.7186,2.7614,0.0,0.0,0.0,0.0,0.0,0.0,0.0,0.0,0.0,0.0,3.2347,3.3185,3.3185,0.0,0.0,0.0,0.0,0.0,0.0,3.5161,3.5161,3.5196,0.0,0.0,0.0,0.0,0.0,0.0,0.0,0.0,0.0,0.0,3.9587,4.0025,4.11,4.2391,4.3108,4.4302,4.5759,4.7133,4.7804,4.8361,4.9359,4.9732,4.9899,5.04,5.0629,5.0761,5.0847,5.0971,5.1052,5.1129,5.1222,5.1509,5.2137,5.2549,5.3262,5.4699,5.5696,5.6925,5.8682,6.0122,6.1684,6.3478,6.4479,6.5485,6.6771,6.7674,6.8769,7.0209,7.1123,0.0,7.1602,7.1602,7.1602,7.1602,7.1602,7.1602,7.1602,7.1602,7.1602,7.1602,7.1602,7.1602,7.1602,7.1602,7.1602,7.1602,7.1602,0.0,0.0,7.1602,7.1614,7.1676,7.1676,7.1653,7.1672,7.1672,7.1672,7.1672,0.0,0.0,0.0,0.0,0.0,2.2649,2.2669,2.2775,2.2825,2.2844,2.3434,2.4141,2.4931,2.5756,2.6571,2.7358,2.7632,0.0,0.0,0.0,0.0,0.0,0.0,0.0,0.0,0.0,3.1868,3.2465,3.2723,3.2862,0.0,0.0,3.3758,3.3758,0.0,0.0,0.0,0.0,0.0,0.0,0.0,0.0,0.0,0.0,0.0,0.0,0.0,0.0,0.0,0.0,0.0,4.1711,4.2312,4.3372,4.4753,4.6384,4.7111,4.7599,4.8591,4.8968,4.9137,4.9514,4.954,4.947,4.9558,4.9486,4.9485,4.9786,4.9956,5.032,5.1283,5.1638,5.23,5.3872,5.4896,5.6145,5.8167,5.949,6.1041,6.3052,6.4111,6.5009,6.5911,6.7286,6.873,7.0195,0.0,0.0,7.1602,7.1602,7.1602,7.1602,7.1602,7.1602,7.1602,7.1602,7.1602,7.1602,7.1602,7.1602,7.1602,7.1602,7.1602,7.1602,0.0,0.0,0.0,7.1618,7.1642,7.1718,7.1718,7.1694,7.1715,7.1715,7.1715,7.1715,0.0,0.0,0.0,0.0,0.0,0.0,2.2773,2.2844,2.2914,2.2977,2.3025,2.3342,2.4232,2.5022,2.5837,2.6626,2.7437,0.0,0.0,0.0,0.0,0.0,0.0,0.0,0.0,0.0,3.1689,3.1724,3.2525,3.2882,3.2882,3.2918,3.2918,3.2918,0.0,0.0,0.0,0.0,0.0,0.0,0.0,0.0,3.4493,0.0,0.0,0.0,0.0,0.0,0.0,0.0,0.0,0.0,0.0,4.2766,4.3132,4.4758,4.5863,4.6824,4.7849,4.8145,4.8446,4.9467,4.9157,4.8666,4.8795,4.8262,4.7949,4.882,4.9072,4.9412,5.0443,5.1275,5.2118,5.3152,5.4024,5.5504,5.8143,5.8576,5.9571,6.2119,6.325,6.4152,6.5015,6.7505,6.9418,7.0238,0.0,0.0,7.1602,7.1602,7.1602,7.1602,7.1602,7.1602,7.1602,7.1602,7.1602,7.1602,7.1602,7.1602,7.1602,7.1602,7.1602,0.0,0.0,0.0,0.0,7.1699,7.1683,7.1715,7.1715,7.1715,7.1715,7.1715,7.1715,7.1715,0.0,0.0,0.0,0.0,0.0,0.0,0.0,2.2914,2.2965,2.2984,2.3071,2.3455,2.4273,2.4648,2.5371,2.6721,2.7543,0.0,0.0,0.0,0.0,0.0,0.0,0.0,0.0,0.0,3.1153,3.1696,3.2525,3.2882,3.2882,3.2882,3.2882,3.2882,3.2882,3.2942,0.0,0.0,0.0,0.0,0.0,3.3401,3.3679,0.0,0.0,0.0,0.0,0.0,0.0,0.0,0.0,0.0,0.0,0.0,0.0,4.3639,4.4812,4.6128,4.7087,4.7446,4.7613,4.7961,4.7945,4.7878,4.7946,4.7835,4.7808,4.8176,4.875,4.9273,4.9642,5.0447,5.1549,5.3046,5.3585,5.4691,5.7259,5.8194,5.9352,6.1353,6.3447,6.5105,6.5961,0.0,6.8567,6.9418,0.0,0.0,7.1563,7.1602,7.1602,7.1602,7.1602,7.1602,7.1602,7.1602,7.1602,7.1602,7.1602,7.1602,7.1602,7.1602,0.0,0.0,0.0,0.0,0.0,7.169,7.1721,7.1751,7.1754,7.177,7.1788,7.1788,7.1788,7.1788,0.0,0.0,0.0,0.0,0.0,0.0,0.0,2.3003,2.3065,2.3065,2.3157,2.3441,2.3948,2.4328,2.5051,2.6368,2.7185,0.0,0.0,0.0,0.0,0.0,0.0,0.0,2.8934,3.0005,3.0813,3.1313,3.2417,3.2969,3.2969,3.2969,3.2969,3.2969,3.2969,3.2985,0.0,0.0,0.0,0.0,3.3287,3.334,3.3371,0.0,0.0,0.0,0.0,0.0,0.0,0.0,0.0,0.0,0.0,0.0,0.0,0.0,4.3697,4.5045,4.6214,4.6643,4.6886,4.7242,4.722,4.7116,4.7138,4.699,4.6959,4.7355,4.8156,4.8902,4.9254,5.0067,5.1284,5.3041,5.3381,5.4284,5.6896,5.801,5.9482,6.1905,6.3688,6.518,0.0,6.7285,6.8024,0.0,0.0,0.0,7.1093,7.1407,7.1602,7.1602,7.1602,7.1602,7.1602,7.1602,7.1602,7.1602,7.1602,7.1602,7.1602,7.1602,0.0,0.0,0.0,0.0,0.0,7.1728,7.1758,7.1788,7.1791,7.1803,7.1819,7.1819,7.1819,7.1819,0.0,0.0,0.0,0.0,0.0,0.0,0.0,2.3114,2.3228,2.3228,2.3283,2.3324,2.3324,2.4028,2.4865,2.566,0.0,0.0,0.0,0.0,0.0,0.0,0.0,0.0,2.8227,2.9855,3.0722,3.0722,3.2316,3.3101,3.3101,3.3101,3.3101,3.3101,3.3101,3.3101,0.0,0.0,0.0,0.0,3.3325,3.3386,0.0,0.0,0.0,0.0,0.0,0.0,0.0,0.0,0.0,0.0,0.0,0.0,0.0,0.0,0.0,0.0,0.0,4.5819,4.6202,4.7011,4.6757,4.6306,4.6325,4.5856,0.0,4.6464,4.74,4.8337,4.9163,5.0096,5.1302,5.3093,5.3408,5.4297,5.685,5.8028,5.9891,6.3391,6.3863,6.4602,6.6349,6.7247,6.7717,0.0,0.0,0.0,7.0199,7.0976,7.1407,7.1407,7.1485,7.1524,7.1602,7.1602,7.1602,7.1602,7.1602,7.1602,7.1602,7.1602,0.0,0.0,0.0,0.0,0.0,7.1809,7.1791,7.1819,7.1819,7.1819,7.1819,7.1819,7.1819,7.1819,0.0,0.0,0.0,0.0,0.0,0.0,0.0,0.0,0.0,0.0,2.3313,2.3389,2.3389,2.3625,2.4112,0.0,0.0,0.0,0.0,0.0,0.0,0.0,0.0,0.0,2.834,2.9946,3.0787,3.0787,3.2339,3.3101,3.3101,3.3101,3.3101,3.3101,3.3101,3.3175,0.0,0.0,0.0,0.0,3.3452,3.3509,0.0,0.0,0.0,0.0,3.4067,3.4619,0.0,0.0,0.0,0.0,0.0,0.0,0.0,0.0,4.1832,4.2805,4.3919,0.0,4.5243,4.55,4.5536,4.5497,0.0,4.5472,4.5471,4.5712,4.7007,4.8198,4.844,4.9731,5.1356,5.3099,5.3451,5.4143,5.6046,5.7658,5.9971,6.3475,6.3946,6.4636,6.6353,6.6703,0.0,0.0,0.0,6.8684,6.934,6.9574,6.969,6.969,7.0277,7.0937,7.1602,7.1602,7.1602,7.1602,7.1602,7.1602,7.1602,7.1602,0.0,0.0,0.0,0.0,7.1812,7.1797,7.1811,7.1819,7.1819,7.1819,7.1819,7.1819,7.1819,7.1819,0.0,0.0,0.0,0.0,0.0,0.0,0.0,0.0,0.0,0.0,0.0,2.3494,2.3494,2.3556,0.0,0.0,0.0,0.0,0.0,0.0,0.0,0.0,0.0,2.8393,2.8393,3.0016,3.0865,3.0865,3.2443,3.3259,3.3259,3.3259,3.3259,3.3259,3.3259,3.3304,0.0,0.0,0.0,3.356,3.356,0.0,0.0,0.0,0.0,0.0,3.3902,3.4299,0.0,3.5298,3.6073,3.7005,0.0,0.0,0.0,0.0,4.1026,4.1882,4.243,4.3477,4.4525,4.4998,4.517,4.5251,4.5347,4.5385,4.5453,4.5509,4.69,4.8143,4.8197,4.965,5.1396,5.3117,5.3468,5.4396,5.6893,5.8078,5.984,6.2948,6.3728,6.4488,0.0,0.0,0.0,0.0,0.0,6.8024,6.849,6.8874,6.9107,6.9107,6.9535,7.016,7.1015,7.1403,7.1602,7.1602,7.1602,7.1602,7.1602,7.1602,7.1622,0.0,0.0,0.0,7.1812,7.1806,7.1819,7.1819,7.1819,7.1819,7.1819,7.1819,7.1819,7.1819,0.0,0.0,0.0,0.0,0.0,0.0,0.0,0.0,0.0,0.0,0.0,0.0,0.0,0.0,0.0,0.0,0.0,0.0,0.0,0.0,0.0,0.0,2.8426,2.8426,2.8426,3.0042,3.0913,3.0913,3.256,3.34,3.3408,3.3408,3.3415,3.343,3.343,3.3466,0.0,0.0,0.0,3.3608,3.3608,0.0,0.0,0.0,0.0,0.0,0.0,0.0,0.0,3.5039,3.5479,3.59,3.7361,0.0,0.0,0.0,0.0,0.0,4.1239,4.2455,4.3851,4.4789,4.5169,4.5309,4.5403,4.5453,4.5523,4.5681,4.7027,4.8249,4.8369,4.9787,5.1464,5.3129,5.3674,5.5035,5.8256,5.8723,5.9696,6.23,6.3421,0.0,6.5106,0.0,0.0,0.0,0.0,6.76,6.76,6.8296,6.868,6.868,6.8835,6.9224,6.9927,7.0782,7.1287,7.1403,7.1403,7.1485,7.1602,7.1602,7.1622,0.0,0.0,0.0,7.1809,7.1806,7.1819,7.1819,7.1819,7.1819,7.1819,7.1819,7.1819,7.1819,0.0,0.0,0.0,0.0,0.0,0.0,0.0,0.0,0.0,0.0,0.0,0.0,0.0,0.0,0.0,0.0,0.0,0.0,0.0,0.0,0.0,2.8662,2.86,2.8562,2.8562,3.015,3.0989,3.0989,3.2625,3.343,3.3488,3.3488,3.3524,3.3552,3.3552,3.3595,3.3566,3.3566,0.0,3.3678,3.3678,0.0,0.0,0.0,0.0,0.0,0.0,0.0,0.0,3.4449,3.5053,3.5832,3.6083,0.0,0.0,0.0,0.0,0.0,4.1161,4.2089,4.3079,4.3884,4.4737,4.5408,4.5381,4.5438,4.5724,4.6525,4.7507,4.8411,4.9144,5.0194,5.1472,5.3214,5.4726,5.6392,5.8412,5.8766,5.9738,6.2376,0.0,6.4333,6.5106,0.0,0.0,0.0,0.0,6.6703,6.6703,6.6819,6.6897,6.6897,6.7596,6.8062,6.8183,6.9034,6.9845,7.051,7.051,7.0898,7.1602,7.1602,7.1622,0.0,0.0,7.1735,7.1809,7.1806,7.1819,7.1819,7.1819,7.1819,7.1819,7.1819,7.1819,7.1819,0.0,0.0,0.0,0.0,0.0,0.0,0.0,0.0,0.0,0.0,0.0,0.0,0.0,0.0,0.0,0.0,0.0,0.0,0.0,0.0,2.8718,2.8755,2.8724,2.8924,2.9336,3.0499,3.1306,3.1749,3.2942,3.3538,3.353,3.353,3.3552,3.3587,3.3587,3.3608,3.3643,3.3643,3.3712,3.3784,0.0,0.0,0.0,0.0,0.0,0.0,0.0,0.0,0.0,0.0,3.474,3.5231,3.5694,0.0,0.0,0.0,0.0,0.0,4.0599,4.1736,4.2855,4.3209,4.435,4.5424,4.5434,4.5869,4.6376,4.6809,4.7979,4.9029,4.9457,5.0695,5.2162,5.3923,5.5276,5.6714,5.8463,5.8773,5.959,0.0,0.0,6.3634,0.0,0.0,0.0,0.0,0.0,0.0,6.6508,6.6508,6.6508,6.6508,6.6897,6.7091,6.7091,6.748,6.833,6.9651,6.9651,7.0083,7.0898,7.0898,7.1182,7.163,0.0,7.1708,7.1741,7.1776,7.1803,7.1819,7.1819,7.1819,7.1741,7.1313,7.1157,7.1079,0.0,0.0,0.0,0.0,0.0,0.0,0.0,0.0,0.0,0.0,0.0,0.0,0.0,0.0,0.0,0.0,0.0,0.0,0.0,2.7892,2.8804,2.8822,2.8822,2.918,2.9983,3.0772,3.1581,3.2397,3.3222,3.3594,3.3615,3.3629,3.3636,3.3636,3.3636,3.3678,3.3753,3.3753,3.3827,3.3865,0.0,0.0,0.0,0.0,0.0,0.0,0.0,0.0,0.0,0.0,0.0,0.0,0.0,0.0,0.0,3.8221,3.9188,4.0096,4.042,4.1638,4.2843,4.3087,4.4283,4.5472,4.574,4.6367,4.7036,4.7422,4.8596,4.9645,5.0103,5.1617,5.3235,5.4597,5.5718,5.6963,5.8514,5.8943,5.9679,6.1218,6.2154,6.3051,0.0,0.0,0.0,0.0,0.0,0.0,6.6508,6.6508,6.6508,6.6508,6.6508,6.6508,6.6508,6.6508,6.7285,6.8797,6.8797,6.9224,7.0044,7.0199,7.0665,7.1291,7.1568,7.1718,7.1708,7.1787,7.1782,7.1808,7.1814,7.1664,7.143,7.0611,7.03,7.0183,0.0,0.0,0.0,0.0,0.0,0.0,0.0,0.0,0.0,0.0,0.0,0.0,0.0,0.0,0.0,0.0,0.0,0.0,0.0,2.7892,2.8828,2.8893,2.8899,2.9241,2.9983,3.0772,3.1581,3.2397,3.3222,3.3622,3.3691,3.376,3.3793,3.3793,3.3793,3.3834,3.39,3.39,3.3946,3.3936,3.3124,0.0,0.0,0.0,0.0,0.0,0.0,0.0,0.0,0.0,0.0,0.0,0.0,0.0,3.742,3.7546,3.8813,4.0353,4.1175,4.2107,4.3005,4.3946,4.4856,4.5706,4.6508,4.6817,4.7349,4.8967,4.9466,5.0065,5.1614,5.3391,5.4632,5.4793,5.6192,5.7668,5.8633,0.0,6.0367,6.1299,6.2154,0.0,0.0,0.0,0.0,0.0,0.0,0.0,6.6508,6.6508,6.6508,6.6508,6.6508,6.6508,6.6508,6.6508,6.6975,6.7872,6.7872,6.8334,6.9224,6.9966,7.0316,7.0432,7.1331,7.1703,7.1711,7.178,7.1806,7.1812,7.1806,7.1352,7.0572,6.9715,6.9403,6.9364,0.0,0.0,0.0,0.0,0.0,0.0,0.0,0.0,0.0,0.0,0.0,0.0,0.0,0.0,0.0,0.0,0.0,0.0,0.0,2.8038,2.8923,2.8952,2.8998,2.9383,3.0173,3.0931,3.1712,3.2511,3.3323,3.3739,3.3766,3.384,3.3873,3.3873,3.3919,3.3959,3.3941,3.3941,3.3721,3.3266,3.2452,3.1881,0.0,0.0,0.0,0.0,0.0,0.0,0.0,0.0,3.4323,3.4829,3.4898,3.6093,3.7479,3.7605,3.8837,4.0411,4.1299,4.2197,4.3095,4.4079,4.5345,4.6453,4.6792,4.7293,4.8069,4.9316,5.0392,5.17,5.3468,5.4336,5.4984,5.5528,5.6622,5.7711,5.8679,5.9534,6.0409,6.1299,6.1688,0.0,0.0,0.0,0.0,0.0,0.0,0.0,6.6508,6.6508,6.6508,6.6508,6.6508,6.6508,6.6508,6.6508,6.6664,6.6975,6.6975,6.7441,6.8296,6.8606,6.9034,6.9578,6.9943,7.039,7.0883,7.0912,7.095,7.0952,7.0442,7.0066,6.9676,6.8816,6.8504,6.8427,0.0,0.0,0.0,0.0,0.0,0.0,0.0,0.0,0.0,0.0,0.0,0.0,0.0,0.0,0.0,0.0,0.0,0.0,2.6623,2.8167,2.905,2.905,2.91,2.9386,2.994,3.0924,3.1851,3.2653,3.3469,3.3873,3.3873,3.3926,3.3946,3.3915,3.3997,3.3992,3.4011,3.4011,3.3611,3.2857,3.2089,3.1329,0.0,0.0,0.0,0.0,0.0,0.0,0.0,0.0,3.4129,3.4888,3.4913,3.5956,3.7191,3.7589,3.8703,4.0153,4.1622,4.2443,4.3221,4.4418,4.5808,4.6968,4.7251,4.7996,4.8866,4.9825,5.1356,5.2996,5.4538,5.5019,5.5426,5.6013,5.7106,5.8079,5.8694,5.977,6.072,6.1338,6.1416,0.0,0.0,0.0,0.0,0.0,0.0,0.0,0.0,6.6353,6.6508,6.6508,6.6508,6.6508,6.6508,6.6508,6.6508,6.6508,6.6508,6.6819,6.7402,6.7678,6.814,6.8684,6.8991,6.9434,7.0009,6.9981,7.0028,7.0006,6.9184,6.8844,6.8767,6.7915,6.7606,6.7489,0.0,0.0,0.0,0.0,0.0,0.0,0.0,0.0,0.0,0.0,0.0,0.0,0.0,0.0,0.0,0.0,0.0,0.0,2.6703,2.8265,2.9194,2.9194,2.9194,2.9194,2.9194,3.0766,3.1979,3.2798,3.361,3.3979,3.3979,3.3979,3.3979,3.3979,3.3979,3.4024,3.408,3.408,3.3678,3.2927,3.2192,3.1395,3.0586,0.0,0.0,0.0,0.0,0.0,0.0,0.0,3.415,3.4893,3.4993,3.5585,3.6472,3.7445,3.8371,3.9678,4.2213,4.2953,4.3423,4.5158,4.6245,4.7178,4.8107,4.893,4.9787,5.0717,5.2309,5.3772,5.4658,5.5508,5.6129,5.6172,5.7648,5.8814,5.881,6.0289,6.1416,6.1416,6.1416,0.0,0.0,0.0,0.0,0.0,0.0,0.0,0.0,6.6,6.6508,6.6508,6.6508,6.6508,6.6508,6.6508,6.6508,6.6508,6.6508,6.6508,6.6547,6.7402,6.7794,6.7833,6.8684,6.9069,6.9072,6.908,6.9123,6.9117,6.8217,6.7879,6.7804,6.6972,6.6709,6.6709,0.0,0.0,0.0,0.0,0.0,0.0,0.0,0.0,0.0,0.0,0.0,0.0,0.0,0.0,0.0,0.0,0.0,0.0,2.6703,2.8265,2.9194,2.9194,2.9264,2.928,2.928,3.088,3.2376,3.3647,3.3869,3.3979,3.3979,3.4067,3.4055,3.4055,3.4105,3.4136,3.4154,3.4203,3.3445,3.2197,3.2034,3.1144,2.9909,0.0,0.0,0.0,0.0,0.0,0.0,0.0,0.0,0.0,3.5052,3.5672,3.6564,3.7487,3.8418,3.9687,4.2257,4.2979,4.3423,4.5158,4.6707,4.791,4.8227,4.8951,5.0181,5.2274,5.3644,5.4658,5.5505,5.5891,5.6129,5.6172,5.7648,5.8814,5.881,6.0289,6.1416,6.1416,0.0,0.0,0.0,0.0,0.0,0.0,0.0,0.0,0.0,6.5145,6.5572,6.5572,6.6194,6.6508,6.6508,6.6508,6.6508,6.6508,6.6508,6.6508,6.6508,6.678,6.6897,6.6897,6.7169,6.7635,6.8183,6.8186,6.8211,6.8147,6.7324,6.7002,6.7025,6.6797,6.6694,6.6709,0.0,0.0,0.0,0.0,0.0,0.0,0.0,0.0,0.0,0.0,2.4294,2.4294,0.0,0.0,0.0,0.0,0.0,0.0,0.0,2.8333,2.9265,2.9265,2.9307,2.9487,2.9848,3.1187,3.2467,3.3685,3.3938,3.4062,3.4062,3.4105,3.4124,3.4124,3.4191,3.4258,3.4227,3.4323,3.3414,3.196,3.2019,3.1051,2.9584,0.0,0.0,0.0,0.0,0.0,0.0,0.0,0.0,0.0,3.5101,3.5483,3.6171,3.7445,3.818,3.9252,4.2206,4.3,4.3449,4.5184,4.6968,4.8441,4.9156,5.0004,5.1187,5.3107,5.4194,5.5045,5.5853,5.6062,5.6149,5.6176,5.7391,5.8443,5.8774,6.0017,6.1027,6.1377,0.0,0.0,0.0,0.0,0.0,0.0,0.0,0.0,0.0,6.4255,6.4718,6.4718,6.5534,6.5961,6.5961,6.6314,6.6508,6.6508,6.6508,6.6508,6.6508,6.6508,6.6508,6.6508,6.6508,6.6819,6.7289,6.7273,6.7284,6.7249,6.6782,6.6614,6.6675,6.6648,6.6672,6.6696,0.0,0.0,0.0,0.0,0.0,0.0,0.0,0.0,0.0,0.0,2.4321,2.4321,0.0,0.0,0.0,0.0,0.0,0.0,0.0,2.8525,2.9417,2.9417,2.9411,2.9829,3.0664,3.1485,3.2307,3.3192,3.3878,3.4234,3.4234,3.4234,3.4234,3.4203,3.4262,3.4323,3.4329,3.4393,3.3514,3.2136,3.2082,3.1134,2.972,2.971,0.0,0.0,0.0,0.0,0.0,0.0,0.0,0.0,3.5174,3.5204,3.5535,3.7305,3.786,3.8642,4.2066,4.3064,4.3525,4.5265,4.701,4.8762,5.0496,5.1641,5.2535,5.3347,5.4233,5.5122,5.5857,5.6125,5.618,5.6183,5.6989,5.7849,5.8583,5.9516,6.037,6.1183,0.0,0.0,0.0,0.0,0.0,0.0,0.0,0.0,0.0,6.3401,6.387,6.387,6.4679,6.5106,6.5106,6.5961,6.6392,6.6392,6.647,6.6508,6.6508,6.6508,6.6508,6.6508,6.6508,6.6508,6.6508,6.6508,6.6508,6.6512,6.6588,6.6602,6.6613,6.6607,6.6639,6.6708,0.0,0.0,0.0,0.0,0.0,0.0,0.0,0.0,0.0,0.0,0.0,0.0,0.0,0.0,0.0,0.0,0.0,0.0,0.0,2.8926,2.9486,2.9486,2.9491,2.9874,3.0664,3.0888,3.171,3.3192,3.3965,3.437,3.437,3.437,3.437,3.437,3.4381,3.4393,3.4393,3.4456,3.3911,3.2975,3.2364,3.1551,3.065,2.9963,2.9757,0.0,0.0,0.0,0.0,0.0,0.0,0.0,3.5196,3.5246,3.5621,3.7366,3.787,3.8643,4.2142,4.3106,4.3527,4.5273,4.6992,4.8759,5.0503,5.2105,5.327,5.3463,5.4697,5.5827,5.6054,5.6145,5.6191,5.6181,5.7006,5.7658,5.781,5.917,6.0176,6.037,0.0,0.0,0.0,0.0,0.0,0.0,0.0,0.0,6.1688,6.2507,6.2973,6.2973,6.3828,6.4255,6.4255,6.5067,6.5495,0.0,6.6155,6.6508,6.6508,6.6508,6.6508,6.6508,6.6508,6.6508,6.6508,6.6508,6.6508,6.6508,6.6516,6.6542,6.6609,6.6616,6.6604,6.6633,0.0,0.0,0.0,0.0,0.0,0.0,0.0,0.0,0.0,0.0,0.0,0.0,0.0,0.0,0.0,0.0,0.0,0.0,0.0,0.0,2.9526,2.9545,2.9545,2.9747,3.022,3.059,3.1221,3.2115,3.3323,3.4087,3.441,3.441,3.441,3.441,3.4439,3.445,3.4456,3.4517,3.4089,3.3296,3.2946,3.2272,3.1516,3.1157,3.1022,3.1104,3.1117,0.0,0.0,0.0,0.0,0.0,0.0,0.0,3.5649,3.7406,3.7897,3.8574,4.165,4.2771,4.3701,4.629,4.7662,4.879,5.0507,5.195,5.2999,5.3424,5.4813,5.602,5.6109,5.6153,5.6194,5.6192,5.666,5.711,5.7541,5.8354,5.9208,5.9985,0.0,0.0,0.0,0.0,0.0,0.0,0.0,6.1416,6.1416,6.1843,6.2076,6.2076,6.2934,6.3362,6.3362,6.4216,6.4644,6.4644,6.5495,6.6116,6.6508,6.6508,6.6508,6.6508,6.6508,6.6508,6.6508,6.6508,6.6508,6.6508,6.6508,6.652,6.6538,6.6538,6.6563,6.6598,0.0,0.0,0.0,0.0,0.0,0.0,0.0,0.0,0.0,0.0,0.0,0.0,0.0,0.0,0.0,0.0,0.0,0.0,0.0,0.0,0.0,2.9617,2.9612,2.9631,2.972,3.034,3.0743,3.0893,3.2437,3.3553,3.4214,3.4364,3.4439,3.4444,3.4495,3.4517,3.4517,3.4577,3.4223,3.3622,3.3529,3.3069,3.2453,3.2396,3.2395,3.2404,3.2402,3.3019,3.3789,3.3794,0.0,0.0,0.0,0.0,3.5622,3.7391,3.7917,3.8508,4.1119,4.2556,4.4118,4.7283,4.8253,4.8817,5.0322,5.1486,5.2418,5.3115,5.4619,5.587,5.6078,5.6157,5.6194,5.6202,5.6275,5.6567,5.7266,5.7502,5.8121,5.9519,0.0,0.0,0.0,0.0,0.0,0.0,0.0,6.1416,6.1416,6.1416,6.1416,6.1416,6.2115,6.2468,6.2468,6.3323,6.3793,6.3793,6.4605,6.5456,6.6275,6.6275,6.6353,6.6508,6.6508,6.6508,6.6508,6.6508,6.6508,6.6508,6.6508,6.6508,6.6508,6.6508,6.6531,6.6595,0.0,0.0,0.0,0.0,0.0,0.0,0.0,0.0,0.0,0.0,2.5792,2.6089,0.0,0.0,0.0,0.0,0.0,0.0,2.9542,0.0,0.0,2.9773,2.9704,2.969,2.9699,2.9804,3.019,3.0893,3.1837,3.2695,3.3543,3.4261,3.4567,3.4567,3.4572,3.4577,3.4583,3.4674,3.4625,3.448,3.3772,3.3482,3.3337,3.2646,3.2409,3.2402,3.2488,3.3067,3.3798,3.3883,3.4458,0.0,0.0,0.0,3.5657,3.7398,3.7936,3.855,4.1166,4.3081,4.4807,4.6787,4.7846,4.8662,4.9626,5.1061,5.2225,5.2341,5.373,5.5225,5.604,5.6176,5.6205,5.6275,5.6291,5.6333,5.645,5.711,5.7696,5.793,0.0,0.0,0.0,0.0,0.0,0.0,6.1416,6.1416,6.1416,6.1416,6.1416,6.1416,6.1494,6.1571,6.1571,6.2426,6.2857,6.2896,6.375,6.4605,6.5378,6.5378,6.5805,6.6508,6.6508,6.6508,6.6508,6.6508,6.6508,6.6508,6.6508,6.6508,6.6508,6.6508,6.6512,6.6516,0.0,0.0,0.0,0.0,0.0,0.0,0.0,0.0,0.0,0.0,0.0,2.6855,0.0,0.0,0.0,2.8542,2.9011,2.9435,2.9766,2.9803,2.9803,2.9803,2.9786,2.9739,2.9739,2.9755,2.993,3.0264,3.1097,3.1925,3.2786,3.3619,3.4211,3.4674,3.4674,3.469,3.4721,3.4747,3.4758,3.4725,3.4398,3.4282,3.4306,3.3923,3.3813,3.385,3.3872,3.4195,3.4603,3.4624,3.4902,3.5269,3.5308,0.0,0.0,0.0,3.7996,3.8676,4.1786,4.3191,4.4323,4.6528,4.7773,4.8624,4.9513,5.0635,5.1602,5.2109,5.2805,5.3797,5.5199,5.5869,5.6205,5.6282,5.6295,5.6295,5.6295,5.6644,5.7033,5.7541,0.0,0.0,0.0,0.0,0.0,0.0,6.0681,6.0872,6.1377,6.1416,6.1416,6.1416,6.1416,6.1416,6.1416,6.1765,6.2232,6.2701,6.309,6.3711,6.4527,6.499,6.5689,6.6508,6.6508,6.6508,6.6508,6.6508,6.6508,6.6508,6.6508,6.6508,6.6508,6.6508,6.6508,6.6508,0.0,0.0,0.0,0.0,0.0,0.0,0.0,0.0,0.0,0.0,0.0,0.0,0.0,0.0,0.0,0.0,2.9498,2.9838,2.9838,2.9838,2.9838,2.9838,2.9829,2.9825,2.9825,2.9812,2.9803,2.9803,3.06,3.1463,3.2326,3.3118,3.3943,3.4752,3.4737,3.4758,3.4793,3.4809,3.4814,3.4819,3.4873,3.4903,3.4917,3.4913,3.4959,3.5043,3.5052,3.5106,3.5204,3.5225,3.5275,3.5296,3.5308,3.5345,0.0,0.0,0.0,3.9286,4.2131,4.3066,4.3758,4.5912,4.727,4.8314,4.9165,5.0012,5.0825,5.1679,5.2032,5.2636,5.3986,5.5129,5.5895,5.5971,5.6175,5.6295,5.6295,5.6295,5.6528,5.7188,0.0,0.0,0.0,0.0,0.0,0.0,5.9788,6.006,6.0717,6.0755,6.0833,6.1066,6.1066,6.1183,6.1416,6.1416,6.1727,6.2387,6.2387,6.2818,6.3673,6.429,6.5029,6.5887,6.6314,6.6508,6.6508,6.6508,6.6508,6.6508,6.6508,6.6508,6.6508,6.6508,6.6508,6.6508,0.0,0.0,0.0,0.0,0.0,0.0,0.0,0.0,0.0,0.0,0.0,0.0,2.9581,2.9775,2.9843,2.9843,2.9872,2.9888,2.9888,2.9888,2.9888,2.9888,2.9897,0.0,2.9881,2.9829,2.9803,2.9803,3.06,3.1463,3.2326,3.3118,3.3983,3.4901,3.4814,3.4793,3.4798,3.4886,3.4906,3.4911,3.4884,3.4931,3.4978,3.4978,3.5048,3.5097,3.5179,3.5196,3.5213,3.5257,3.5285,3.5304,3.538,3.5405,3.5723,0.0,0.0,0.0,4.1788,4.2672,4.3514,4.4481,4.5955,4.7389,4.8275,4.9126,4.9974,5.0786,5.1602,5.2241,5.2403,5.3835,5.5007,5.5074,5.5747,5.6295,5.6295,5.6295,5.6333,5.6372,0.0,0.0,0.0,0.0,0.0,0.0,5.8852,5.8891,5.893,5.893,5.9322,6.0137,6.0176,6.0565,6.1377,6.1416,6.1416,6.1455,6.1455,6.1921,6.2779,6.2818,6.3323,6.422,6.5809,6.6508,6.6508,6.6508,6.6508,6.6508,6.6508,6.6508,6.6508,6.6508,6.6508,6.6508,0.0,0.0,0.0,0.0,0.0,0.0,0.0,0.0,0.0,0.0,0.0,0.0,0.0,3.0003,3.0011,3.0011,3.0022,3.0026,3.0026,3.0026,3.0026,3.0026,2.9987,2.9963,2.9963,2.9914,2.9847,2.9847,3.0154,3.0986,3.2386,3.2651,3.3535,3.4917,3.4868,3.4863,3.4855,3.4874,3.4903,3.4969,3.495,3.4987,3.5066,3.5066,3.5097,3.5179,3.5196,3.5238,3.5287,3.5281,3.5324,3.5369,3.5398,3.5769,3.6566,3.8341,3.9662,4.0791,4.1752,4.2211,4.2821,4.4249,4.5452,4.65,4.7389,4.8237,4.9126,4.9974,5.0364,5.0767,5.135,5.2901,5.4104,5.4155,5.4414,5.4818,5.5398,5.5476,5.567,5.6214,0.0,0.0,0.0,0.0,0.0,0.0,0.0,5.8273,5.8774,5.8813,5.8933,5.9244,5.9283,5.9671,6.0565,6.0565,6.0833,6.1416,6.1416,6.1571,6.1882,6.2426,6.2857,6.3245,6.4372,6.5188,6.5728,6.6275,6.6508,6.6508,6.6508,6.6508,6.6508,6.6508,6.6508,6.6508,0.0,0.0,0.0,0.0,0.0,0.0,0.0,0.0,0.0,3.0118,0.0,0.0,0.0,0.0,3.0118,3.0118,3.0118,3.0118,3.0118,3.0118,3.0118,3.0118,3.0049,3.003,3.003,2.9999,2.9983,2.9983,2.9983,3.0818,3.245,3.245,3.3365,3.4959,3.4965,3.496,3.4936,3.495,3.4978,3.5043,3.5043,3.5227,3.5533,3.5533,3.5755,3.6027,3.6044,3.6086,3.6135,3.6166,3.6213,3.6257,3.6268,3.6877,3.7802,3.8996,3.996,4.077,4.1422,4.1799,4.2357,4.3785,4.4794,4.5687,4.6848,4.7544,4.8198,4.9088,4.9243,4.9521,5.0402,5.1523,5.2496,5.3165,5.3505,5.3912,5.4465,5.4543,5.4776,5.5362,5.544,0.0,0.0,0.0,0.0,0.0,0.0,0.0,5.7923,5.7962,5.8078,5.8389,5.8661,5.9088,5.9671,5.9671,6.0099,6.095,6.095,6.1105,6.1416,6.1999,6.227,6.2309,6.3206,6.4178,6.5223,6.5805,6.6237,6.6508,6.6508,6.6508,6.6508,6.6508,6.6508,6.6508,0.0,0.0,0.0,0.0,0.0,0.0,0.0,0.0,3.016,3.016,0.0,0.0,0.0,0.0,0.0,3.0198,3.0198,3.016,3.016,3.016,3.0122,3.0083,3.008,3.0118,3.0118,3.0118,3.0118,3.0118,3.0118,3.0952,3.2585,3.2585,3.3498,3.5092,3.5092,3.507,3.503,3.5075,3.5092,3.5135,3.5135,3.5656,3.6454,3.6454,3.6947,3.7721,3.7764,3.7819,3.7797,3.7886,3.7913,3.792,3.7996,3.861,3.9301,3.9423,4.004,4.0726,0.0,0.0,0.0,4.305,4.3901,4.4984,4.6651,4.7041,4.7312,4.8198,4.8353,4.8624,4.9513,4.9663,5.0259,5.1991,5.3052,5.3612,5.3647,5.3653,5.3653,5.3692,5.3692,0.0,0.0,0.0,0.0,0.0,5.6217,5.6217,5.6256,5.6295,5.6683,5.7541,5.8311,5.8735,5.8774,5.8774,5.9205,6.006,6.006,6.0526,6.1377,6.1377,6.1377,6.1455,6.227,6.3591,6.5145,6.5184,6.5689,6.647,6.6508,6.6508,6.6508,6.6508,6.6508,6.6508,0.0,0.0,0.0,0.0,0.0,3.2049,3.2049,3.2063,3.2045,0.0,0.0,0.0,3.1981,3.1981,3.1981,3.1981,3.1981,3.1718,3.1149,3.1111,3.0844,3.0198,3.0128,3.0109,3.0109,3.0091,3.0118,3.0118,3.0118,3.0952,3.2585,3.2585,3.3498,3.5092,3.5166,3.5174,3.5123,3.5101,3.5453,3.6055,3.6055,3.6544,3.7351,3.7351,3.753,3.7764,3.7776,3.7822,3.7882,3.7905,3.7932,3.8077,3.8729,3.9094,3.9424,4.0145,4.0516,4.0726,4.0765,0.0,0.0,0.0,0.0,0.0,4.5023,4.5722,4.6422,4.7273,4.7467,4.7734,4.8585,4.8751,4.8928,4.948,5.0826,5.2058,5.2677,5.2758,5.3003,5.3611,5.3692,0.0,0.0,0.0,0.0,0.0,5.443,5.4702,5.532,5.5942,5.6411,5.6644,5.6874,5.7301,5.7926,5.7926,5.8354,5.9166,5.9166,5.9632,6.0448,6.0448,6.0794,6.1416,6.1649,6.2387,6.3475,6.4718,6.5339,6.5611,6.6237,6.6508,6.6508,6.6508,6.6508,6.6508,0.0,0.0,0.0,3.2799,3.2799,3.2799,3.2799,3.282,3.2806,0.0,0.0,0.0,3.2755,3.2755,3.2755,3.2755,3.2755,3.2529,3.2074,3.2059,3.1823,3.1325,3.0862,3.0646,3.0684,3.0326,3.0124,3.0124,3.0505,3.1344,3.2633,3.3018,3.3895,3.5149,3.5179,3.5238,3.5254,3.5577,3.5984,3.648,3.685,3.7525,3.8286,3.8261,3.8512,3.8878,3.8903,3.8944,3.8988,3.8973,3.9042,0.0,3.9672,3.9855,4.0006,4.0552,4.0729,4.0746,4.081,4.0816,4.1006,4.1816,0.0,0.0,4.3862,4.4717,4.5452,4.5955,4.6303,4.6809,4.7695,4.785,4.7973,4.8382,4.9294,5.0298,5.1202,5.1338,5.1629,5.2505,5.2634,0.0,0.0,5.3148,5.3303,5.3653,5.3692,5.3925,5.4427,5.4935,5.5362,5.5747,5.5747,5.6175,5.7033,5.7072,5.7499,5.8311,5.8311,5.8739,5.9555,5.9943,6.037,6.0872,6.1222,6.1688,6.227,6.3591,6.4562,6.5262,6.5767,6.6194,6.6508,6.6508,6.6508,6.6508,0.0,0.0,3.3116,3.3116,3.3116,3.3116,3.3116,3.3074,3.3071,0.0,3.3067,3.3064,3.3064,3.3064,3.3064,3.3064,3.3064,3.3025,3.2952,3.2959,3.2903,3.2788,3.2017,3.1571,3.1651,3.089,3.047,3.047,3.1269,3.2068,3.2867,3.3639,3.4442,3.5202,3.5202,3.5299,3.5488,3.6376,3.6773,3.6846,3.7615,3.8478,3.9257,3.9252,3.9802,4.0539,4.0619,4.064,4.0614,4.0542,4.0542,0.0,0.0,4.0665,4.072,4.0723,4.0749,4.0816,4.0816,4.0816,4.0968,4.1699,4.1932,0.0,4.2976,4.3824,4.4442,4.4442,4.5026,4.5803,4.6654,4.6809,4.7115,4.7966,4.8121,4.8456,4.9497,4.9653,4.9947,5.073,5.0871,0.0,5.1901,5.1979,5.2332,5.3225,5.3458,5.3575,5.3575,5.3653,5.4041,5.4815,5.4854,5.5281,5.6136,5.6175,5.6605,5.7463,5.7463,5.7887,5.87,5.9477,5.9908,6.0137,6.0911,6.1299,6.1455,6.2232,6.3475,6.4951,6.5145,6.5689,6.6353,6.647,6.6508,6.6508,0.0,3.4487,3.4983,3.4983,3.4983,3.4983,3.4983,3.492,3.4899,3.4899,3.4835,3.4813,3.4813,3.4813,3.4813,3.4813,3.4813,3.4549,3.3904,3.3858,3.351,3.2827,3.2624,3.2544,3.2544,3.2391,3.2279,3.2279,3.2468,3.3001,3.384,3.3994,3.4526,3.5285,3.5285,3.5676,3.6416,3.7297,3.8018,3.8627,3.8788,3.9363,4.0168,4.0138,4.0705,4.1434,4.1443,4.1506,4.1462,4.0812,4.06,4.0618,0.0,0.0,0.0,4.0755,0.0,4.0816,4.0816,4.0816,0.0,0.0,0.0,0.0,4.2202,4.2937,4.3553,4.3553,4.3672,4.4059,4.4945,4.51,4.5374,4.6151,4.6306,4.6862,4.853,4.8737,4.8842,4.9054,4.9105,0.0,4.9337,4.9337,4.969,5.0586,5.1904,5.264,5.264,5.3303,5.3769,5.3964,5.3964,5.4352,5.5242,5.5242,5.5709,5.6567,5.6567,5.6994,5.7849,5.8004,5.882,6.0102,6.0293,6.0759,6.1416,6.1571,6.227,6.3319,6.4679,6.53,6.5534,6.6237,6.6508,6.6508,3.4915,3.5255,3.556,3.556,3.5868,3.6138,3.6138,3.6496,3.6741,3.6741,3.6706,3.6642,3.6642,3.6642,3.6484,3.6023,3.5985,3.5678,3.4836,3.478,3.4539,3.4121,3.3684,3.3447,3.3447,3.3029,3.2799,3.2799,3.3255,3.3674,3.4092,3.451,3.4928,3.5308,3.5733,3.6209,3.6727,3.7997,3.8815,3.9215,3.9656,4.0296,4.1063,4.1084,4.1647,4.2402,4.2402,4.2427,4.239,4.2013,4.1615,0.0,4.1324,4.1077,4.0752,0.0,4.0816,4.0816,0.0,0.0,0.0,4.0816,0.0,0.0,0.0,4.2048,4.2667,4.2667,4.3015,4.3437,4.3862,4.394,4.4094,4.4485,4.4562,4.4878,4.5785,4.7045,4.8037,4.85,4.8573,0.0,4.8615,4.8591,4.8794,4.9224,5.004,5.0697,5.1127,5.1555,5.2176,5.3031,5.3031,5.3458,5.4349,5.4349,5.4776,5.5631,5.5631,5.6097,5.6955,5.7386,5.8043,5.8898,5.9752,6.0332,6.0798,6.1222,6.1649,6.2193,6.3475,6.4446,6.5262,6.5689,6.6116,6.6508,3.589,3.5964,3.608,3.608,3.662,3.7041,3.7041,3.7639,3.8085,3.8085,3.8054,3.8033,3.8033,3.8025,3.7752,3.7018,3.6969,3.6657,3.6,3.578,3.5647,3.5647,3.4819,3.4382,3.4382,3.3698,3.3315,3.3315,3.4002,3.4382,3.4382,3.5027,3.5407,3.5603,3.6297,3.6853,3.7309,3.8627,3.9458,3.9869,4.0496,4.1164,4.1732,4.1966,4.2597,4.3333,4.3379,4.3365,4.3366,4.3254,4.2785,4.2226,4.2233,4.1793,0.0,0.0,0.0,0.0,0.0,0.0,0.0,0.0,0.0,4.0816,0.0,0.0,0.0,4.1777,4.2318,4.286,4.3015,4.3053,0.0,4.3282,0.0,0.0,0.0,4.5131,0.0,4.7439,4.7572,0.0,4.7586,4.7886,4.8172,4.8327,4.8522,4.8913,4.9612,4.9809,5.0506,5.1866,5.2096,5.2562,5.3458,5.3458,5.3886,5.4737,5.4929,5.5359,5.6097,5.6955,5.7425,5.7696,5.9014,5.9791,6.0137,6.0872,6.126,6.1494,6.2348,6.3514,6.4757,6.5067,6.565,6.6275,3.6822,3.7276,3.7816,3.7816,3.7894,3.7932,3.7932,3.8045,3.8119,3.8119,3.8077,3.8073,3.8073,3.8085,3.8068,3.7952,3.7879,3.7815,3.7738,3.7,3.6535,3.6535,3.5762,3.5336,3.5336,3.5259,3.5182,3.5182,3.5297,3.5336,3.5336,3.5409,3.5874,3.6566,3.6643,3.7535,3.9008,3.9191,4.0172,4.1609,4.1716,4.1763,4.1885,4.2664,4.3493,4.4271,4.4311,4.4326,4.4222,0.0,4.3157,4.3087,0.0,4.3089,4.286,4.2086,0.0,0.0,0.0,0.0,0.0,0.0,4.0816,0.0,0.0,0.0,4.0929,4.0929,0.0,4.1316,4.2009,0.0,0.0,0.0,0.0,0.0,4.3282,4.356,4.3805,4.3953,4.4005,0.0,0.0,4.5401,4.6621,4.7392,4.8172,4.8638,4.8755,4.9496,5.0004,5.0195,5.093,5.1746,5.2523,5.2562,5.2992,5.3847,5.4621,5.5045,5.5165,5.6058,5.6877,5.7619,5.7813,5.8742,6.0102,6.0215,6.072,6.1494,6.2348,6.2818,6.3164,6.464,6.5262,6.5456,3.7805,3.7905,3.8176,3.8176,3.8569,3.8919,3.8919,3.9322,3.9573,3.9553,3.9549,3.9549,3.9549,3.9539,3.9378,3.8915,3.8821,3.8618,0.0,3.7728,3.7497,3.7497,3.7188,3.6764,3.6263,3.6263,3.6032,3.557,3.557,3.5801,3.6263,3.6263,3.6687,3.7535,3.804,3.8656,3.9427,4.0405,4.1222,4.1997,4.3018,4.3389,4.3397,4.3763,4.4427,4.5163,4.5245,4.526,4.519,0.0,4.439,0.0,0.0,0.0,0.0,4.286,0.0,0.0,0.0,0.0,0.0,0.0,0.0,0.0,4.0816,0.0,4.0816,0.0,0.0,0.0,0.0,0.0,0.0,0.0,4.1857,0.0,0.0,0.0,4.1667,0.0,0.0,0.0,0.0,0.0,0.0,0.0,4.6191,4.6812,4.7784,4.8172,4.8638,4.9146,5.0001,5.0622,5.0933,5.1435,5.2135,5.2953,5.33,5.4038,5.5006,5.5398,5.6019,5.6877,5.7386,5.8007,5.8703,5.9713,6.0332,6.072,6.161,6.2232,6.2857,6.4061,6.4795,6.5339,3.9378,3.9087,3.8923,3.8923,3.9426,3.9926,4.0158,4.0868,4.1383,4.1359,4.1356,4.1356,4.1356,4.131,4.1072,4.0496,4.0216,3.9823,0.0,3.8704,3.8472,3.8472,3.8241,3.7816,3.7157,3.7157,3.689,3.6273,3.6273,3.6582,3.7157,3.7157,3.7623,3.8472,3.9128,3.9669,4.017,4.1412,4.2191,4.2732,4.4017,4.4677,4.487,4.4862,4.521,4.5723,4.5792,4.5803,4.5806,4.5796,4.5416,0.0,4.4945,0.0,4.3943,0.0,0.0,0.0,4.2589,0.0,0.0,0.0,0.0,0.0,0.0,0.0,0.0,0.0,0.0,0.0,0.0,0.0,0.0,0.0,0.0,4.0349,0.0,3.9536,0.0,0.0,0.0,0.0,0.0,0.0,0.0,0.0,0.0,4.5064,4.6538,4.681,4.7356,4.8211,4.9107,4.9651,4.9887,5.0542,5.1241,5.2057,5.229,5.3067,5.431,5.4773,5.5359,5.5981,5.6877,5.7386,5.7696,5.917,5.9865,6.0176,6.1066,6.1804,6.2465,6.3323,6.4178,6.499,4.184,4.1305,4.0736,4.0736,4.0754,4.1006,4.1816,4.2663,4.3205,4.3201,4.3201,4.3201,4.3201,4.3178,4.3122,4.3083,4.2314,4.183,4.1791,0.0,3.936,3.936,0.0,3.8086,3.8048,3.8048,3.8048,3.8009,3.8009,3.8048,3.8048,3.8048,3.8511,3.936,3.9398,4.0286,4.183,4.1939,4.2922,4.4436,4.4545,4.5061,4.5758,0.0,4.5771,4.58,4.5803,0.0,0.0,4.5803,4.5765,0.0,0.0,0.0,0.0,0.0,0.0,0.0,0.0,0.0,0.0,4.2164,0.0,0.0,0.0,0.0,4.0816,0.0,0.0,0.0,0.0,0.0,0.0,0.0,0.0,0.0,0.0,0.0,0.0,0.0,0.0,0.0,0.0,0.0,0.0,0.0,0.0,0.0,4.4831,4.5611,4.6427,4.7315,4.8172,4.9068,4.9887,4.9926,5.0389,5.1238,5.2018,5.2445,5.2523,5.4232,5.5006,5.5084,5.5942,5.6838,5.7658,5.8506,5.9322,6.0176,6.1066,6.1416,6.1532,6.2426,6.3284,6.4139,4.298,4.2762,4.2505,4.2523,4.2512,4.2613,4.286,4.3166,4.335,4.3324,4.3282,4.3282,4.3282,4.3275,4.3269,4.3269,4.2988,4.2826,4.2826,4.2285,0.0,4.1976,4.1164,4.0433,0.0,3.9312,3.8732,3.8185,3.8185,3.8459,3.9045,3.9045,3.9506,4.0356,4.0894,4.1435,4.2053,4.3223,4.4039,4.4661,4.5796,4.6419,4.6654,0.0,0.0,4.6732,4.7312,4.7505,0.0,4.6848,4.6654,4.6577,4.5997,4.5803,4.5765,4.5455,4.5378,0.0,0.0,0.0,4.394,4.3092,0.0,0.0,0.0,0.0,0.0,0.0,0.0,0.0,0.0,0.0,0.0,0.0,0.0,0.0,0.0,0.0,0.0,0.0,0.0,0.0,0.0,0.0,0.0,0.0,0.0,0.0,0.0,4.4753,4.5336,4.5647,4.7007,4.79,4.8172,4.9301,5.004,5.035,5.1202,5.1863,5.2445,5.3614,5.4465,5.5045,5.5903,5.6489,5.68,5.7654,5.8506,5.9322,6.0215,6.0872,6.1494,6.2387,6.2896,6.3323,4.3896,4.3925,4.379,4.3449,4.3668,4.3844,4.3862,4.4091,4.4279,4.4218,4.4215,4.4331,4.4641,4.4395,4.435,4.466,4.4105,4.3746,4.3746,4.3476,0.0,4.3282,4.2744,4.2202,0.0,0.0,4.0426,3.9569,3.9569,3.9688,3.9965,4.0274,4.0697,4.1277,4.2086,4.2628,4.3015,4.4108,4.4772,4.5163,4.657,4.7312,0.0,0.0,4.7886,4.7682,0.0,4.8435,4.8358,4.778,4.7587,4.7467,4.6563,4.6288,4.6246,4.5888,4.5803,4.5687,4.5181,4.5026,0.0,4.3978,4.3321,0.0,4.2125,0.0,0.0,0.0,0.0,0.0,0.0,0.0,0.0,0.0,0.0,0.0,0.0,3.6826,0.0,0.0,0.0,0.0,0.0,0.0,0.0,0.0,0.0,0.0,0.0,0.0,4.4173,4.4792,4.5841,4.6693,4.7276,4.8716,4.9573,4.9926,5.0775,5.1474,5.2018,5.2837,5.3692,5.4582,5.5476,5.6019,5.6372,5.7227,5.8082,5.8891,5.9749,6.0642,6.1455,6.2037,6.2426,6.2934,4.4834,4.4989,4.4709,4.379,4.4303,4.4823,4.49,4.552,4.6028,4.6028,4.6025,4.6335,4.7185,4.6539,4.6364,4.7174,4.5747,4.4797,4.4797,4.3985,0.0,0.0,4.3405,4.3366,4.3366,0.0,0.0,4.2054,4.2054,4.1667,4.0935,4.1706,4.2054,4.2093,4.2979,4.383,4.4604,4.4637,4.516,4.6058,4.6978,4.7808,4.8664,4.9517,4.9339,4.8614,4.8613,4.8626,4.8626,4.8587,4.8548,4.8425,4.7536,4.7252,4.7094,4.613,4.5888,4.5849,4.5807,4.5807,4.5613,4.4829,0.0,0.0,0.0,0.0,4.1777,0.0,0.0,0.0,0.0,0.0,0.0,0.0,0.0,0.0,0.0,0.0,3.5706,0.0,0.0,3.7185,0.0,0.0,0.0,0.0,0.0,0.0,0.0,0.0,4.2969,4.4676,4.4792,4.5569,4.7237,4.8094,4.8952,4.9848,5.0736,5.116,5.1238,5.2018,5.2876,5.373,5.4621,5.5476,5.6372,5.7188,5.8004,5.8817,5.971,6.0604,6.1416,6.1416,6.196,6.2934,4.7585,4.7603,4.755,4.7309,4.6912,4.686,4.7499,4.7768,4.7878,4.7853,4.7811,4.7928,4.8157,4.7957,4.7915,4.8147,4.775,0.0,0.0,0.0,0.0,4.619,4.5028,4.4327,4.4327,4.371,4.3248,4.3054,4.3054,4.2938,4.2744,4.2938,4.3054,4.3093,4.3943,4.4443,4.4715,4.5308,4.609,4.702,4.8538,4.9282,4.9556,0.0,5.0633,5.0429,5.0448,5.0441,5.0325,4.9669,4.9475,4.932,4.8458,4.8186,4.7989,4.7085,4.6849,4.6691,4.6045,4.5883,4.5799,4.5578,4.5026,4.4481,0.0,0.0,0.0,0.0,0.0,0.0,0.0,0.0,0.0,0.0,0.0,0.0,0.0,0.0,0.0,3.5706,0.0,0.0,0.0,0.0,0.0,0.0,0.0,0.0,0.0,0.0,0.0,4.3819,4.4443,4.5297,4.631,4.7201,4.8055,4.8952,4.9807,5.0581,5.1238,5.2018,5.2876,5.373,5.4621,5.5476,5.6333,5.6528,5.7149,5.8004,5.8817,6.0056,6.1416,6.1416,6.196,6.2857,4.8665,4.865,4.8751,4.9126,4.8774,4.8452,4.858,4.8615,4.861,4.8553,4.855,4.8705,4.9057,4.8774,4.8687,4.9036,4.8713,0.0,4.8509,0.0,0.0,4.7769,4.6878,4.6177,4.5789,4.5324,0.0,4.3967,4.3967,4.3776,4.3427,4.3776,4.3967,4.4005,4.4858,4.544,4.5866,4.6699,4.7568,4.8472,4.9443,5.0063,0.0,5.0975,5.1136,5.1133,5.1153,5.1144,5.1066,5.0565,5.041,5.0254,4.9349,4.9075,4.8916,4.8008,4.7769,4.7572,4.67,4.6461,4.6377,4.5954,4.5518,4.5085,4.4678,4.3824,4.2937,0.0,0.0,0.0,0.0,0.0,0.0,0.0,0.0,0.0,0.0,0.0,0.0,0.0,3.5706,0.0,0.0,0.0,0.0,0.0,0.0,0.0,0.0,0.0,0.0,4.2889,4.3782,4.4637,4.5455,4.6696,4.7742,4.8599,4.9496,5.035,5.1238,5.1668,5.2523,5.373,5.4235,5.5126,5.6295,5.6295,5.68,5.7735,5.8894,6.0212,6.1416,6.1416,6.1727,6.227,4.9199,4.9194,4.9457,5.0286,5.0397,5.0156,4.9393,4.9071,0.0,4.9066,0.0,4.9418,5.0314,4.9706,4.9535,5.0237,4.9511,4.9026,4.9026,4.8794,4.8677,4.8677,4.8561,4.817,4.7391,4.7391,4.6654,0.0,4.5219,4.4834,4.41,4.4873,4.5219,4.5258,4.592,4.6657,4.7433,4.8395,4.9201,4.9926,5.0001,5.0503,5.1199,5.1199,5.1199,5.1199,5.1199,5.1199,5.1199,5.1199,5.1199,5.1041,5.0243,4.9962,4.9804,4.8958,4.8677,4.8483,4.7621,4.7385,4.7185,4.63,4.6058,4.5851,4.4962,4.4678,4.4133,4.2512,4.2086,4.1738,0.0,0.0,0.0,0.0,0.0,0.0,0.0,0.0,0.0,0.0,0.0,0.0,0.0,0.0,0.0,0.0,0.0,0.0,0.0,0.0,0.0,4.2153,4.3044,4.3935,4.4792,0.0,4.7628,4.8599,4.9379,5.0234,5.1199,5.1199,5.2057,5.3536,5.3653,5.4624,5.6136,5.6256,5.6877,5.7887,5.9364,6.0526,6.1416,6.1416,6.1416,6.1532,5.1793,5.1889,5.2106,5.2957,5.3112,5.3071,5.291,5.1664,5.0969,5.1668,5.1746,5.206,5.2953,5.2912,5.287,5.2986,5.2203,0.0,0.0,0.0,0.0,4.9637,4.8974,4.8508,4.8352,4.8352,4.8197,0.0,0.0,4.7847,4.7692,4.7847,4.7925,4.7925,4.8042,4.8197,4.8391,4.9293,0.0,4.9962,5.0697,5.1047,5.1199,5.1199,5.1199,5.1199,5.1199,5.1199,5.1199,5.1199,5.1199,5.116,5.1002,5.096,5.0766,4.9909,4.9637,4.9476,4.8595,4.8353,4.8114,4.7185,4.6962,4.6745,4.589,4.5124,4.4326,4.3282,4.2512,4.1738,4.0968,0.0,0.0,0.0,0.0,0.0,0.0,0.0,0.0,0.0,0.0,3.5706,0.0,0.0,0.0,0.0,0.0,0.0,0.0,0.0,0.0,0.0,4.3044,0.0,0.0,0.0,4.7048,4.8599,4.8755,4.9648,5.1199,5.1199,5.1707,5.2681,5.3381,5.4274,5.5281,5.5981,5.7185,5.8622,5.8894,6.0017,6.1416,6.1416,6.1416,6.1532,5.3176,5.3243,5.3348,5.3726,5.3801,0.0,0.0,5.3097,5.2683,5.3094,5.313,5.3279,5.3656,5.3692,5.3692,5.3692,5.3303,5.307,5.307,5.2332,5.1671,5.1205,5.0775,5.0153,4.9301,4.9263,4.9068,4.8599,0.0,0.0,4.8599,4.8599,4.8599,4.8638,4.9068,4.9263,4.934,0.0,0.0,5.0619,5.1047,5.1199,5.1199,5.1199,5.1199,5.1199,5.1199,5.1199,5.1199,5.1199,5.1199,5.1199,5.1199,5.1199,5.1125,5.0697,5.0581,5.0384,4.9517,4.9281,4.9078,4.8153,4.7588,4.7143,4.6662,4.5896,4.5015,4.4163,4.3295,4.228,4.1045,3.9379,0.0,0.0,0.0,0.0,0.0,0.0,0.0,0.0,0.0,0.0,0.0,0.0,0.0,0.0,0.0,0.0,0.0,0.0,0.0,0.0,0.0,0.0,0.0,0.0,0.0,4.7939,4.8366,4.926,5.0542,5.1008,5.163,5.2445,5.3303,5.4197,5.5084,5.5942,5.7033,5.8237,5.8622,5.959,6.0794,6.1222,6.1416,6.1455,5.4123,5.4162,5.4236,5.4338,5.4374,5.4368,5.4385,5.4383,5.4292,5.41,5.4094,5.4125,5.426,5.4257,5.4257,5.4257,5.4095,5.3976,5.3976,5.3814,5.3381,5.272,5.2681,5.206,5.0742,5.0545,5.0117,0.0,0.0,0.0,0.0,4.9143,4.9143,4.9182,4.9854,0.0,0.0,0.0,5.1569,5.1766,5.1766,5.1766,5.1766,5.1766,5.1761,5.1755,5.1755,5.1752,5.1746,5.1746,5.1474,5.1199,5.1199,5.1199,5.1199,5.1199,5.1199,5.1047,5.035,5.0195,4.9956,4.9078,4.8368,4.7732,4.7317,4.6668,4.5867,4.4857,4.3783,4.2599,4.1087,3.9533,0.0,0.0,0.0,0.0,0.0,0.0,0.0,0.0,0.0,0.0,3.5706,0.0,0.0,0.0,0.0,0.0,0.0,0.0,0.0,0.0,0.0,4.3508,4.3508,0.0,4.6427,0.0,4.8172,4.9068,4.9926,5.0814,5.1552,5.2212,5.3264,5.4313,5.532,5.6019,5.68,5.7696,5.8506,5.9322,6.0215,6.1066,6.1416,6.1416,5.4903,5.5098,5.5331,5.6113,0.0,5.6269,5.6267,5.6267,5.5937,5.5107,5.4983,5.5294,5.6069,5.6147,5.6147,5.6147,5.5383,5.4899,5.4899,5.4134,5.3653,5.3575,5.3575,5.3497,5.3345,5.2565,5.2135,0.0,0.0,0.0,0.0,0.0,0.0,0.0,0.0,0.0,0.0,5.2321,5.2837,5.3577,5.3577,5.3577,5.3577,5.3577,5.3561,5.3575,5.3575,5.3518,5.3458,5.3458,5.2445,5.1199,5.1199,5.1199,5.1199,5.1199,5.1199,5.116,5.1083,5.1086,5.0853,4.9998,4.9667,4.918,4.7657,4.7165,4.6636,4.5007,4.3358,4.1934,4.0974,4.0004,3.9111,0.0,0.0,0.0,0.0,0.0,3.5706,3.5706,0.0,0.0,0.0,3.5706,0.0,0.0,3.5769,0.0,0.0,0.0,0.0,4.0869,0.0,4.3508,4.3508,4.5144,4.6427,4.7315,4.8172,4.9068,4.9926,5.0814,5.1238,5.1396,5.2992,5.4624,5.6175,5.6256,5.68,5.7696,5.8506,5.9322,6.0215,6.1066,6.1416,6.1416,0.0,0.0,0.0,0.0,0.0,0.0,0.0,5.7985,5.7862,5.7493,5.6541,5.6018,5.6352,5.6389,5.6389,5.6389,5.6067,5.5825,5.5825,5.5505,5.5072,5.4564,5.4525,5.4291,5.3786,5.3436,5.3241,0.0,0.0,0.0,0.0,0.0,0.0,0.0,0.0,5.2946,5.3299,5.3268,5.3468,5.3818,5.3818,5.3818,5.3818,5.3818,5.381,5.3799,5.3799,5.3794,5.3744,5.3763,5.3279,5.272,5.272,5.2329,5.1901,5.1901,5.1591,5.1199,5.1199,5.1199,5.1125,5.0775,5.0264,4.9556,4.8349,4.7663,4.6905,4.5741,4.4092,4.2592,4.1728,4.0432,3.9408,0.0,0.0,0.0,0.0,0.0,0.0,3.5706,0.0,3.5706,0.0,0.0,0.0,0.0,0.0,0.0,0.0,0.0,0.0,4.0869,0.0,4.3508,4.3508,4.5144,4.6155,4.654,4.7939,4.8794,4.9185,5.0542,5.1474,5.1979,5.3187,5.4391,5.5553,5.6097,5.6528,5.6916,5.7732,5.8583,5.9438,6.0293,6.095,6.1416,5.902,0.0,5.9007,0.0,5.9003,5.8999,5.8999,5.8999,5.8999,5.8999,5.7933,5.7174,5.7157,5.7154,5.7154,5.7154,5.7147,5.7064,5.6791,5.6744,5.6389,5.5533,5.5494,0.0,5.4599,5.4324,5.4168,5.4168,5.3934,0.0,0.0,0.0,0.0,0.0,5.3789,5.3947,5.4181,5.4188,5.4349,5.4582,5.4582,5.4582,5.4582,5.4582,5.4577,5.457,5.457,5.4565,5.4554,5.4572,5.4508,5.4367,5.385,5.3264,5.2798,5.2798,5.2212,5.1552,5.1552,5.1394,5.1199,5.1199,5.0736,5.004,4.9185,4.8313,4.7284,4.5919,4.4425,4.3128,4.2269,4.089,3.9788,3.9556,0.0,0.0,0.0,0.0,0.0,0.0,3.5692,3.5692,3.5692,3.5707,0.0,0.0,0.0,0.0,0.0,0.0,0.0,0.0,0.0,0.0,0.0,4.5144,4.5999,4.6038,4.7786,4.8599,4.8677,5.0425,5.163,5.2445,5.3303,5.4197,5.5084,5.5942,5.6295,5.6372,5.7266,5.7965,5.8583,5.9671,6.0487,6.1066,5.9098,5.9044,5.8991,5.8991,5.9014,5.8999,5.8999,5.8999,5.8999,5.8999,5.8999,5.896,5.8957,5.8957,5.8957,5.8957,5.8975,5.861,5.7753,5.7611,5.7245,0.0,0.0,5.6389,5.6389,5.5533,5.5066,5.5066,0.0,0.0,5.3818,0.0,5.3818,5.3781,5.3808,5.4287,5.5108,5.5167,5.5682,5.6466,5.6466,5.6466,5.6466,5.6466,5.6414,5.6351,5.6351,5.6373,5.6389,5.6389,5.6331,5.5988,5.4248,5.3692,5.3692,5.3692,5.307,5.2407,5.2407,5.1824,5.1199,5.1199,5.1199,5.0969,5.0078,4.9224,4.7853,4.526,4.4015,4.3117,4.2275,4.1372,4.0519,3.9746,0.0,0.0,0.0,0.0,0.0,3.5783,3.5706,3.5706,3.5706,3.5706,0.0,0.0,0.0,0.0,0.0,0.0,0.0,4.0869,4.2575,0.0,4.3508,4.5144,4.5999,4.6038,4.7786,4.8599,4.8677,5.0425,5.163,5.2445,5.3303,5.4197,5.5084,5.5942,5.6295,5.6372,5.7266,5.7619,5.7813,5.948,6.0102,6.0254,6.0818,6.0772,6.0769,6.0769,6.0763,6.0754,6.0776,6.0774,6.0768,6.0752,6.075,6.075,6.075,5.97,5.8999,0.0,5.8992,5.887,0.0,5.8552,5.843,5.8196,5.8157,5.7885,5.73,5.7028,5.6599,5.6054,0.0,0.0,0.0,5.5625,5.5625,5.5628,5.5634,5.5795,5.6067,5.6074,5.6232,5.6507,5.6507,5.6507,5.6507,5.6507,5.65,5.6455,5.6455,5.645,5.6441,5.6425,5.6373,5.6283,5.5711,5.5088,5.4582,5.4582,5.3964,5.3148,5.2562,5.2212,5.1901,5.1355,5.1199,5.0969,5.0117,4.8755,4.7315,4.5869,4.4937,4.408,4.3215,4.2343,4.1476,4.0623,3.9989,0.0,0.0,0.0,0.0,0.0,3.7453,3.7453,0.0,3.7473,0.0,0.0,0.0,0.0,0.0,0.0,0.0,0.0,4.2889,0.0,4.4365,4.5455,4.5999,4.6038,4.7786,4.9221,5.0386,5.0966,5.1355,5.1668,5.307,5.3847,5.4235,5.5712,5.6295,5.6333,5.6605,5.7072,5.7658,5.8198,5.9131,6.0137,6.1655,6.1649,6.1644,6.1644,6.16,6.1591,6.1617,6.1615,6.161,6.1597,6.1595,6.1593,6.1582,6.0647,0.0,5.9973,5.9973,5.9856,5.9505,5.9505,5.9349,5.8999,5.8999,5.8765,5.8219,0.0,0.0,5.744,5.744,5.744,5.744,5.744,5.744,5.744,5.744,5.744,5.744,5.744,5.744,5.744,5.744,5.744,5.744,5.744,5.7245,5.6933,5.6933,5.678,5.6505,5.645,5.6439,5.6388,5.641,5.5983,5.551,5.5497,5.4863,5.408,5.3533,5.2912,5.229,5.1785,5.1432,5.0969,5.0117,4.8794,4.755,4.6657,4.5608,4.4637,4.4093,4.2993,4.2012,4.1466,4.0677,3.9971,3.9697,0.0,0.0,0.0,0.0,0.0,0.0,3.8355,3.8481,0.0,0.0,0.0,0.0,0.0,0.0,4.2153,4.3044,0.0,4.4792,4.5611,4.5999,4.6038,4.7786,4.9493,5.1199,5.1199,5.1199,5.1277,5.2953,5.3692,5.3847,5.5595,5.6295,5.6295,5.6295,5.6644,5.7149,5.7463,5.8276,5.9247,6.1719,6.1709,6.17,0.0,6.1649,0.0,6.1598,6.1598,6.1598,6.1597,6.1597,6.159,6.1606,6.1603,6.1597,6.1614,0.0,0.0,0.0,6.0399,6.0012,5.9232,5.9194,5.9155,5.9077,5.9077,5.9077,5.8999,5.8999,5.8999,5.8999,5.8999,5.8999,5.8999,5.8999,5.8999,5.8999,5.8999,5.8999,5.8999,5.8999,5.8999,5.8999,5.8999,5.8492,5.7791,5.7791,5.7323,5.6663,5.6663,5.6608,5.6471,5.6471,5.6454,5.6386,5.6314,5.5737,5.5087,5.5009,5.3805,5.2562,5.2445,5.1785,5.0969,5.0117,4.9224,4.8366,4.747,4.5997,4.487,4.4792,4.3474,4.2347,4.2233,4.1531,4.0713,3.9895,0.0,0.0,0.0,0.0,0.0,0.0,3.8581,3.8928,0.0,0.0,0.0,0.0,0.0,4.1374,4.227,4.3122,4.4013,4.487,4.5611,4.6077,4.6193,4.7825,4.9493,5.1199,5.1199,5.1199,5.1277,5.2915,5.3653,5.3847,5.5518,5.6256,5.6295,5.6295,5.6295,5.6411,5.7227,5.7541,5.7813,0.0,0.0,6.1714,6.1714,6.1672,6.1667,6.1694,6.1693,6.1651,6.1598,6.1597,6.1595,6.159,6.159,6.1588,6.1582,6.1591,6.149,6.1295,6.1295,6.1218,6.0984,6.0984,6.0672,6.0012,5.9973,5.9661,5.8999,5.8999,5.8999,5.8999,5.8999,5.8999,5.8999,5.8999,5.8999,5.8999,5.8999,5.8999,5.8999,5.8999,5.8999,5.8999,5.8999,5.8882,5.8687,5.8687,5.857,5.8414,5.8414,5.7942,5.7392,5.7392,5.6948,5.6373,5.6319,5.6143,5.5859,5.5171,5.4695,5.4077,5.2717,5.1785,5.0969,5.0117,4.9224,4.8366,4.747,4.6463,4.5533,4.4909,4.4443,4.3746,4.2425,4.2036,4.1609,4.0752,4.0635,0.0,0.0,4.0325,4.0325,4.0325,4.0325,4.0402,0.0,0.0,0.0,0.0,4.1881,4.2308,4.3158,4.4054,4.487,4.5727,4.5883,4.666,4.7981,4.8405,4.9493,5.1199,5.1199,5.1199,5.1277,5.2251,5.3109,5.3769,5.4854,5.5709,5.6295,5.6295,5.6295,5.6333,5.6528,5.7033,5.7658,6.2891,6.2891,6.2891,6.2891,6.2891,6.2889,6.2882,6.2569,6.2291,6.2245,6.1893,6.1655,6.1648,6.1648,6.1644,6.1597,6.1615,6.1601,6.1601,6.1601,6.1601,6.1601,6.1591,6.1389,6.0883,6.0874,6.0672,6.0207,6.0207,6.0207,6.0207,6.0207,6.0207,6.0207,6.0207,6.0207,6.0207,6.0207,6.0207,6.0207,6.0207,6.0207,6.0207,6.0207,5.9934,5.9583,5.9583,5.9349,5.8999,5.8999,5.8687,5.8297,5.8297,5.7704,5.6984,5.6944,5.6647,5.6242,5.574,5.5303,5.4562,5.2837,5.2057,5.1513,5.0697,4.9807,4.8952,4.8055,4.7201,4.6346,4.5494,4.5067,4.4481,4.3552,4.2736,4.2036,4.157,4.114,0.0,4.0907,4.0907,4.0907,4.0907,4.0907,4.1063,4.1454,4.1492,0.0,4.2733,4.3163,4.3629,4.4093,4.4559,4.5183,4.5999,4.6388,4.7279,4.8599,4.8991,4.9881,5.1199,5.1199,5.1199,5.1238,5.2057,5.2876,5.3769,5.4621,5.5514,5.6295,5.6295,5.6295,5.6295,5.6295,5.6605,5.7072,6.4298,6.4298,6.4298,6.4298,6.4298,6.4298,6.4298,6.3673,6.3204,6.3204,6.254,6.2027,6.1898,6.1897,6.1814,6.1644,6.1604,6.1602,6.1597,6.1597,6.1597,6.1597,6.1617,6.1608,6.1608,6.1589,6.1619,6.1619,6.1619,6.1619,6.1619,6.1619,6.1619,6.1619,6.1614,6.1612,6.1612,6.161,6.1607,6.1607,6.1607,6.1607,6.1607,6.1607,6.114,6.0516,6.0516,6.0012,5.9388,5.9388,5.931,5.9194,5.9194,5.8609,5.7903,5.7882,5.7276,5.655,5.6361,5.5686,5.4624,5.316,5.2604,5.2212,5.1552,5.0622,4.969,4.8952,4.8017,4.7082,4.6349,4.5533,4.4948,4.4831,4.3552,4.2541,4.2425,0.0,4.1296,4.1296,4.1296,4.1296,4.1296,4.1296,4.1607,4.2347,4.2386,4.2775,0.0,4.4404,4.487,4.4989,4.4989,4.53,4.5999,4.6851,4.7742,4.8599,4.9496,5.035,5.1199,5.1199,5.1199,5.1238,5.1901,5.2798,5.3769,5.4504,5.5398,5.6295,5.6295,5.6295,5.6295,5.6295,5.6295,5.6411,6.4298,6.4298,6.4298,6.4298,6.4298,6.4298,6.4298,6.4181,6.4103,6.4103,6.3985,6.3633,6.2889,6.2811,6.2497,6.1752,6.1674,6.1664,6.1598,6.1597,6.1597,6.1597,6.1593,6.1591,6.1591,6.159,6.1588,6.1588,6.1588,6.1588,6.1588,6.1588,6.1588,6.1586,6.1606,6.1597,6.1595,6.1616,6.1607,6.1607,6.1607,6.1607,6.1607,6.1607,6.1529,6.1412,6.1412,6.1295,6.1218,6.1218,6.0711,6.009,6.009,5.9505,5.8804,5.8799,5.8171,5.7342,5.6591,5.57,5.4941,5.4663,5.3476,5.2368,5.2251,5.1011,4.9848,4.9729,4.8405,4.7276,4.712,4.6385,4.5572,4.4909,4.4559,4.4132,4.3391,0.0,4.308,4.308,4.308,4.308,4.308,4.308,4.3158,4.3275,4.3313,4.3666,4.4559,4.4715,4.5106,4.5805,4.5805,4.5883,4.5999,4.6851,4.7742,4.8599,4.9496,5.035,5.1199,5.1199,5.1199,5.1199,5.1316,5.2251,5.3692,5.3847,5.4857,5.6295,5.6295,5.6295,5.6295,5.6295,5.6295,5.6333,6.5664,6.5664,6.5664,6.5664,6.5664,6.5664,6.5664,6.5274,6.4999,6.4999,6.4571,6.4142,6.3751,6.3712,6.3556,6.3125,6.3086,6.3081,6.3069,6.217,6.1661,6.1661,6.1654,6.1878,6.2297,6.2767,6.3001,6.3001,6.3001,6.3001,6.3001,6.3001,6.3001,6.3001,6.2992,6.2986,6.2986,6.2508,6.2301,6.2251,6.1784,6.1619,6.1607,6.1607,6.1607,6.1607,6.1607,6.1607,6.1607,6.1607,6.1334,6.0984,6.0984,6.0399,5.97,5.97,5.8756,5.7493,5.6653,5.608,5.5628,5.5161,5.4088,5.3016,5.2552,5.1489,5.0467,5.0001,4.9263,4.8405,4.747,4.6968,4.6424,4.5572,4.5067,0.0,0.0,4.3819,4.3508,4.3508,4.3508,4.3508,4.3508,4.3508,4.3702,4.4171,4.421,4.4559,4.5416,4.5455,4.5611,4.5999,4.5999,4.6232,4.6696,4.755,4.8444,4.9301,5.0195,5.0814,5.1199,5.1199,5.1199,5.1199,5.1199,5.2135,5.3692,5.3692,5.4741,5.6295,5.6295,5.6295,5.6295,5.6295,5.6295,5.6295,6.6796,6.6796,6.6796,6.6796,6.6796,6.6796,6.6796,6.6288,6.5897,6.5897,6.5313,6.4805,6.461,6.461,6.4532,6.4337,6.4298,6.4298,6.4298,6.3047,6.2304,6.2304,6.2296,6.2596,6.3208,6.3873,6.4224,6.4224,6.4224,6.4224,6.4224,6.4224,6.4224,6.4224,6.4219,6.4218,6.4179,6.3471,6.3187,6.3134,6.2469,6.2065,6.1889,6.1889,6.177,6.1607,6.1607,6.1607,6.1607,6.1607,6.1607,6.1607,6.1607,6.114,6.0594,6.0594,5.9491,5.8075,5.6984,5.6536,5.6244,5.5582,5.4741,5.3864,5.3011,5.2136,5.1261,5.0365,5.0051,4.9504,4.8133,4.7587,4.7082,4.6427,0.0,0.0,0.0,4.4481,4.409,4.409,4.409,4.409,4.409,4.409,4.4365,4.5028,4.5067,4.5339,4.596,4.5999,4.6077,4.631,4.631,4.6618,4.7276,4.8366,4.9224,4.9926,5.0775,5.1199,5.1199,5.1199,5.1199,5.1199,5.1199,5.2135,5.3692,5.3692,5.4741,5.6295,5.6295,5.6295,5.6295,5.6295,5.6295,5.6295,6.6796,6.6796,6.6796,6.6796,6.6796,6.6796,6.6796,6.6757,6.6718,6.6718,6.6679,6.6328,6.5585,6.5507,6.5194,6.4376,6.4298,6.4298,6.4298,6.4181,6.4103,6.4103,6.4101,6.414,6.4217,6.4256,6.4295,6.4295,6.4295,6.4295,6.4295,6.4295,6.4295,6.4295,6.4241,6.4195,6.4193,6.4141,6.4093,6.4093,6.4015,6.3534,6.2812,6.2812,6.2292,6.1607,6.1607,6.1607,6.1607,6.1607,6.1607,6.1607,6.1607,6.1568,6.149,6.149,6.0828,5.9735,5.8061,5.6991,5.6388,5.631,5.5667,5.4788,5.3893,5.3034,5.2171,5.1291,5.0467,4.9876,4.9734,4.8405,4.7276,4.7198,0.0,0.0,4.5921,4.5844,4.5805,4.5805,4.5805,4.5805,4.5805,4.5805,4.5844,4.5921,4.5921,4.5921,4.5999,4.5999,4.6388,4.7198,4.7198,4.7237,4.7315,4.8952,4.9848,4.9926,5.0775,5.1199,5.1199,5.1199,5.1199,5.1199,5.1199,5.2135,5.3692,5.3692,5.4741,5.6295,5.6295,5.6295,5.6295,5.6295,5.6295,5.6295,6.6796,6.6796,6.6796,6.6796,6.6796,6.6796,6.6796,6.6796,6.6796,6.6796,6.6796,6.6679,6.6366,6.6327,6.6211,6.5898,6.5859,6.5859,6.5859,6.5859,6.5391,6.4337,6.4805,6.5116,6.5116,6.5586,6.5859,6.5859,6.5859,6.5859,6.5859,6.5859,6.5859,6.5859,6.5815,6.5813,6.5772,6.5298,6.5057,6.4971,6.4423,6.3983,6.3694,6.3694,6.3173,6.2412,6.2412,6.205,6.1607,6.1607,6.1607,6.1607,6.1607,6.1607,6.1607,6.1607,6.0984,6.0168,5.9505,5.8291,5.7076,5.6608,5.5772,5.5013,5.4663,5.3519,5.2414,5.2054,5.1299,5.0547,4.999,4.9351,4.8561,4.747,0.0,4.6618,4.6077,4.5999,4.5999,4.5999,4.5999,4.5999,4.5999,4.5999,4.5999,4.5999,4.6502,4.6812,4.6812,4.7317,4.7745,4.8094,4.8638,4.8913,4.8913,4.9573,5.0156,5.0697,5.1047,5.1199,5.1199,5.1199,5.1199,5.1199,5.1199,5.2135,5.3692,5.3692,5.4741,5.6295,5.6295,5.6295,5.6295,5.6295,5.6295,5.6295,6.6796,6.6796,6.6796,6.6796,6.6796,6.6796,6.6796,6.6796,6.6796,6.6796,6.6796,6.6796,6.6796,6.6796,6.6796,6.6796,6.6796,6.6796,6.6796,6.6796,6.6289,6.5157,6.5663,6.5975,6.5975,6.6523,6.6796,6.6796,6.6796,6.6796,6.6796,6.6796,6.6796,6.6796,6.6796,6.6796,6.6757,6.6209,6.5931,6.5845,6.5259,6.486,6.4611,6.4611,6.4053,6.3292,6.3323,6.2921,6.2359,6.2116,6.1997,6.1958,6.1685,6.1607,6.1607,6.1607,6.1179,6.0633,6.036,5.9232,5.7908,5.7089,5.6182,5.5467,5.5195,5.4207,5.3178,5.2626,5.2067,5.1351,5.0485,5.0081,4.9521,4.8302,4.7872,4.7481,4.6893,4.6582,4.6427,4.6427,4.6427,4.6427,4.6427,4.666,4.6815,4.6815,4.7356,4.7703,4.7703,4.8522,4.903,4.903,4.9845,5.0312,5.0312,5.0312,5.0619,5.1199,5.1199,5.1199,5.1199,5.1199,5.1199,5.1199,5.1474,5.2368,5.373,5.4002,5.4974,5.6295,5.6295,5.6295,5.6295,5.6295,5.6295,5.6295,6.6796,6.6796,6.6796,6.6796,6.6796,6.6796,6.6796,6.6796,6.6796,6.6796,6.6796,6.6796,6.6796,6.6796,6.6796,6.6796,6.6796,6.6796,6.6796,6.6796,6.6796,6.6796,6.6796,6.6796,6.6796,6.6796,6.6796,6.6796,6.6796,6.6796,6.6796,6.6796,6.6796,6.6796,6.6796,6.6796,6.6796,6.6796,6.6796,6.6796,6.6796,6.6281,6.5526,6.5526,6.4969,6.4209,6.4226,6.4218,6.4058,6.3214,6.2893,6.2737,6.188,6.1607,6.1607,6.1607,6.1607,6.1412,6.0555,5.9661,5.8804,5.7908,5.7089,5.6271,5.5409,5.5214,5.4702,5.2968,5.2613,5.2334,5.1371,5.0551,5.0002,4.9892,4.9186,4.8593,4.8605,4.7861,4.7315,4.7315,4.7315,4.7315,4.7315,4.8094,4.8599,4.8599,4.8599,4.8599,4.8638,4.9457,4.9926,4.9926,5.0736,5.1199,5.1199,5.1199,5.1199,5.1199,5.1199,5.1199,5.1199,5.1199,5.1199,5.1238,5.2057,5.2876,5.3769,5.4621,5.5514,5.6295,5.6295,5.6295,5.6295,5.6295,5.6295,5.6295,6.6796,6.6796,6.6796,6.6796,6.6796,6.6796,6.6796,6.6796,6.6796,6.6796,6.6796,6.6796,6.6796,6.6796,6.6796,6.6796,6.6796,6.6796,6.6796,6.6796,6.6796,6.6796,6.6796,6.6796,6.6796,6.6796,6.6796,6.6796,6.6796,6.6796,6.6796,6.6796,6.6796,6.6796,6.6796,6.6796,6.6796,6.6796,6.6796,6.6796,6.6796,6.6638,6.6399,6.6399,6.5884,6.5128,6.5122,6.4721,6.416,6.3904,6.3427,6.2762,6.1887,6.1607,6.1607,6.1607,6.1607,6.1529,6.1295,6.0594,5.9544,5.8063,5.7089,5.6427,5.6154,5.5645,5.5056,5.4544,5.3442,5.2494,5.2214,5.1458,5.0666,5.0077,4.9764,4.9372,4.8742,4.8468,4.8266,4.8204,4.8199,4.8194,4.8214,4.8444,4.8599,4.8599,4.9185,4.9768,5.0386,5.0658,5.0814,5.0814,5.1047,5.1199,5.1199,5.1199,5.1199,5.1199,5.1199,5.1199,5.1199,5.1199,5.1199,5.1238,5.2057,5.2876,5.3769,5.4621,5.5514,5.6295,5.6295,5.6295,5.6295,5.6295,5.6295,5.6295,6.6803,6.6802,6.6801,6.6798,6.6796,6.6796,6.6796,6.6796,6.6796,6.6796,6.6796,6.6796,6.6796,6.6796,6.6796,6.6796,6.6796,6.6796,6.6796,6.6796,6.6796,6.6796,6.6796,6.6796,6.6796,6.6796,6.6796,6.6796,6.6796,6.6796,6.6796,6.6796,6.6796,6.6796,6.6796,6.6796,6.6796,6.6796,6.6796,6.6796,6.6796,6.6796,6.6796,6.6796,6.6479,6.6002,6.5996,6.5675,6.5195,6.4823,6.4148,6.3278,6.2396,6.2114,6.2036,6.1685,6.1607,6.1607,6.1607,6.0945,6.0051,5.8999,5.783,5.6894,5.6585,5.6076,5.5606,5.5253,5.4349,5.3405,5.2743,5.2146,5.147,5.0648,5.0492,5.0332,4.9775,4.9425,4.9187,4.9168,4.9165,4.916,4.9145,4.9451,4.9645,4.9645,5.0112,5.0656,5.1159,5.1197,5.1192,5.1181,5.1181,5.1214,5.1199,5.1199,5.1199,5.1199,5.1199,5.1199,5.1199,5.1199,5.1355,5.1707,5.2562,5.342,5.4274,5.5165,5.5825,5.6295,5.6295,5.6295,5.6295,5.6295,5.6295,5.6295,6.6815,6.6813,6.681,6.6801,6.68,6.68,6.68,6.6799,6.6798,6.6798,6.6796,6.6796,6.6796,6.6796,6.6796,6.6796,6.6798,6.6799,6.68,6.68,6.68,6.68,6.68,6.68,6.68,6.6798,6.6796,6.6796,6.6796,6.6796,6.6796,6.6796,6.6796,6.6796,6.6796,6.6796,6.6796,6.6796,6.6796,6.6796,6.6796,6.6796,6.6796,6.6796,6.6796,6.6795,6.6781,6.6814,6.6655,6.578,6.4979,6.4138,6.3217,6.2898,6.274,6.1841,6.1607,6.1607,6.1607,6.1023,6.0402,6.0324,5.9116,5.7713,5.6816,5.6546,5.6271,5.5487,5.5253,5.4708,5.311,5.2721,5.2327,5.1568,5.1332,5.1284,5.122,5.0597,5.0133,5.013,5.013,5.0091,5.0128,5.0782,5.1208,5.1208,5.1208,5.1208,5.1208,5.1208,5.1198,5.1216,5.1214,5.12,5.1205,5.1205,5.1202,5.1199,5.1199,5.1199,5.1199,5.1199,5.163,5.2445,5.3303,5.4197,5.5084,5.5942,5.6295,5.6295,5.6295,5.6295,5.6295,5.6295,5.6295,5.6295,6.6862,6.6862,6.6861,6.6899,6.6899,6.6899,6.6899,6.6814,6.6809,6.6809,6.6801,6.6796,6.6796,6.6796,6.6796,6.6796,6.6803,6.6812,6.6859,6.6899,6.6899,6.6899,6.6899,6.6899,6.6899,6.6845,6.6796,6.6796,6.6796,6.6796,6.6796,6.6796,6.6796,6.6796,6.6796,6.6796,6.6796,6.6796,6.6796,6.6796,6.6796,6.6796,6.6796,6.6796,6.6796,6.6796,6.6792,6.6791,6.6673,6.58,6.5352,6.4942,6.3399,6.2886,6.2726,6.1848,6.1607,6.1607,6.1607,6.1451,6.114,6.0477,6.0012,5.9349,5.7791,5.6933,5.6468,5.6271,5.5684,5.5098,5.4708,5.3539,5.2526,5.2366,5.174,5.1273,5.1267,5.1111,5.1029,5.1012,5.101,5.1001,5.0941,5.1094,5.1208,5.1208,5.1208,5.1208,5.1208,5.1208,5.1206,5.1201,5.1201,5.1188,5.12,5.12,5.1189,5.1199,5.1199,5.1199,5.1199,5.1199,5.163,5.2445,5.3303,5.4197,5.5084,5.5942,5.6295,5.6295,5.6295,5.6295,5.6295,5.6295,5.6295,5.6295,6.6908,6.6908,6.6907,6.6904,6.6903,6.6903,6.6903,6.686,6.6857,6.6857,6.6854,6.6851,6.6851,6.6851,6.6851,6.6851,6.6856,6.686,6.6903,6.6903,6.6903,6.6903,6.6903,6.6903,6.6903,6.6856,6.6851,6.6851,6.6851,6.6849,6.6803,6.6803,6.6801,6.6796,6.6796,6.6796,6.6796,6.6796,6.6796,6.6796,6.6796,6.6796,6.6796,6.6796,6.6796,6.6796,6.6796,6.6796,6.6716,6.6272,6.6104,6.5899,6.4552,6.3836,6.3358,6.2487,6.1931,6.1607,6.1607,6.1607,6.149,6.1023,6.0594,5.9856,5.8102,5.7362,5.6972,5.6585,5.6154,5.5684,5.5292,5.4435,5.3695,5.3305,5.2487,5.1902,5.1902,5.1552,5.1316,5.1306,5.1304,5.13,5.1245,5.1245,5.1245,5.1245,5.1245,5.1245,5.1245,5.1245,5.1241,5.1269,5.1269,5.1218,5.119,5.119,5.1214,5.1186,5.1208,5.1199,5.1199,5.1591,5.2212,5.307,5.3925,5.4815,5.567,5.6097,5.6295,5.6295,5.6295,5.6295,5.6295,5.6295,5.6295,5.6295,6.6912,6.6912,6.6911,6.6907,6.6907,6.6907,6.6907,6.6906,6.6905,6.6905,6.6904,6.6903,6.6903,6.6903,6.6904,6.6905,6.6905,6.6906,6.6907,6.6907,6.6907,6.6907,6.6907,6.6907,6.6907,6.6907,6.6906,6.6903,6.6903,6.686,6.6814,6.6814,6.681,6.6802,6.68,6.6799,6.6799,6.6798,6.6796,6.6796,6.6796,6.6796,6.6796,6.6796,6.6796,6.6796,6.6796,6.6796,6.6794,6.6781,6.6816,6.6657,6.5782,6.4985,6.4228,6.321,6.2375,6.1809,6.1653,6.1612,6.1607,6.1607,6.1062,6.009,5.8492,5.7908,5.7518,5.6855,5.6585,5.6271,5.5567,5.5292,5.4942,5.424,5.3383,5.2838,5.2838,5.2214,5.1708,5.1554,5.1398,5.132,5.132,5.132,5.132,5.132,5.132,5.132,5.132,5.132,5.1312,5.1295,5.1295,5.1282,5.1215,5.1215,5.1203,5.1216,5.1342,5.1438,5.1435,5.2096,5.2953,5.3964,5.4699,5.5476,5.6295,5.6295,5.6295,5.6295,5.6295,5.6295,5.6295,5.6295,5.6295,5.6295,6.6914,6.6914,6.6914,6.6914,6.6914,6.6914,6.6914,6.6912,6.691,6.691,6.6907,6.6903,6.6903,6.6903,6.6906,6.691,6.691,6.6912,6.6914,6.6914,6.6914,6.6914,6.6914,6.6914,6.6914,6.6914,6.6912,6.6903,6.6903,6.6902,6.6902,6.6902,6.6901,6.6861,6.6814,6.681,6.6809,6.68,6.6796,6.6796,6.6796,6.6796,6.6796,6.6796,6.6796,6.6796,6.6796,6.6796,6.6796,6.6794,6.6794,6.6635,6.5762,6.5403,6.5008,6.3391,6.2826,6.2576,6.1792,6.1584,6.1607,6.1607,6.149,6.1179,6.0168,5.8765,5.7674,5.7557,5.6972,5.6468,5.6349,5.5723,5.5176,5.5059,5.4279,5.3734,5.3734,5.3617,5.3266,5.2526,5.1747,5.132,5.132,5.132,5.132,5.132,5.132,5.132,5.132,5.132,5.1318,5.1316,5.1316,5.1306,5.1284,5.1284,5.1271,5.1203,5.1953,5.2275,5.2251,5.2368,5.33,5.4815,5.4967,5.5476,5.6295,5.6295,5.6295,5.6295,5.6295,5.6295,5.6295,5.6295,5.6295,5.6295,6.6914,6.6914,6.6914,6.6914,6.6914,6.6914,6.6914,6.6914,6.6913,6.6913,6.6913,6.6912,6.6912,6.6912,6.6912,6.6913,6.6913,6.6914,6.6914,6.6914,6.6914,6.6914,6.6914,6.6914,6.6914,6.6914,6.6914,6.6912,6.6912,6.6911,6.6908,6.6908,6.6907,6.6903,6.686,6.6859,6.6858,6.681,6.6806,6.6805,6.6799,6.6796,6.6796,6.6796,6.6796,6.6796,6.6796,6.6796,6.6796,6.6796,6.6796,6.6717,6.636,6.5884,6.5252,6.3994,6.3276,6.2711,6.1839,6.1595,6.1584,6.1612,6.1607,6.149,6.1101,6.0051,5.8882,5.7908,5.7401,5.7011,5.6585,5.6193,5.5918,5.5918,5.5176,5.463,5.463,5.4201,5.3773,5.3383,5.2993,5.276,5.276,5.276,5.2565,5.2058,5.2019,5.1824,5.132,5.132,5.132,5.132,5.132,5.1316,5.1306,5.1773,5.1996,5.1972,5.284,5.2966,5.2508,5.3423,5.4271,5.5045,5.5514,5.5942,5.6295,5.6295,5.6295,5.6295,5.6295,5.6295,5.6295,5.6295,5.6295,5.6295]}]]